[[{"header":{"parameterUnit":"m.s-1","parameterCategory":1,"la1":30.6,"la2":28.766,"lo1":-90.7593,"lo2":-88.6598,"dy":0.0162,"dx":0.0183,"nx":116,"ny":114,"refTime":"2024-03-28T06:00:00:Z","depth":0,"parameterNumber":2,"parameterNumberName":"U-component_of_WINDS"},"data":[0.0,0.0,0.0,0.0,0.0,0.0,0.0,0.0,0.0,0.0,0.0,0.0,0.0,0.0,0.0,0.0,0.0,0.0,0.0,0.0,0.0,0.0,0.0,0.0,0.0,0.0,0.0,0.0,0.0,0.0,0.0,0.0,0.0,0.0,0.0,0.0,0.0,0.0,0.0,0.0,0.0,0.0,0.0,0.0,0.0,0.0,0.0,0.0,0.0,0.0,0.0,0.0,0.0,0.0,0.0,0.0,0.0,0.0,0.0,0.0,0.0,0.0,0.0,0.0,0.0,0.0,0.0,0.0,0.0,0.0,0.0,0.0,0.0,0.0,0.0,0.0,0.0,0.0,0.0,0.0,0.0,0.0,0.0,0.0,0.0,0.0,0.0,0.0,0.0,0.0,0.0,0.0,0.0,0.0,0.0,0.0,0.0,0.0,0.0,0.0,0.0,0.0,0.0,0.0,0.0,0.0,0.0,0.0,0.0,0.0,0.0,0.0,0.0,0.0,0.0,0.0,0.0,0.0,0.0,0.0,0.0,0.0,0.0,0.0,0.0,0.0,0.0,0.0,0.0,0.0,0.0,0.0,0.0,0.0,0.0,0.0,0.0,0.0,0.0,0.0,0.0,0.0,0.0,0.0,0.0,0.0,0.0,0.0,0.0,0.0,0.0,0.0,0.0,0.0,0.0,0.0,0.0,0.0,0.0,0.0,0.0,0.0,0.0,0.0,0.0,0.0,0.0,0.0,0.0,0.0,0.0,0.0,0.0,0.0,0.0,0.0,0.0,0.0,0.0,0.0,0.0,0.0,0.0,0.0,0.0,0.0,0.0,0.0,0.0,0.0,0.0,0.0,0.0,0.0,0.0,0.0,0.0,0.0,0.0,0.0,0.0,0.0,0.0,0.0,0.0,0.0,0.0,0.0,0.0,0.0,0.0,0.0,0.0,0.0,0.0,0.0,0.0,0.0,0.0,0.0,0.0,0.0,0.0,0.0,0.0,0.0,0.0,0.0,0.0,0.0,0.0,0.0,0.0,0.0,0.0,0.0,0.0,0.0,0.0,0.0,0.0,0.0,0.0,0.0,0.0,0.0,0.0,0.0,0.0,0.0,0.0,0.0,0.0,0.0,0.0,0.0,0.0,0.0,0.0,0.0,0.0,0.0,0.0,0.0,0.0,0.0,0.0,0.0,0.0,0.0,0.0,0.0,0.0,0.0,0.0,0.0,0.0,0.0,0.0,0.0,0.0,0.0,0.0,0.0,0.0,0.0,0.0,0.0,0.0,0.0,0.0,0.0,0.0,0.0,0.0,0.0,0.0,0.0,0.0,0.0,0.0,0.0,0.0,0.0,0.0,0.0,0.0,0.0,0.0,0.0,0.0,0.0,0.0,0.0,0.0,0.0,0.0,0.0,0.0,0.0,0.0,0.0,0.0,0.0,0.0,0.0,0.0,0.0,0.0,0.0,0.0,0.0,0.0,0.0,0.0,0.0,0.0,0.0,0.0,0.0,0.0,0.0,0.0,0.0,0.0,0.0,0.0,0.0,0.0,0.0,0.0,0.0,0.0,0.0,0.0,0.0,0.0,0.0,0.0,0.0,0.0,0.0,0.0,0.0,0.0,0.0,0.0,0.0,0.0,0.0,0.0,0.0,0.0,0.0,0.0,0.0,0.0,0.0,0.0,0.0,0.0,0.0,0.0,0.0,0.0,0.0,0.0,0.0,0.0,0.0,0.0,0.0,0.0,0.0,0.0,0.0,0.0,0.0,0.0,0.0,0.0,0.0,0.0,0.0,0.0,0.0,0.0,0.0,0.0,0.0,0.0,0.0,0.0,0.0,0.0,0.0,0.0,0.0,0.0,0.0,0.0,0.0,0.0,0.0,0.0,0.0,0.0,0.0,0.0,0.0,0.0,0.0,0.0,0.0,0.0,0.0,0.0,0.0,0.0,0.0,0.0,0.0,0.0,0.0,0.0,0.0,0.0,0.0,0.0,0.0,0.0,0.0,0.0,0.0,0.0,0.0,0.0,0.0,0.0,0.0,0.0,0.0,0.0,0.0,0.0,0.0,0.0,0.0,0.0,0.0,0.0,0.0,0.0,0.0,0.0,0.0,0.0,0.0,0.0,0.0,0.0,0.0,0.0,0.0,0.0,0.0,0.0,0.0,0.0,0.0,0.0,0.0,0.0,0.0,0.0,0.0,0.0,0.0,0.0,0.0,0.0,0.0,0.0,0.0,0.0,0.0,0.0,0.0,0.0,0.0,0.0,0.0,0.0,0.0,0.0,0.0,0.0,0.0,0.0,0.0,0.0,0.0,0.0,0.0,0.0,0.0,0.0,0.0,0.0,0.0,0.0,0.0,0.0,0.0,0.0,0.0,0.0,0.0,0.0,0.0,0.0,0.0,0.0,0.0,0.0,0.0,0.0,0.0,0.0,0.0,0.0,0.0,0.0,0.0,0.0,0.0,0.0,0.0,0.0,0.0,0.0,0.0,0.0,0.0,0.0,0.0,0.0,0.0,0.0,0.0,0.0,0.0,0.0,0.0,0.0,0.0,0.0,0.0,0.0,0.0,0.0,0.0,0.0,0.0,0.0,0.0,0.0,0.0,0.0,0.0,0.0,0.0,0.0,0.0,0.0,0.0,0.0,0.0,0.0,0.0,0.0,0.0,0.0,0.0,0.0,0.0,0.0,0.0,0.0,0.0,0.0,0.0,0.0,0.0,0.0,0.0,0.0,0.0,0.0,0.0,0.0,0.0,0.0,0.0,0.0,0.0,0.0,0.0,0.0,0.0,0.0,0.0,0.0,0.0,0.0,0.0,0.0,0.0,0.0,0.0,0.0,0.0,0.0,0.0,0.0,0.0,0.0,0.0,0.0,0.0,0.0,0.0,0.0,0.0,0.0,0.0,0.0,0.0,0.0,0.0,0.0,0.0,0.0,0.0,0.0,0.0,0.0,0.0,0.0,0.0,0.0,0.0,0.0,0.0,0.0,0.0,0.0,0.0,0.0,0.0,0.0,0.0,0.0,0.0,0.0,0.0,0.0,0.0,0.0,0.0,0.0,0.0,0.0,0.0,0.0,0.0,0.0,0.0,0.0,0.0,0.0,0.0,0.0,0.0,0.0,0.0,0.0,0.0,0.0,0.0,0.0,0.0,0.0,0.0,0.0,0.0,0.0,0.0,0.0,0.0,0.0,0.0,0.0,0.0,0.0,0.0,0.0,0.0,0.0,0.0,0.0,0.0,0.0,0.0,0.0,0.0,0.0,0.0,0.0,0.0,0.0,0.0,0.0,0.0,0.0,0.0,0.0,0.0,0.0,0.0,0.0,0.0,0.0,0.0,0.0,0.0,0.0,0.0,0.0,0.0,0.0,0.0,0.0,0.0,0.0,0.0,0.0,0.0,0.0,0.0,0.0,0.0,0.0,0.0,0.0,0.0,0.0,0.0,0.0,0.0,0.0,0.0,0.0,0.0,0.0,0.0,0.0,0.0,0.0,0.0,0.0,0.0,0.0,0.0,0.0,0.0,0.0,0.0,0.0,0.0,0.0,0.0,0.0,0.0,0.0,0.0,0.0,0.0,0.0,0.0,0.0,0.0,0.0,0.0,0.0,0.0,0.0,0.0,0.0,0.0,0.0,0.0,0.0,0.0,0.0,0.0,0.0,0.0,0.0,0.0,0.0,0.0,0.0,0.0,0.0,0.0,0.0,0.0,0.0,0.0,0.0,0.0,0.0,0.0,0.0,0.0,0.0,0.0,0.0,0.0,0.0,0.0,0.0,0.0,0.0,0.0,0.0,0.0,0.0,0.0,0.0,0.0,0.0,0.0,0.0,0.0,0.0,0.0,0.0,0.0,0.0,0.0,0.0,0.0,0.0,0.0,0.0,0.0,0.0,0.0,0.0,0.0,0.0,0.0,0.0,0.0,0.0,0.0,0.0,0.0,0.0,0.0,0.0,0.0,0.0,0.0,0.0,0.0,0.0,0.0,0.0,0.0,0.0,0.0,0.0,0.0,0.0,0.0,0.0,0.0,0.0,0.0,0.0,0.0,0.0,0.0,0.0,0.0,0.0,0.0,0.0,0.0,0.0,0.0,0.0,0.0,0.0,0.0,0.0,0.0,0.0,0.0,0.0,0.0,0.0,0.0,0.0,0.0,0.0,0.0,0.0,0.0,0.0,0.0,0.0,0.0,0.0,0.0,0.0,0.0,0.0,0.0,0.0,0.0,0.0,0.0,0.0,0.0,0.0,0.0,0.0,0.0,0.0,0.0,0.0,0.0,0.0,0.0,0.0,0.0,0.0,0.0,0.0,0.0,0.0,0.0,0.0,0.0,0.0,0.0,0.0,0.0,0.0,0.0,0.0,0.0,0.0,0.0,0.0,0.0,0.0,0.0,0.0,0.0,0.0,0.0,0.0,0.0,0.0,0.0,0.0,0.0,0.0,0.0,0.0,0.0,0.0,0.0,0.0,0.0,0.0,0.0,0.0,0.0,0.0,0.0,0.0,0.0,0.0,0.0,0.0,0.0,0.0,0.0,0.0,0.0,0.0,0.0,0.0,0.0,0.0,0.0,0.0,0.0,0.0,0.0,0.0,0.0,0.0,0.0,0.0,0.0,0.0,0.0,0.0,0.0,0.0,0.0,0.0,0.0,0.0,0.0,0.0,0.0,0.0,0.0,0.0,0.0,0.0,0.0,0.0,0.0,0.0,0.0,0.0,0.0,0.0,0.0,0.0,0.0,0.0,0.0,0.0,0.0,0.0,0.0,0.0,0.0,0.0,0.0,0.0,0.0,0.0,0.0,0.0,0.0,0.0,0.0,0.0,0.0,0.0,0.0,0.0,0.0,0.0,0.0,0.0,0.0,0.0,0.0,0.0,0.0,0.0,0.0,0.0,0.0,0.0,0.0,0.0,0.0,0.0,0.0,0.0,0.0,0.0,0.0,0.0,0.0,0.0,0.0,0.0,0.0,0.0,0.0,0.0,0.0,0.0,0.0,0.0,0.0,0.0,0.0,0.0,0.0,0.0,0.0,0.0,0.0,0.0,0.0,0.0,0.0,0.0,0.0,0.0,0.0,0.0,0.0,0.0,0.0,0.0,0.0,0.0,0.0,0.0,0.0,0.0,0.0,0.0,0.0,0.0,0.0,0.0,0.0,0.0,0.0,0.0,0.0,0.0,0.0,0.0,0.0,0.0,0.0,0.0,0.0,0.0,0.0,0.0,0.0,0.0,0.0,0.0,0.0,0.0,0.0,0.0,0.0,0.0,0.0,0.0,0.0,0.0,0.0,0.0,0.0,0.0,0.0,0.0,0.0,0.0,0.0,0.0,0.0,0.0,0.0,0.0,0.0,0.0,0.0,0.0,0.0,0.0,0.0,0.0,0.0,0.0,0.0,0.0,0.0,0.0,0.0,0.0,0.0,0.0,0.0,0.0,0.0,0.0,0.0,0.0,0.0,0.0,0.0,0.0,0.0,0.0,0.0,0.0,0.0,0.0,0.0,0.0,0.0,0.0,0.0,0.0,0.0,0.0,0.0,0.0,0.0,0.0,0.0,0.0,0.0,0.0,0.0,0.0,0.0,0.0,0.0,0.0,0.0,0.0,0.0,0.0,0.0,0.0,0.0,0.0,0.0,0.0,0.0,0.0,0.0,0.0,0.0,0.0,0.0,0.0,0.0,0.0,0.0,0.0,0.0,0.0,0.0,0.0,0.0,0.0,0.0,0.0,0.0,0.0,0.0,0.0,0.0,0.0,0.0,0.0,0.0,0.0,0.0,0.0,0.0,0.0,0.0,0.0,0.0,0.0,0.0,0.0,0.0,0.0,0.0,0.0,0.0,0.0,0.0,0.0,0.0,0.0,0.0,0.0,0.0,0.0,0.0,0.0,0.0,0.0,0.0,0.0,0.0,0.0,0.0,0.0,0.0,0.0,0.0,0.0,0.0,0.0,0.0,0.0,0.0,0.0,0.0,0.0,0.0,0.0,0.0,0.0,0.0,0.0,0.0,0.0,0.0,0.0,0.0,0.0,0.0,0.0,0.0,0.0,0.0,0.0,0.0,0.0,0.0,0.0,0.0,0.0,0.0,0.0,0.0,0.0,0.0,0.0,0.0,-2.6445,0.0,0.0,0.0,0.0,0.0,0.0,0.0,0.0,0.0,0.0,0.0,0.0,0.0,0.0,0.0,0.0,0.0,0.0,0.0,0.0,0.0,0.0,0.0,0.0,-1.6894,-1.7201,-1.7201,-1.7278,-1.7368,-1.7368,0.0,0.0,0.0,0.0,0.0,-1.8575,-1.899,-1.9821,-2.1104,-2.1903,-2.374,-2.6532,-2.601,-2.5097,-2.3867,0.0,0.0,0.0,0.0,0.0,0.0,0.0,0.0,0.0,0.0,0.0,0.0,0.0,0.0,0.0,0.0,0.0,0.0,0.0,0.0,0.0,0.0,0.0,0.0,0.0,0.0,0.0,0.0,0.0,0.0,0.0,0.0,0.0,0.0,0.0,0.0,0.0,0.0,0.0,0.0,0.0,0.0,0.0,0.0,0.0,0.0,0.0,0.0,0.0,0.0,0.0,0.0,0.0,0.0,0.0,0.0,0.0,0.0,0.0,0.0,0.0,0.0,0.0,0.0,0.0,0.0,0.0,0.0,0.0,0.0,0.0,-2.8555,0.0,0.0,0.0,0.0,0.0,0.0,0.0,0.0,0.0,0.0,0.0,0.0,0.0,0.0,0.0,0.0,0.0,0.0,0.0,0.0,0.0,-1.6638,-1.7473,-1.7732,-1.7935,-1.8102,-1.8235,-1.8294,-1.8294,-1.8319,0.0,0.0,-1.9022,-1.9704,-2.0429,-2.1225,-2.2135,-2.3164,-2.5553,-2.8252,-3.1173,-3.2827,-3.1779,-2.8444,-2.6485,0.0,0.0,0.0,0.0,0.0,0.0,0.0,0.0,0.0,0.0,0.0,0.0,0.0,0.0,0.0,0.0,0.0,0.0,0.0,0.0,0.0,0.0,0.0,0.0,0.0,0.0,0.0,0.0,0.0,0.0,0.0,0.0,0.0,0.0,0.0,0.0,0.0,0.0,0.0,0.0,0.0,0.0,0.0,0.0,0.0,0.0,0.0,0.0,0.0,0.0,0.0,0.0,0.0,0.0,0.0,0.0,0.0,0.0,0.0,0.0,0.0,0.0,0.0,-3.7656,-3.8555,-3.9922,-3.9219,-3.9258,-3.9726,-3.6055,-3.3906,-3.293,0.0,0.0,0.0,0.0,0.0,0.0,0.0,0.0,0.0,0.0,0.0,0.0,0.0,0.0,0.0,0.0,0.0,0.0,0.0,0.0,-1.8335,-1.9245,-2.0051,-2.0828,-2.1651,-2.1789,-2.1826,-2.1826,-2.1832,-2.1832,-2.1832,-2.1945,-2.2059,-2.2173,-2.2969,-2.4144,-2.5705,-3.1004,-3.4567,-3.6414,-3.8034,-3.8897,-3.8761,-3.2711,-3.0424,-3.0812,0.0,0.0,0.0,0.0,0.0,0.0,0.0,0.0,0.0,0.0,0.0,0.0,0.0,0.0,0.0,0.0,0.0,0.0,0.0,0.0,0.0,0.0,0.0,0.0,0.0,0.0,0.0,0.0,0.0,0.0,0.0,0.0,0.0,0.0,0.0,0.0,0.0,0.0,0.0,0.0,0.0,-2.6861,-2.7842,0.0,0.0,0.0,0.0,0.0,0.0,0.0,0.0,0.0,0.0,0.0,0.0,0.0,-3.582,-3.7578,-3.9883,-4.1601,-4.2695,-4.4219,-4.5078,-4.5273,-4.5156,-4.5195,-4.5195,-4.3906,0.0,-3.6367,-3.3164,0.0,0.0,0.0,0.0,0.0,0.0,0.0,0.0,0.0,0.0,0.0,0.0,0.0,0.0,0.0,0.0,0.0,0.0,0.0,0.0,0.0,-2.2447,-2.4007,-2.4376,-2.6662,-2.7062,-2.4719,-2.547,-2.494,-2.259,-2.2931,-2.3158,-2.3158,-2.4908,-2.779,-3.1808,-3.6272,-3.9532,-4.1654,-4.3287,-4.402,-4.3792,-4.0817,-3.7758,-3.4674,-3.1761,0.0,0.0,0.0,0.0,0.0,0.0,0.0,0.0,0.0,0.0,0.0,0.0,0.0,0.0,0.0,0.0,0.0,0.0,0.0,0.0,0.0,0.0,0.0,0.0,0.0,0.0,0.0,0.0,0.0,0.0,0.0,0.0,0.0,0.0,0.0,0.0,0.0,0.0,0.0,-2.7604,-2.9677,-2.9092,-3.0187,-3.0149,0.0,0.0,0.0,0.0,0.0,0.0,0.0,0.0,0.0,-3.7656,-3.8516,-4.0195,-4.2891,-4.4531,-4.6211,-4.8047,-4.8789,-4.9687,-5.0625,-5.0117,-5.0156,-5.0508,-4.8203,-4.6172,-4.4141,-3.875,-3.5664,-3.4141,0.0,0.0,0.0,0.0,-3.0195,-3.0586,0.0,0.0,0.0,0.0,0.0,0.0,0.0,0.0,0.0,0.0,0.0,0.0,-2.26,-2.5716,-2.7913,-2.8546,-3.1322,-3.1535,-2.8017,-2.8343,-2.713,-2.3619,-2.4226,-2.4567,-2.4333,-2.7676,-3.2036,-3.7485,-4.1048,-4.3966,-4.6203,-4.7908,-4.8363,-4.7795,-4.7567,-4.4335,-3.8858,-3.5822,-3.3752,-3.2071,0.0,0.0,0.0,0.0,0.0,0.0,0.0,0.0,0.0,0.0,0.0,0.0,0.0,0.0,0.0,0.0,0.0,0.0,0.0,0.0,0.0,0.0,0.0,0.0,0.0,0.0,0.0,0.0,0.0,0.0,0.0,0.0,0.0,0.0,0.0,0.0,0.0,-3.0067,-3.214,-3.0421,-3.2338,-3.2574,0.0,0.0,0.0,0.0,0.0,0.0,-3.5898,-3.6445,-3.8476,-4.2383,-4.3359,-4.5156,-4.7891,-4.9453,-5.1094,-5.2734,-5.2969,-5.3633,-5.4648,-5.3984,-5.3945,-5.418,-5.1641,-5.0547,-5.0,-4.3555,-3.9609,-3.75,-3.6211,-3.5156,-3.4336,-3.3711,-3.3867,-3.4336,0.0,0.0,0.0,0.0,0.0,0.0,0.0,0.0,0.0,0.0,0.0,-2.3489,-2.7733,-3.0404,-3.292,-3.5457,-3.5135,-3.3998,-3.2217,-2.9972,-2.7888,-2.6084,-2.6849,-2.6925,-2.6084,-3.161,-3.6651,-4.0972,-4.5066,-4.7984,-4.9703,-5.1357,-5.2139,-5.2025,-5.1268,-4.8472,-4.4045,-3.9969,-3.7687,-3.637,-3.1448,0.0,0.0,0.0,0.0,0.0,0.0,0.0,0.0,0.0,0.0,0.0,0.0,0.0,0.0,0.0,0.0,0.0,0.0,0.0,0.0,0.0,0.0,0.0,0.0,0.0,0.0,0.0,0.0,0.0,0.0,0.0,0.0,0.0,0.0,0.0,0.0,0.0,0.0,-3.2183,-3.5699,0.0,0.0,0.0,0.0,-3.3125,-3.4766,-3.6875,-3.9492,-4.1133,-4.3242,-4.5976,-4.918,-5.1367,-5.2383,-5.5703,-5.7031,-5.6367,-5.7187,-5.7187,-5.6484,-5.6406,-5.5976,-5.5234,-5.5039,-5.3594,-5.0937,-4.5664,-4.293,-4.1836,-3.9375,-3.7851,-3.7109,-3.707,-3.707,-3.7225,0.0,0.0,0.0,0.0,0.0,-1.441,-1.4502,-1.6001,-1.7447,-1.8286,-2.2023,-2.6046,-2.9663,-3.4308,-3.8196,-4.0753,-4.1707,-4.101,-3.8233,-3.5211,-3.2293,-2.9526,-2.8207,-2.8851,-3.1724,-3.5969,-4.0442,-4.5179,-4.8818,-5.1206,-5.2381,-5.348,-5.3745,-5.3252,-5.348,-5.2125,-4.9356,-4.4525,-4.1064,-3.849,-3.448,-3.1533,0.0,0.0,0.0,0.0,0.0,0.0,0.0,0.0,0.0,0.0,0.0,0.0,0.0,0.0,0.0,0.0,0.0,0.0,0.0,0.0,0.0,0.0,0.0,0.0,0.0,0.0,0.0,0.0,0.0,0.0,0.0,0.0,0.0,0.0,0.0,0.0,0.0,-3.5506,-3.8749,0.0,-3.7422,-3.6914,-3.7422,-3.9062,-4.0273,-4.2812,-4.707,-4.7383,-4.9375,-5.3633,-5.4414,-5.543,-5.6875,-5.7578,-5.7734,-5.7422,-5.7187,-5.6914,-5.6601,-5.6601,-5.6445,-5.6094,-5.5547,-5.4765,-5.3672,-5.0703,-4.8008,-4.5586,-4.4141,-4.3008,-4.2266,-4.2265,-4.1913,-4.1443,0.0,0.0,0.0,0.0,-1.4257,-1.4398,-1.4462,-1.5983,-1.7559,-1.8614,-2.3491,-2.8344,-3.223,-3.8228,-4.2884,-4.5117,-4.5874,-4.4649,-4.0999,-3.7371,-3.3847,-3.0503,-2.9564,-3.1497,-3.65,-3.9862,-4.3929,-4.8666,-5.1471,-5.329,-5.4124,-5.4655,-5.4617,-5.4124,-5.4655,-5.4124,-5.2594,-4.8851,-4.5382,-4.1978,-3.7716,-3.4994,-3.3145,0.0,0.0,0.0,0.0,0.0,0.0,0.0,0.0,0.0,0.0,0.0,0.0,0.0,0.0,0.0,0.0,0.0,0.0,0.0,0.0,0.0,0.0,0.0,0.0,0.0,0.0,0.0,0.0,0.0,0.0,0.0,0.0,0.0,0.0,0.0,-3.9687,-3.9101,-4.2578,-4.4023,-4.1445,-4.1445,-4.2344,-4.4023,-4.5508,-4.8047,-5.207,-5.2031,-5.3633,-5.7344,-5.7461,-5.789,-5.875,-5.875,-5.8476,-5.789,-5.7305,-5.6875,-5.6601,-5.6601,-5.6601,-5.6562,-5.5976,-5.5586,-5.5195,-5.375,-5.1641,-4.9219,-4.8047,-4.707,-4.6289,-4.5975,-4.5504,-4.4915,0.0,0.0,0.0,-1.4075,-1.4274,-1.4417,-1.4417,-1.5938,-1.7746,-1.9482,-2.4832,-3.0462,-3.5601,-4.2068,-4.6794,-4.8628,-4.7201,-4.4421,-4.0279,-3.6083,-3.2293,-2.8987,-3.1261,-3.4936,-3.9938,-4.336,-4.7112,-5.1268,-5.2949,-5.4124,-5.492,-5.492,-5.492,-5.492,-5.492,-5.4465,-5.3669,-5.2798,-5.0561,-4.7074,-4.1287,-3.8818,-3.8099,0.0,0.0,0.0,0.0,0.0,0.0,0.0,0.0,0.0,0.0,0.0,0.0,0.0,0.0,0.0,0.0,0.0,0.0,0.0,0.0,0.0,0.0,0.0,0.0,0.0,0.0,0.0,0.0,0.0,0.0,0.0,0.0,0.0,-3.4835,-4.074,-4.4414,-4.2851,-4.7148,-4.8594,-4.4414,-4.6289,-4.7773,-4.7851,-5.0117,-5.2266,-5.4062,-5.4922,-5.5781,-5.6719,-5.8359,-5.8828,-5.8008,-5.9531,-5.9492,-5.789,-5.7851,-5.7422,-5.6601,-5.6601,-5.6601,-5.6601,-5.6562,-5.6094,-5.5234,-5.4336,-5.3476,-5.2539,-5.0898,-4.9726,-4.8826,-4.7967,-4.7611,-4.7325,0.0,0.0,-1.4012,-1.4075,-1.4274,-1.4417,-1.4417,-1.5991,-1.7751,-1.9389,-2.5879,-3.2241,-3.7219,-4.3302,-4.7958,-5.0296,-4.787,-4.5179,-4.2829,-3.7599,-3.3884,-3.2406,-3.5325,-3.9039,-4.3436,-4.6809,-4.9993,-5.3025,-5.4048,-5.4693,-5.492,-5.492,-5.492,-5.492,-5.492,-5.4769,-5.4503,-5.3707,-5.2798,-5.1509,-4.6241,-4.2287,-3.9337,0.0,0.0,0.0,0.0,0.0,0.0,0.0,0.0,0.0,0.0,0.0,0.0,0.0,0.0,0.0,0.0,0.0,0.0,0.0,0.0,0.0,0.0,0.0,0.0,0.0,0.0,0.0,0.0,0.0,0.0,0.0,0.0,-3.9995,-4.0268,-4.3006,-4.5976,-4.8594,-5.0195,-5.1094,-5.1172,-5.125,-5.1836,-5.3086,-5.3242,-5.4609,-5.7617,-5.7383,-5.8125,-6.0234,-6.0156,-5.9961,-5.9726,-5.8945,-5.8359,-5.789,-5.7265,-5.6836,-5.6601,-5.6601,-5.6601,-5.6562,-5.5937,-5.5508,-5.5195,-5.3672,-5.293,-5.2578,-5.1484,-5.0586,-4.9725,-4.8863,-4.7723,-4.6577,0.0,-1.3934,-1.4012,-1.4075,-1.4274,-1.4417,-1.4417,-1.5979,-1.7876,-1.9831,-2.6789,-3.3194,-3.745,-4.3264,-4.7226,-4.7984,-4.5634,-4.2791,-3.9721,-3.5969,-3.4415,-3.5751,-3.9012,-4.2727,-4.6885,-4.9576,-5.2016,-5.4244,-5.467,-5.4897,-5.4927,-5.4897,-5.492,-5.492,-5.492,-5.492,-5.4882,-5.4389,-5.401,-5.3442,-5.0523,-4.7226,-4.3841,-4.1559,-3.9515,-3.7664,-3.6061,-3.5465,-3.5022,-3.2217,0.0,0.0,0.0,0.0,0.0,0.0,0.0,0.0,0.0,0.0,0.0,0.0,0.0,0.0,0.0,0.0,0.0,0.0,0.0,0.0,0.0,0.0,0.0,0.0,-4.1624,-4.5737,-4.7533,-4.8671,-5.0234,-5.2734,-5.3672,-5.4101,-5.4023,-5.4219,-5.4609,-5.5234,-5.5508,-5.6523,-5.8555,-5.8828,-5.9453,-6.0625,-6.0508,-6.0078,-5.9375,-5.8398,-5.7734,-5.7344,-5.6836,-5.6601,-5.6601,-5.6601,-5.6601,0.0,-5.6055,-5.5625,-5.5195,-5.3828,-5.3047,0.0,0.0,0.0,0.0,0.0,-4.8032,-4.6775,0.0,-1.3934,-1.4012,-1.4075,-1.4262,-1.4362,-1.4411,-1.5852,-1.785,-2.0344,-2.716,-3.3032,-3.6287,-4.194,-4.4914,-4.3549,-4.1806,-3.885,-3.4263,-3.3354,-3.4832,-3.9088,-4.2488,-4.6127,-5.012,-5.1826,-5.3447,-5.5,-5.4941,-5.4941,-5.5,-5.4927,-5.492,-5.492,-5.492,-5.492,-5.492,-5.492,-5.4503,-5.3859,-5.3859,-5.2267,-4.9514,-4.5786,-4.427,-4.3815,-4.134,-3.9229,-3.742,-3.6045,0.0,0.0,0.0,0.0,0.0,0.0,0.0,0.0,0.0,0.0,0.0,0.0,0.0,0.0,0.0,0.0,0.0,0.0,0.0,0.0,0.0,0.0,0.0,0.0,-4.6571,-5.0931,-5.5149,-5.5819,-5.5781,-5.5625,-5.6875,-5.6875,-5.4648,-5.5742,-5.6328,-5.5625,-5.6914,-5.789,-5.8164,0.0,0.0,0.0,0.0,-5.9531,-5.8047,-5.7851,-5.7383,-5.6601,-5.6601,-5.6601,-5.6601,-5.6601,-5.6562,-5.6445,-5.6367,-5.582,-5.4922,-5.4062,-5.3242,-5.2461,-5.1719,-5.1289,-5.0935,-4.9442,-4.8305,-4.7329,0.0,-1.3934,-1.4012,-1.4075,-1.4196,-1.4276,-1.4362,-1.5331,-1.6941,-1.949,-2.5322,-3.0207,-3.2889,-3.7921,-4.1264,-4.1643,-3.9494,-3.7447,-3.5817,-3.6159,-3.8319,-4.2564,-4.5937,-4.9045,-5.185,-5.3613,-5.4643,-5.5,-5.5057,-5.5042,-5.5,-5.4985,-5.4941,-5.492,-5.492,-5.492,-5.492,-5.492,-5.4806,-5.4655,-5.4655,-5.276,-4.9817,-4.9021,-4.787,-4.643,-4.4611,-4.4952,-4.5646,-4.1427,-4.0133,-3.9682,-3.5999,0.0,0.0,0.0,0.0,0.0,0.0,0.0,0.0,0.0,0.0,0.0,0.0,0.0,0.0,0.0,0.0,0.0,0.0,0.0,0.0,-4.5663,-5.0111,-5.4284,-5.7843,-5.8981,-5.8905,-5.7578,-5.707,-5.6914,-5.7148,-5.6797,-5.6836,-5.7344,-5.707,-5.7734,-5.9805,-5.9609,0.0,-6.1172,-6.0078,-5.9297,-5.8945,-5.7539,-5.6758,-5.6601,0.0,0.0,-5.6601,-5.6601,-5.6211,-5.5508,-5.4805,-5.4023,-5.3125,-5.2266,-5.1797,-5.1641,-5.1484,-5.0585,-4.9334,-4.9016,-4.7881,-4.6514,0.0,-1.3933,-1.3998,-1.4068,-1.4141,-1.4251,-1.4399,-1.5209,-1.6559,-1.8667,-2.3439,-2.742,-2.9456,-3.3186,-3.5391,-3.4974,-3.3392,-3.3325,-3.5401,-3.7485,-4.0896,-4.5975,-4.9007,-5.1509,-5.3631,-5.4509,-5.4985,-5.5057,-5.5014,-5.5028,-5.5057,-5.4985,-5.4912,-5.492,-5.492,-5.492,-5.492,-5.492,-5.492,-5.492,-5.492,-5.3669,-5.1812,-5.1812,-5.0751,-4.9197,-4.8363,-4.806,-4.7618,-4.4687,-4.3471,-4.2655,-3.9703,-3.6539,-3.35,0.0,0.0,0.0,0.0,0.0,0.0,0.0,0.0,0.0,0.0,0.0,0.0,0.0,0.0,-3.486,-3.7091,0.0,-4.6,-5.0006,-5.3977,-5.7132,-5.8857,-6.023,-6.0584,-5.9297,-5.8789,-5.8515,-5.8555,-5.8164,-5.8086,-5.8515,-5.8515,-5.8867,-5.9765,-5.9805,-5.9805,-5.9805,-5.8984,-5.8359,-5.789,-5.7031,-5.6601,-5.6601,-5.6601,-5.6601,-5.6601,-5.6601,-5.6367,-5.5937,-5.5508,-5.457,-5.3242,-5.1953,-5.1406,-5.1406,-5.1406,-5.0898,-5.0117,-4.9684,-4.8979,-4.8156,0.0,-1.3896,-1.3947,-1.4097,-1.4121,-1.4225,-1.4393,-1.5044,-1.6128,-1.7844,-2.1437,-2.4399,-2.5844,-2.8234,-2.9215,-2.785,-2.801,-3.0178,-3.4832,-3.8612,-4.3208,-4.8932,-5.1395,-5.3366,-5.4882,-5.4897,-5.4971,-5.5099,-5.4985,-5.4985,-5.5099,-5.4971,-5.4897,-5.492,-5.492,-5.492,-5.492,-5.492,-5.492,-5.4882,-5.4731,-5.4276,-5.3669,-5.3518,-5.2608,-5.1381,-5.0903,-4.9197,-4.7036,-4.6253,-4.5012,-4.3589,-4.2433,-4.0375,-3.782,-3.453,-3.3066,0.0,0.0,0.0,0.0,0.0,0.0,0.0,0.0,0.0,-3.3166,-3.4364,-3.6682,-3.9237,-4.1737,-4.6191,-5.0655,-5.4075,-5.7297,-5.9395,-5.9598,-6.0815,-6.1365,-6.0508,-6.039,-6.0156,-5.9492,-5.9297,-5.9258,-5.9414,-5.9883,-5.9961,-5.9453,-5.9883,-5.9531,-5.8203,-5.8008,-5.7578,-5.6875,-5.668,-5.6601,-5.6601,-5.6601,-5.6601,-5.6601,-5.6601,-5.6523,-5.6328,-5.5976,-5.4961,-5.3398,-5.1992,-5.1406,-5.1406,-5.1406,-5.1406,-5.1289,-5.0507,-5.0076,-4.976,0.0,-1.3896,-1.3947,-1.4097,-1.4096,-1.4177,-1.4387,-1.4496,-1.5197,-1.6985,-1.9064,-2.069,-2.1604,-2.339,-2.4447,-2.4295,-2.8275,-3.2293,-3.5827,-4.0593,-4.5558,-5.0713,-5.2608,-5.3973,-5.4882,-5.4956,-5.5,-5.5014,-5.5071,-5.5071,-5.5014,-5.5,-5.4956,-5.492,-5.492,-5.492,-5.492,-5.492,-5.492,-5.4844,-5.4124,-5.3783,-5.3631,-5.2836,-5.2442,-5.2002,-4.9765,-4.7845,-4.6215,-4.5418,-4.4577,-4.3999,-4.4576,-4.3077,-4.0578,-3.7903,0.0,-3.1178,-2.9185,-2.8874,-2.9494,-3.0938,-3.1316,-3.2346,0.0,0.0,-3.7962,-4.0308,-4.2925,-4.5324,-4.7119,-5.0597,-5.4106,-5.6835,-5.8958,-6.052,-6.1316,-6.1592,-6.1362,-6.0508,-6.039,-6.0351,-6.0273,-5.9609,-5.9492,-6.0195,-5.9687,-5.9609,-6.0234,-5.9687,-5.9258,-5.9062,-5.8281,-5.7851,-5.7773,-5.6992,-5.6601,-5.6601,-5.6601,-5.6601,-5.6601,-5.6601,-5.6172,-5.5351,-5.3828,-5.2578,-5.168,-5.1484,-5.1406,-5.1406,-5.1406,-5.1406,-5.1289,-5.0508,-4.9726,-4.9023,0.0,0.0,-1.3947,-1.4097,-1.4089,-1.4163,-1.4381,-1.4417,-1.4702,-1.5575,-1.6816,-1.7712,-1.8104,-1.9303,-2.0462,-2.1453,-2.5243,-2.9829,-3.5097,-4.0138,-4.5394,-5.0964,-5.2798,-5.4086,-5.4882,-5.4912,-5.4956,-5.5,-5.4985,-5.4985,-5.5,-5.4956,-5.4912,-5.492,-5.492,-5.492,-5.492,-5.492,-5.492,-5.4844,-5.401,-5.3404,-5.276,-5.094,-4.9349,-4.7908,-4.6847,-4.5116,0.0,-4.2356,-4.2243,-4.2671,-4.4026,-4.2438,-3.9737,-3.8171,-3.5458,0.0,-3.2057,-3.1155,-3.1183,0.0,-3.5606,-3.6826,-4.0185,-4.17,-4.2854,-4.4432,-4.6848,-4.9186,-5.0952,-5.3404,-5.5911,0.0,-5.9537,-6.0362,-6.0223,-6.0614,-6.0267,-5.8398,-5.8633,-5.914,-5.9648,-5.9805,-6.0039,-6.0351,-6.0078,-6.0039,-6.039,-5.914,-5.8437,-5.8437,-5.7617,-5.7148,-5.7148,-5.6797,-5.6601,-5.6601,-5.6601,-5.6601,-5.6601,-5.6601,-5.6406,-5.5976,-5.4219,-5.3242,-5.2812,-5.1836,-5.1406,-5.1406,-5.1406,-5.1406,-5.1367,-5.1016,-5.0976,-5.1093,0.0,0.0,0.0,-1.4097,-1.4089,-1.4157,-1.4307,-1.4393,-1.447,-1.4616,-1.5242,-1.5693,-1.5748,-1.6385,-1.7378,-1.8837,-2.1794,-2.6456,-3.3089,-3.8016,-4.3512,-4.9879,-5.1774,-5.3139,-5.42,-5.42,-5.4229,-5.4287,-5.4495,-5.4609,-5.4667,-5.4836,-5.492,-5.492,-5.492,-5.492,-5.492,-5.492,-5.4769,-5.4503,-5.3669,-5.257,-5.113,-4.859,-4.5634,-4.2829,-4.2829,-4.107,-3.8684,0.0,-3.8052,-3.8966,-4.0882,-4.0043,-3.8132,-3.7254,-3.5267,-3.3402,-3.3861,-3.3402,0.0,-3.7915,-3.975,-4.1157,-4.3607,-4.524,-4.6547,-4.7394,-4.9441,-5.1497,-5.2793,-5.4781,0.0,-5.7979,-5.9404,-6.0034,-5.9203,-5.9637,-5.9095,-5.6523,-5.6601,-5.6992,-5.7383,-5.8789,-5.9805,-6.0039,-6.0078,-6.0078,-6.0078,-5.8906,-5.8164,-5.789,-5.7305,-5.6836,-5.6601,-5.6601,-5.6601,-5.6601,-5.6601,-5.6601,-5.6601,-5.6601,-5.6484,-5.6172,-5.4648,-5.3867,-5.3516,-5.2031,-5.1406,-5.1406,-5.1406,-5.1406,-5.1406,-5.1406,-5.1797,-5.2343,0.0,0.0,0.0,0.0,-1.4089,-1.4123,-1.42,-1.4314,-1.4416,-1.4508,-1.468,-1.4874,-1.4928,-1.4979,-1.5341,-1.6226,-1.8686,-2.2962,-2.9631,-3.4036,-3.9721,-4.7188,-4.9121,-5.0789,-5.2442,-5.248,-5.2494,-5.2494,-5.3328,-5.3745,-5.3745,-5.4541,-5.492,-5.492,-5.492,-5.492,-5.492,-5.492,-5.4465,-5.3669,-5.2798,-5.0978,-4.8528,-4.5975,-4.192,-3.7647,-3.7647,-3.5533,-3.2648,0.0,-3.1622,-3.2126,-3.4677,-3.5984,0.0,-3.5526,-3.3509,-3.1943,-3.3555,-3.5154,-3.7185,-4.0731,-4.2829,-4.4515,-4.6376,-4.7432,-4.8279,-4.9125,-5.0791,-5.2074,-5.2121,-5.4354,-5.6275,-5.6459,-5.8577,-5.9939,-5.9193,-5.9126,-5.8195,-5.5622,-5.4609,-5.3789,0.0,-5.5976,-5.832,-5.918,-5.9258,-5.9258,-5.9258,-5.918,-5.8789,-5.793,-5.7851,-5.7461,-5.6601,-5.6601,-5.6601,-5.6601,-5.6601,-5.6601,-5.6601,-5.6601,-5.6133,-5.5273,-5.4375,-5.3516,-5.2656,-5.1758,-5.1406,-5.1406,-5.1406,-5.1406,-5.1406,-5.1406,-5.1406,-5.1445,0.0,0.0,0.0,0.0,0.0,-1.4103,-1.4136,-1.42,-1.4332,-1.4497,-1.468,0.0,0.0,0.0,0.0,0.0,-1.7943,-2.0951,-2.5414,-3.0722,-3.5817,-4.0555,-4.4497,-4.7378,-4.9045,-4.9652,-5.022,-5.0751,-5.1016,-5.1471,-5.204,-5.2343,-5.2722,-5.3252,-5.3252,-5.3252,-5.3252,-5.3252,-5.2456,-5.1092,-5.0258,-4.8098,-4.5066,-4.1958,-3.8357,-3.4576,0.0,-3.0159,-2.9201,0.0,0.0,0.0,-3.205,0.0,-3.14,-3.1095,-3.163,-3.289,-3.5687,-3.7721,-4.0127,-4.4748,-4.6302,-4.7328,-4.9673,-5.0423,-5.0548,-5.0317,-5.0307,-5.0121,-4.9542,-5.0287,-5.158,-5.3452,-5.5472,-5.7141,-5.8147,-5.831,-5.7143,-5.3945,-5.3828,0.0,0.0,0.0,0.0,-5.7383,-5.8008,-5.8594,-5.918,-5.9219,-5.9062,-5.8789,-5.875,-5.8359,-5.7461,-5.7461,-5.7187,-5.6601,-5.6601,-5.6601,-5.6601,-5.6601,-5.6445,-5.6094,-5.4648,-5.3828,-5.3437,-5.1992,-5.1406,-5.1406,-5.1406,-5.1406,-5.1406,-5.1406,-5.1406,-5.1484,0.0,0.0,0.0,0.0,0.0,0.0,0.0,0.0,0.0,0.0,0.0,0.0,0.0,0.0,0.0,0.0,0.0,-1.8693,-2.2067,-2.6124,-3.017,-3.4112,-3.8243,-4.1086,-4.245,-4.3637,-4.432,-4.4535,-4.5457,-4.6316,-4.7175,-4.8401,-4.9386,-5.022,-5.0486,-5.0599,-5.0599,-5.0599,-4.9121,-4.6733,-4.6241,-4.3663,-3.9835,-3.7068,-3.4121,0.0,-2.8138,-2.673,0.0,0.0,0.0,0.0,0.0,-2.9299,-2.9063,-2.998,-3.1859,-3.4541,-3.8809,-4.1227,-4.3656,-4.8258,-4.9391,-4.9785,-5.1518,-5.1192,-5.024,-4.9096,-4.7971,-4.6778,-4.5586,-4.5433,-4.651,-4.9568,-5.1291,-5.3225,-5.6059,-5.6422,-5.5612,-5.3437,-5.3398,0.0,0.0,0.0,0.0,-5.6015,-5.7226,-5.8281,-5.914,-5.9453,-5.9648,-5.9648,-5.9336,-5.8789,-5.789,-5.7578,-5.7148,-5.6601,-5.6601,-5.6601,-5.6601,-5.6601,-5.6445,-5.6055,-5.4609,-5.3828,-5.3437,-5.1992,-5.1406,-5.1406,-5.1406,-5.1406,-5.1406,-5.1406,-5.1406,-5.1484,0.0,0.0,0.0,0.0,0.0,0.0,0.0,0.0,0.0,0.0,0.0,0.0,0.0,0.0,0.0,0.0,0.0,0.0,-1.9422,-2.059,-2.3266,-2.804,-3.0692,-3.2482,-3.3354,-3.4984,-3.5438,-3.4643,-3.7078,-3.866,-3.9597,-4.2791,-4.4762,-4.5672,-4.643,-4.6771,-4.6771,-4.6771,-4.4421,-4.0734,-4.0734,-3.7788,-3.3202,-3.1572,-2.9436,-2.7196,-2.6405,0.0,0.0,0.0,0.0,0.0,0.0,-2.7771,-2.9674,-3.2203,-3.4227,-3.6842,-4.2718,-4.5561,-4.7698,-5.1177,-5.189,-5.1823,-5.1875,-4.9846,-4.7471,-4.5748,-4.397,-4.2162,0.0,0.0,-4.147,-4.5085,-4.6551,-4.8804,-5.3291,-5.3913,-5.3945,0.0,0.0,0.0,0.0,0.0,0.0,-5.5234,0.0,-5.8281,-5.914,-6.0,-6.0469,-6.0469,-5.9687,-5.8828,-5.7969,-5.707,-5.6601,-5.6601,-5.6601,-5.6601,-5.6601,-5.6562,-5.6094,-5.5312,-5.4336,-5.3476,-5.2695,-5.1797,-5.1406,-5.1406,-5.1406,-5.1406,-5.1406,-5.1406,-5.1406,-5.1406,0.0,0.0,0.0,0.0,0.0,0.0,0.0,0.0,0.0,0.0,0.0,0.0,0.0,0.0,0.0,0.0,0.0,0.0,-1.6053,-1.8688,-2.0817,-2.2167,-2.5773,-2.8207,-2.9041,-3.0094,-3.0806,-3.1185,-3.1829,-3.289,-3.433,-3.5211,-3.6386,-3.7788,-3.8016,-3.8092,-3.8092,-3.8092,-3.6765,-3.4633,-3.4633,-3.2406,-2.8965,-2.7866,-2.6332,-2.4657,0.0,0.0,0.0,0.0,0.0,0.0,0.0,-3.0835,-3.3203,-3.5687,-3.8514,-4.1734,-4.5819,-4.8624,-5.0944,-5.3212,-5.2784,-5.1823,-5.1875,-4.8971,-4.5586,-4.3239,-3.9931,-3.6923,0.0,-3.6392,-3.9042,-4.3241,-4.6738,0.0,-5.4962,-5.567,0.0,0.0,0.0,-5.4141,-5.2812,-5.3867,0.0,0.0,-5.7265,-5.8281,-5.914,-6.0586,-6.1367,-6.1367,-6.0547,-5.9687,-5.8867,-5.7344,-5.6601,-5.6601,-5.6601,-5.6601,-5.6562,-5.5937,-5.5859,-5.6133,-5.3984,-5.3281,-5.3555,-5.2031,-5.1406,-5.1406,-5.1406,-5.1406,-5.1406,-5.1406,-5.1406,-5.1406,0.0,0.0,0.0,0.0,0.0,0.0,0.0,0.0,0.0,0.0,0.0,0.0,0.0,0.0,0.0,0.0,0.0,0.0,0.0,-1.661,-1.7722,-1.7742,-2.0721,-2.2444,-2.2526,-2.3689,-2.4364,-2.4478,-2.5198,-2.6221,-2.7509,-2.8616,-2.9829,-3.108,-3.1467,-3.1657,-3.1657,-3.1657,-3.0246,0.0,0.0,-2.6266,-2.3619,-2.3499,-2.3145,0.0,0.0,0.0,0.0,0.0,0.0,-3.0331,-3.2325,-3.4464,-3.6833,-4.0081,0.0,-4.526,-4.9094,-5.1453,-5.3173,-5.46,-5.3392,-5.147,-5.0038,-4.6432,-4.2324,-3.8661,-3.5423,0.0,0.0,0.0,0.0,0.0,0.0,0.0,-5.3713,-5.519,-5.5537,0.0,-5.5848,0.0,-5.5078,-5.5508,-5.6406,0.0,-5.8203,-5.8828,-5.9687,-6.0976,-6.1719,-6.1719,-6.0508,-5.9297,-5.8086,-5.7109,-5.6601,-5.6601,-5.6601,-5.6601,-5.6562,-5.6094,-5.5937,-5.5937,0.0,-5.3672,-5.3359,-5.2383,-5.1758,-5.1406,-5.1406,-5.1406,-5.1406,-5.1406,-5.1406,-5.1406,0.0,0.0,0.0,0.0,0.0,0.0,0.0,0.0,0.0,0.0,-1.4399,0.0,0.0,0.0,0.0,0.0,0.0,0.0,0.0,0.0,0.0,-1.49,-1.6337,-1.6819,-1.6041,-1.7473,-1.7885,-1.7165,-1.8605,-1.9747,-2.0581,-2.2785,-2.4264,-2.5098,-2.5856,-2.616,-2.616,-2.616,-2.4491,-2.1832,-2.1832,-2.0499,-1.8638,0.0,0.0,0.0,0.0,0.0,0.0,0.0,-3.1293,-3.2814,-3.6099,-3.8544,-4.0922,-4.4704,-4.6538,-4.8204,-5.2115,-5.3798,-5.4637,-5.5374,-5.3626,-5.0808,-4.7355,-4.3085,-3.8438,-3.343,0.0,-2.9731,-2.9731,0.0,-3.2615,-3.94,0.0,-4.4577,-5.1624,-5.3858,-5.528,-5.6584,-5.7324,-5.7836,-5.8047,-5.7383,-5.7617,-5.9258,-5.9375,-5.9648,-6.0351,-6.1211,-6.1601,-6.1367,-5.9961,-5.8359,-5.6601,-5.6601,-5.6601,-5.6601,-5.6601,-5.6601,-5.6601,-5.6484,-5.6094,-5.5469,0.0,0.0,-5.2851,-5.2617,-5.207,-5.1406,-5.1406,-5.1406,-5.1406,-5.1406,-5.1406,-5.1406,0.0,0.0,0.0,0.0,0.0,0.0,0.0,0.0,0.0,0.0,-1.4625,-1.4301,0.0,0.0,0.0,0.0,0.0,0.0,0.0,0.0,0.0,0.0,-1.5172,-1.5312,-1.5207,0.0,0.0,0.0,0.0,-1.6269,-1.7065,-1.752,-1.8198,-1.9022,-1.9173,-1.9211,-1.9211,-1.9211,-1.8908,-1.8378,-1.8378,-1.8107,-1.7804,0.0,0.0,0.0,0.0,0.0,0.0,0.0,-3.4197,-3.7063,-3.9775,-4.3214,-4.6577,-4.799,-4.9977,-5.2038,-5.366,-5.468,-5.5213,-5.4786,-5.2779,-4.9817,-4.5701,-4.0392,0.0,0.0,0.0,-2.6192,-2.6192,-2.85,0.0,-3.94,0.0,0.0,0.0,0.0,-5.5501,0.0,0.0,0.0,0.0,0.0,0.0,0.0,0.0,-6.0234,-6.039,-6.1211,-6.1055,-5.9687,-5.9336,-5.8359,-5.6601,-5.6601,-5.6601,-5.6601,-5.6601,-5.6601,-5.6562,-5.5859,-5.5859,-5.625,-5.4101,0.0,-5.3672,-5.2226,-5.1523,-5.1406,-5.1406,-5.1406,-5.1406,-5.1406,-5.1406,-5.1406,0.0,0.0,0.0,0.0,0.0,0.0,0.0,-1.4988,-1.5166,-1.6352,-1.5819,-1.5246,-1.4965,-1.4684,-1.4482,0.0,0.0,0.0,0.0,0.0,0.0,0.0,0.0,0.0,0.0,0.0,0.0,0.0,0.0,0.0,0.0,0.0,0.0,0.0,0.0,0.0,0.0,-1.6184,-1.6184,0.0,0.0,0.0,0.0,0.0,0.0,0.0,0.0,0.0,0.0,0.0,-3.263,-3.6604,-4.1304,-4.5076,-4.8056,-4.9366,-5.1185,-5.308,-5.4055,-5.4894,-5.5362,-5.4682,-5.1895,-4.8009,-4.2854,0.0,0.0,0.0,0.0,-2.4543,-2.6313,0.0,0.0,0.0,0.0,0.0,0.0,0.0,0.0,0.0,0.0,0.0,0.0,0.0,0.0,0.0,0.0,-6.0586,-6.1055,-6.1055,-6.0469,-5.9258,-5.875,-5.789,-5.6601,-5.6601,-5.6601,-5.6601,-5.6601,-5.6601,-5.6601,-5.6172,-5.6211,-5.6523,-5.5273,0.0,-5.3945,-5.3086,-5.2226,-5.1406,-5.1406,-5.1406,-5.1406,-5.1406,-5.1406,-5.1406,0.0,0.0,0.0,0.0,0.0,0.0,-1.5951,-1.5809,-1.603,-1.7423,-1.7066,-1.6383,-1.5677,-1.5066,-1.4646,0.0,0.0,0.0,0.0,0.0,0.0,0.0,0.0,0.0,0.0,0.0,0.0,0.0,0.0,0.0,0.0,0.0,0.0,0.0,0.0,0.0,0.0,0.0,0.0,0.0,0.0,0.0,0.0,0.0,0.0,0.0,0.0,0.0,0.0,0.0,-2.9574,-3.3891,-3.9537,-4.3815,-4.7062,-4.8754,-5.0711,-5.2656,-5.394,-5.4917,-5.5319,-5.4231,-5.0856,-4.624,-4.0123,-3.4968,0.0,0.0,-2.3278,-2.374,-2.6774,0.0,0.0,0.0,0.0,0.0,0.0,0.0,0.0,0.0,0.0,0.0,0.0,0.0,0.0,0.0,0.0,0.0,-6.1367,-6.0781,-5.9961,-5.8945,-5.8242,-5.7461,-5.6601,-5.6601,-5.6601,-5.6601,-5.6601,-5.6601,-5.6601,-5.6601,-5.6601,-5.6601,-5.6406,0.0,0.0,-5.3789,-5.2812,-5.1406,-5.1601,-5.1562,-5.1406,-5.1601,-5.1562,-5.1406,0.0,0.0,0.0,0.0,0.0,0.0,-1.5273,-1.5916,-1.6594,-1.7503,-1.7538,-1.7181,-1.6395,-1.5721,-1.508,0.0,0.0,0.0,0.0,0.0,0.0,0.0,0.0,0.0,0.0,0.0,0.0,0.0,0.0,0.0,0.0,0.0,0.0,0.0,0.0,0.0,0.0,0.0,0.0,0.0,0.0,0.0,0.0,0.0,0.0,0.0,0.0,0.0,0.0,0.0,0.0,-2.9758,-3.1981,-3.7521,-4.3596,-4.5277,0.0,0.0,-5.3644,-5.4917,-5.505,-5.2721,-4.9538,-4.5231,-3.8462,0.0,0.0,-2.3971,-2.2855,-2.3351,-2.5192,-2.6231,-2.9006,0.0,0.0,0.0,0.0,0.0,0.0,0.0,0.0,0.0,0.0,0.0,0.0,0.0,0.0,0.0,-6.0508,-6.043,-5.9687,-5.8086,-5.793,-5.7461,-5.6601,-5.6601,-5.6601,-5.6601,-5.6601,-5.6601,-5.6601,-5.6601,-5.6601,-5.6562,-5.5742,0.0,0.0,-5.3164,-5.2266,-5.1484,-5.2266,-5.2109,-5.1484,-5.2305,-5.207,-5.1406,0.0,0.0,0.0,0.0,0.0,0.0,-1.5773,-1.5844,-1.6344,-1.8092,-1.7887,-1.7459,-1.7173,-1.6463,-1.5555,-1.4508,0.0,0.0,0.0,0.0,0.0,0.0,0.0,0.0,0.0,0.0,0.0,0.0,0.0,0.0,0.0,0.0,0.0,0.0,0.0,0.0,0.0,0.0,0.0,0.0,0.0,0.0,0.0,0.0,0.0,0.0,0.0,0.0,0.0,0.0,0.0,0.0,-2.6402,-2.9688,0.0,0.0,-4.4316,-4.8112,-5.1163,-5.3454,-5.444,-5.2423,-4.8586,-4.3816,-3.8,0.0,0.0,-2.3624,-2.2816,-2.3312,-2.5,-2.6,-2.8313,-3.3545,0.0,0.0,0.0,0.0,0.0,0.0,0.0,0.0,0.0,0.0,0.0,0.0,0.0,0.0,-5.8945,-5.8906,-5.8594,-5.793,-5.7383,-5.6953,-5.6601,-5.6601,-5.6601,-5.6601,-5.6601,-5.6601,-5.6601,-5.6601,-5.6601,-5.6562,-5.6211,0.0,0.0,-5.418,-5.3437,-5.2266,-5.3125,-5.3281,-5.293,-5.2773,-5.2812,-5.2891,0.0,0.0,0.0,0.0,0.0,-1.4553,-1.588,-1.5809,-1.6237,-1.787,-1.7807,-1.7494,-1.728,-1.653,-1.5727,-1.4849,-1.4859,0.0,0.0,0.0,0.0,0.0,0.0,0.0,0.0,0.0,-1.5624,-1.6193,-1.6454,0.0,0.0,0.0,0.0,0.0,0.0,0.0,0.0,0.0,0.0,0.0,0.0,0.0,0.0,0.0,0.0,0.0,0.0,0.0,0.0,0.0,0.0,0.0,0.0,0.0,0.0,0.0,-3.9827,-4.4086,-4.7951,-5.1132,-5.2972,-5.1192,-4.7124,-4.2162,0.0,0.0,-2.6933,-2.3509,-2.3009,-2.3624,-2.5038,-2.5808,-2.7621,-3.1852,0.0,-3.4237,0.0,0.0,0.0,0.0,0.0,0.0,0.0,0.0,0.0,0.0,0.0,0.0,0.0,-5.7656,-5.7539,-5.7539,-5.6914,-5.6601,-5.6601,-5.6601,-5.6601,-5.6601,-5.6601,-5.6601,-5.6601,-5.6601,-5.6601,-5.6601,0.0,0.0,0.0,-5.5039,-5.4414,-5.3164,-5.4023,-5.4219,-5.3945,-5.3594,-5.3672,-5.3867,0.0,0.0,0.0,0.0,0.0,0.0,-1.5209,-1.5916,-1.6415,-1.6415,-1.7102,-1.728,-1.6487,-1.5737,-1.539,-1.5574,-1.5661,0.0,0.0,0.0,0.0,0.0,0.0,0.0,0.0,0.0,-1.6193,-1.6193,-1.7051,-1.7501,-1.7501,-1.7501,0.0,0.0,0.0,0.0,0.0,0.0,0.0,0.0,0.0,0.0,-1.6489,0.0,0.0,0.0,0.0,0.0,0.0,0.0,0.0,0.0,0.0,-2.0747,-2.2778,0.0,-3.458,-3.9106,-4.4163,-4.8107,-5.0327,-4.8586,-4.497,-4.0269,0.0,0.0,-2.6933,-2.3509,-2.3471,-2.4356,-2.5154,-2.5308,-2.6731,-3.1006,-3.1,0.0,0.0,0.0,0.0,0.0,0.0,0.0,0.0,0.0,0.0,0.0,0.0,0.0,0.0,-5.707,-5.6601,-5.6601,-5.6601,-5.6601,-5.6601,-5.6601,-5.6601,-5.6601,-5.6601,-5.6601,-5.6601,-5.6601,-5.6601,0.0,0.0,0.0,0.0,-5.5312,-5.4765,-5.4062,-5.4961,-5.4765,-5.4101,-5.4961,-5.4726,-5.3867,0.0,0.0,0.0,0.0,0.0,0.0,-1.4446,-1.466,-1.5024,-1.5594,-1.5888,-1.6138,-1.638,-1.5806,-1.5472,-1.5587,-1.5147,0.0,0.0,0.0,0.0,0.0,0.0,0.0,0.0,-1.6079,-1.7061,-1.8799,-1.906,-1.9779,-2.0884,-1.9742,-1.8756,-1.7847,0.0,0.0,0.0,0.0,0.0,0.0,0.0,-1.5637,-1.5513,0.0,0.0,0.0,0.0,0.0,0.0,0.0,0.0,0.0,0.0,0.0,0.0,-2.4415,-2.8459,-3.2735,-3.6635,-3.9376,-4.1008,-4.0469,-3.7577,-3.4083,-3.1006,0.0,-2.5308,-2.2504,-2.3505,-2.4812,-2.4548,-2.589,-2.8082,-3.1198,-3.2429,0.0,0.0,0.0,0.0,0.0,0.0,0.0,0.0,0.0,0.0,0.0,0.0,0.0,0.0,-5.6758,-5.6601,-5.6601,-5.6601,-5.6601,-5.6601,-5.6601,-5.6601,-5.6601,-5.6601,-5.6601,-5.6601,-5.6601,0.0,0.0,0.0,0.0,0.0,-5.5039,-5.4805,-5.4101,-5.4961,-5.5508,-5.5742,-5.543,-5.5508,-5.5586,0.0,0.0,0.0,0.0,0.0,0.0,-1.4089,-1.4089,-1.4267,-1.4774,-1.4845,-1.5138,-1.5895,-1.5383,-1.5202,-1.5643,-1.4973,0.0,0.0,0.0,0.0,0.0,0.0,0.0,-1.6193,-1.6833,-1.8231,-2.0462,-2.077,-2.1794,-2.343,-2.2021,-2.0765,-1.959,-1.8231,-1.6985,0.0,0.0,0.0,0.0,-1.5371,-1.5315,-1.5122,0.0,0.0,0.0,0.0,0.0,0.0,0.0,0.0,0.0,0.0,0.0,0.0,0.0,-2.359,-2.6705,0.0,-3.3691,-3.5276,-3.5276,-3.3231,0.0,0.0,0.0,-2.4654,-2.2466,-2.3769,-2.5154,-2.4659,-2.612,-2.8236,-3.0814,-3.1814,0.0,0.0,0.0,0.0,0.0,0.0,0.0,0.0,0.0,0.0,0.0,0.0,0.0,0.0,-5.6601,-5.6601,-5.6601,-5.6601,-5.6601,-5.6601,-5.6601,-5.6601,-5.6601,-5.6601,-5.6601,-5.6601,-5.6601,0.0,0.0,0.0,0.0,0.0,-5.4726,-5.4687,-5.4531,-5.5078,-5.582,-5.6523,-5.5976,-5.5937,-5.5898,0.0,0.0,0.0,0.0,0.0,0.0,0.0,-1.4089,-1.4125,-1.4125,-1.4096,-1.4395,-1.5139,-1.4623,-1.4626,-1.5617,-1.5034,0.0,0.0,0.0,0.0,0.0,0.0,0.0,-1.6307,-1.7885,-1.9552,-2.1295,-2.2173,-2.343,-2.506,-2.4264,-2.2931,-2.1263,-2.0462,-1.9097,-1.7354,-1.6534,-1.5751,-1.5083,-1.5881,-1.5757,0.0,0.0,0.0,0.0,0.0,0.0,0.0,0.0,0.0,0.0,0.0,0.0,0.0,0.0,0.0,0.0,0.0,-3.0207,-3.2006,-3.2083,-3.0885,-2.9077,0.0,0.0,0.0,-2.3043,-2.4159,-2.5385,-2.5308,-2.6115,-2.7621,-3.0154,-3.0006,0.0,0.0,0.0,0.0,0.0,0.0,0.0,0.0,0.0,0.0,0.0,0.0,0.0,0.0,-5.6601,-5.6601,-5.6601,-5.6601,-5.6601,-5.6601,-5.6601,-5.6601,-5.6601,-5.6601,-5.6601,-5.6601,-5.6601,0.0,0.0,0.0,0.0,0.0,-5.4336,-5.4492,-5.5195,-5.5195,-5.5781,-5.6601,-5.6601,-5.6094,-5.5273,0.0,0.0,0.0,0.0,0.0,0.0,0.0,0.0,0.0,0.0,-1.4199,-1.4255,-1.4441,-1.4415,-1.4483,0.0,0.0,0.0,0.0,0.0,0.0,0.0,0.0,0.0,-1.7165,-1.8183,-1.9855,-2.2173,-2.3007,-2.4264,-2.5894,-2.5705,-2.4378,-2.2173,-2.1301,-1.9303,-1.6552,-1.6354,-1.5787,-1.5023,-1.5213,-1.5232,0.0,0.0,0.0,0.0,-1.5096,-1.578,0.0,0.0,0.0,0.0,0.0,0.0,0.0,0.0,-2.0186,-2.0523,-2.1927,0.0,-2.3423,-2.4043,-2.3423,-2.2846,0.0,0.0,0.0,0.0,0.0,0.0,0.0,-2.7044,-2.9352,-3.1891,0.0,0.0,0.0,0.0,0.0,0.0,0.0,0.0,0.0,0.0,0.0,0.0,0.0,0.0,0.0,-5.6499,-5.6553,-5.6601,-5.6601,-5.6601,-5.6601,-5.6601,-5.6601,-5.6601,-5.6601,-5.6601,-5.6601,-5.6601,0.0,0.0,0.0,0.0,-5.4297,-5.4062,-5.4101,-5.4297,-5.4297,-5.5234,-5.6601,-5.6601,-5.6484,-5.6172,0.0,0.0,0.0,0.0,0.0,0.0,0.0,0.0,0.0,0.0,-1.4196,-1.4216,-1.4236,-1.4312,-1.4423,0.0,0.0,0.0,0.0,0.0,0.0,0.0,0.0,-1.7208,-1.8032,-1.9249,-2.1111,-2.3657,-2.4453,-2.5887,-2.7896,-2.7145,-2.5667,-2.3544,-2.154,-1.948,-1.7457,-1.7436,-1.6721,-1.5617,-1.6036,0.0,0.0,0.0,0.0,0.0,-1.6128,-1.6548,0.0,-1.7924,-1.9032,-2.0064,0.0,0.0,0.0,0.0,-2.0199,-2.031,-2.0702,-2.0834,-2.1038,-2.1889,-2.1773,-2.1889,-2.3543,0.0,0.0,0.0,0.0,0.0,0.0,0.0,0.0,0.0,0.0,0.0,0.0,0.0,0.0,0.0,0.0,0.0,0.0,0.0,0.0,0.0,0.0,0.0,0.0,-5.6383,-5.6493,-5.6555,-5.6562,-5.6601,-5.6601,-5.6601,-5.6601,-5.6601,-5.6601,-5.6601,-5.6601,-5.6172,-5.6015,0.0,0.0,0.0,-5.3359,-5.2969,-5.3047,-5.3398,-5.3398,-5.4219,-5.539,-5.539,-5.539,-5.5351,0.0,0.0,0.0,0.0,0.0,0.0,0.0,0.0,0.0,0.0,0.0,0.0,0.0,0.0,0.0,0.0,0.0,0.0,0.0,0.0,0.0,0.0,-1.7127,-1.7956,-1.8865,-2.0424,-2.2362,-2.4795,-2.5856,-2.7486,-2.9526,-2.8556,-2.697,-2.4891,-2.1764,-1.982,-1.8816,-1.8821,-1.7915,-1.6559,-1.7284,0.0,0.0,0.0,0.0,0.0,0.0,0.0,0.0,-1.8612,-1.9911,-2.1058,-2.0322,0.0,0.0,0.0,0.0,0.0,-2.159,-2.1987,-2.2197,-2.2663,-2.3009,-2.3543,-2.4962,0.0,0.0,0.0,0.0,0.0,0.0,0.0,0.0,0.0,0.0,0.0,0.0,0.0,0.0,0.0,0.0,0.0,0.0,0.0,0.0,0.0,0.0,0.0,0.0,-5.6281,-5.6371,-5.6433,-5.6553,-5.6562,-5.6562,-5.6601,-5.6601,-5.6601,-5.6484,-5.6406,-5.6367,-5.5508,-5.5117,0.0,0.0,0.0,-5.2656,-5.1914,-5.2031,-5.2695,-5.2695,-5.3242,-5.3984,-5.3984,-5.3984,-5.3984,0.0,0.0,0.0,0.0,0.0,0.0,0.0,0.0,0.0,0.0,0.0,0.0,0.0,0.0,0.0,0.0,0.0,0.0,0.0,0.0,0.0,-1.7279,-1.7425,-1.8226,-1.9779,-2.0727,-2.2097,-2.3878,-2.616,-2.7501,-2.791,-2.9809,-2.8685,-2.4994,-2.3044,-2.0927,-1.8792,-1.8857,-1.8298,-1.7427,-1.7542,0.0,0.0,0.0,0.0,0.0,0.0,0.0,0.0,-1.8612,-1.9525,-2.0284,-2.0131,0.0,0.0,0.0,0.0,0.0,-2.3077,-2.4197,-2.4423,-2.312,-2.3889,-2.4962,-2.5231,0.0,0.0,0.0,0.0,0.0,0.0,0.0,0.0,0.0,0.0,0.0,0.0,0.0,0.0,0.0,0.0,0.0,0.0,0.0,0.0,0.0,0.0,0.0,0.0,-5.6064,-5.6158,-5.626,-5.6428,-5.6538,-5.6538,-5.656,-5.6601,-5.6601,-5.5859,-5.5508,-5.5469,-5.4609,-5.4219,0.0,0.0,-5.3398,-5.2695,-5.2578,-5.2578,-5.2695,-5.2695,-5.3242,-5.3984,-5.3984,-5.3984,-5.3984,0.0,0.0,0.0,0.0,0.0,0.0,0.0,0.0,0.0,0.0,0.0,0.0,0.0,0.0,0.0,0.0,0.0,0.0,0.0,0.0,-1.6739,-1.8107,-1.8605,-1.9401,-2.0613,-2.2362,-2.4087,-2.5746,-2.7827,-2.9095,-2.9551,-2.8897,-2.7124,-2.4384,-2.2648,-2.1023,-1.9502,-1.9554,-1.9066,-1.8344,0.0,0.0,0.0,0.0,0.0,0.0,0.0,0.0,0.0,0.0,-2.0098,-2.079,-2.0805,0.0,0.0,0.0,0.0,0.0,-2.3663,-2.4697,-2.5346,-2.5505,-2.612,-2.6697,-2.6697,0.0,0.0,0.0,0.0,0.0,0.0,0.0,0.0,0.0,0.0,0.0,0.0,0.0,0.0,0.0,0.0,0.0,0.0,0.0,0.0,0.0,0.0,0.0,0.0,0.0,-5.6029,-5.6135,-5.5872,-5.5972,-5.6489,-5.609,-5.5898,-5.5898,-5.5,-5.4609,-5.457,-5.3672,-5.3281,-5.3281,0.0,-5.2383,-5.1992,-5.1992,-5.1992,-5.1992,-5.1992,-5.2226,-5.2656,-5.3125,-5.3594,-5.3984,0.0,0.0,0.0,0.0,0.0,0.0,0.0,0.0,0.0,0.0,0.0,0.0,0.0,0.0,0.0,0.0,0.0,0.0,0.0,-1.5838,-1.7012,-1.8372,-1.9633,-2.0971,-2.238,-2.4315,-2.6239,-2.8106,-2.9574,-3.0654,-3.1264,-2.8301,-2.6028,-2.4419,-2.2664,-2.1339,-2.0404,-2.0208,-1.9749,-1.9219,0.0,0.0,0.0,0.0,0.0,0.0,0.0,0.0,0.0,0.0,0.0,0.0,0.0,0.0,0.0,-2.2776,-2.2799,-2.3086,-2.4356,-2.512,-2.5962,-2.7505,-2.8198,-2.8621,-2.9242,0.0,0.0,0.0,0.0,0.0,0.0,0.0,0.0,0.0,0.0,0.0,0.0,0.0,0.0,0.0,0.0,0.0,0.0,0.0,0.0,0.0,0.0,0.0,0.0,0.0,-5.552,-5.6048,-5.54,-5.5428,-5.6157,-5.5379,-5.5077,-5.5273,-5.4414,-5.3906,-5.3672,-5.2773,-5.2383,-5.2344,-5.168,-5.1406,-5.1406,-5.1406,-5.1406,-5.1406,-5.1406,-5.1406,-5.1523,-5.2383,-5.3008,-5.3437,0.0,0.0,0.0,0.0,0.0,0.0,0.0,0.0,0.0,0.0,0.0,0.0,0.0,0.0,0.0,0.0,0.0,0.0,0.0,-1.6432,-1.7459,-1.7577,-1.9925,-2.2682,-2.5849,-2.6115,-2.7421,-2.9924,-3.0792,-3.1264,-3.1341,-2.9539,-2.7803,-2.6135,-2.4448,-2.2811,-2.1254,-2.0442,-2.0055,-2.0017,-2.0093,0.0,0.0,0.0,0.0,0.0,0.0,0.0,0.0,0.0,0.0,0.0,0.0,0.0,-2.2776,-2.2819,-2.2799,-2.3317,-2.5774,-2.6467,-2.6736,-2.7659,-2.9083,0.0,-3.3205,-3.4853,0.0,0.0,0.0,0.0,0.0,0.0,0.0,0.0,0.0,0.0,0.0,0.0,0.0,0.0,0.0,0.0,0.0,0.0,0.0,0.0,0.0,0.0,0.0,0.0,0.0,-5.5847,-5.5271,-5.4975,-5.5104,-5.4357,-5.4439,-5.5273,-5.4414,-5.3594,-5.2773,-5.1875,-5.1484,-5.1484,-5.1445,-5.1406,-5.1406,-5.1406,-5.1406,-5.1406,-5.1406,-5.1406,-5.1523,-5.2383,-5.2226,-5.1836,0.0,0.0,0.0,0.0,0.0,0.0,0.0,0.0,0.0,0.0,0.0,-1.4423,-1.4423,0.0,0.0,0.0,0.0,0.0,0.0,-1.7369,-1.8526,-1.9039,-2.1032,-2.3446,-2.6288,-2.6833,-2.8096,-3.0082,-3.0936,-3.1104,-3.0622,-2.8949,-2.7549,-2.6288,-2.4072,-2.2734,-2.2052,-2.0666,-2.0404,-2.0867,-2.0322,-2.0633,0.0,0.0,0.0,0.0,0.0,0.0,0.0,0.0,-2.1173,-2.1511,-2.1751,-2.2613,-2.3669,-2.4217,-2.4341,-2.4577,-2.5538,-2.6967,-2.8352,-2.9236,-3.1121,0.0,0.0,-3.593,-3.7584,0.0,0.0,0.0,0.0,0.0,0.0,0.0,0.0,0.0,0.0,0.0,0.0,0.0,0.0,0.0,0.0,0.0,0.0,0.0,0.0,0.0,0.0,0.0,0.0,-5.4275,-5.3592,-5.3508,-5.4125,-5.3433,-5.3256,-5.3621,-5.2772,-5.2226,-5.1875,-5.1562,-5.1406,-5.1406,-5.1406,-5.1406,-5.1406,-5.1406,-5.1406,-5.1406,-5.1406,-5.1406,-5.1523,-5.2383,-5.25,-5.2383,0.0,0.0,0.0,0.0,0.0,0.0,0.0,0.0,-1.438,0.0,0.0,0.0,0.0,-1.503,0.0,0.0,0.0,0.0,-1.6688,-1.8023,-1.9054,-1.9606,-2.1249,-2.3246,-2.5558,-2.6683,-2.829,-3.0538,-3.1126,-3.0873,-2.9765,-2.8612,-2.7625,-2.6708,-2.4683,-2.3804,-2.3651,-2.1741,-2.1244,-2.1669,-2.0552,-2.0638,0.0,0.0,0.0,0.0,0.0,0.0,0.0,0.0,-2.1622,-2.1961,-2.2277,-2.3131,-2.4144,-2.4731,-2.5115,-2.5308,-2.5308,-2.6967,-2.9011,0.0,0.0,0.0,-3.6622,-3.8354,0.0,0.0,0.0,0.0,0.0,0.0,0.0,0.0,0.0,0.0,0.0,0.0,0.0,0.0,0.0,0.0,0.0,0.0,0.0,0.0,0.0,0.0,0.0,0.0,0.0,0.0,-5.2567,-5.2499,-5.3165,-5.2749,-5.24,-5.2147,-5.1635,-5.1406,-5.1406,-5.1406,-5.1406,-5.1406,-5.1406,-5.1406,-5.1406,-5.1406,-5.1406,-5.1445,-5.1719,-5.1641,-5.1523,-5.2695,-5.293,-5.2851,0.0,0.0,0.0,0.0,0.0,0.0,0.0,0.0,-1.4585,-1.4585,-1.4622,0.0,0.0,0.0,0.0,0.0,0.0,0.0,-1.7636,-1.8393,-1.8812,-1.8812,-2.0436,-2.2124,-2.3835,-2.555,-2.8045,-3.1484,-3.1484,-3.0598,-2.8911,-2.8872,-2.8459,-2.7663,-2.6784,-2.6402,-2.6211,-2.3689,-2.2581,-2.2467,-2.0781,-2.0604,-2.1388,0.0,0.0,0.0,0.0,0.0,0.0,0.0,-2.2076,-2.2665,-2.1778,-2.2722,-2.4129,-2.4129,-2.4697,-2.5308,-2.5308,-2.6621,-2.8352,0.0,0.0,0.0,0.0,0.0,0.0,0.0,0.0,0.0,0.0,0.0,0.0,0.0,0.0,0.0,0.0,0.0,0.0,0.0,0.0,0.0,0.0,0.0,0.0,0.0,0.0,0.0,0.0,0.0,0.0,0.0,-5.2491,-5.2103,-5.2186,-5.2313,-5.1992,-5.1216,-5.1315,-5.1405,-5.1406,-5.1406,-5.1406,-5.1406,-5.1406,-5.1406,-5.1406,-5.1406,-5.1406,-5.1484,-5.2344,-5.2148,-5.1601,-5.3359,-5.3437,-5.293,0.0,0.0,0.0,0.0,0.0,0.0,0.0,0.0,-1.4585,-1.4585,-1.5209,0.0,0.0,0.0,0.0,0.0,0.0,0.0,-1.9373,-2.0093,-2.0599,-2.0618,-2.1125,-2.1621,-2.2118,-2.4383,-2.6905,-2.9681,-2.9681,-2.9414,-2.8872,-2.8306,-2.823,-2.8497,-2.7052,-2.6414,-2.6285,-2.376,-2.2661,-2.2527,-2.0842,-2.0688,-2.1536,0.0,0.0,0.0,0.0,0.0,0.0,0.0,0.0,0.0,-2.2688,-2.3577,-2.4928,-2.4928,-2.5538,-2.6351,-2.6967,-2.9236,0.0,0.0,0.0,0.0,0.0,0.0,0.0,0.0,0.0,0.0,0.0,0.0,0.0,0.0,0.0,0.0,0.0,0.0,0.0,0.0,0.0,0.0,0.0,0.0,0.0,0.0,0.0,0.0,0.0,0.0,0.0,0.0,-5.1241,-5.1141,-5.1155,-5.1266,-5.1217,-5.0986,-5.1158,-5.1309,-5.1405,-5.1406,-5.1406,-5.1406,-5.1406,-5.1406,-5.1406,-5.1406,-5.1406,-5.1445,-5.168,-5.1641,-5.1523,-5.2656,-5.2539,-5.2031,0.0,0.0,0.0,0.0,0.0,0.0,-1.5831,-1.5771,-1.578,-1.578,-1.6309,-1.681,0.0,0.0,0.0,-1.8554,-1.9816,0.0,-2.0117,-2.0881,-2.1196,-2.0905,-2.0867,-2.1364,-2.2357,-2.4536,-2.6408,-2.7924,-2.8268,-2.8421,-2.8421,-2.8268,-2.8466,-2.8937,-2.8562,-2.8084,-2.7381,-2.551,-2.453,-2.4047,-2.2015,-2.152,-2.21,0.0,0.0,0.0,0.0,0.0,0.0,0.0,0.0,0.0,-2.3471,-2.4009,-2.4889,-2.5192,-2.5923,-2.6774,-2.7659,0.0,0.0,0.0,0.0,0.0,0.0,0.0,0.0,0.0,0.0,0.0,0.0,0.0,0.0,0.0,0.0,0.0,0.0,0.0,0.0,0.0,0.0,0.0,0.0,0.0,0.0,0.0,0.0,0.0,0.0,0.0,0.0,0.0,-5.0693,-5.0712,-5.0712,-5.0844,-5.0896,-5.0903,-5.105,-5.1171,-5.1307,-5.1364,-5.1406,-5.1406,-5.1406,-5.1406,-5.1406,-5.1406,-5.1406,-5.1445,-5.1797,-5.1719,-5.1523,-5.2383,-5.2383,-5.207,0.0,0.0,-1.8261,-1.848,0.0,0.0,-1.7515,-1.7542,-1.7597,-1.7597,-1.7678,-1.8021,0.0,0.0,0.0,-2.0246,-2.1018,-2.1105,-2.0399,-2.0981,-2.1058,-2.0246,-2.0208,-2.1354,-2.3837,-2.5409,-2.6211,-2.6294,-2.7166,-2.7625,-2.774,-2.8459,-2.8899,-2.9168,-3.0706,-3.0451,-2.8829,-2.803,-2.7154,-2.6052,-2.3669,-2.2762,-2.2901,-2.3707,0.0,0.0,0.0,0.0,0.0,0.0,0.0,0.0,-2.4129,-2.4168,-2.4356,-2.5077,-2.5923,-2.6813,-2.7852,0.0,0.0,0.0,0.0,0.0,0.0,0.0,0.0,0.0,0.0,0.0,0.0,0.0,0.0,0.0,0.0,0.0,0.0,0.0,0.0,0.0,0.0,0.0,0.0,0.0,0.0,0.0,0.0,0.0,0.0,0.0,0.0,-5.0712,-5.0712,-5.0712,-5.0712,-5.0731,-5.0774,0.0,-5.0765,-5.0855,-5.1062,-5.1268,-5.1403,-5.1405,-5.1406,-5.1406,-5.1406,-5.1406,-5.1406,-5.1484,-5.2266,-5.2109,-5.1484,-5.2305,-5.2578,-5.2578,0.0,0.0,-1.7778,-1.8587,0.0,0.0,-1.7589,-1.7593,-1.7597,-1.7597,-1.8149,-1.8882,-1.9721,-2.0423,0.0,-2.1998,-2.2227,-2.2232,-2.2085,-2.1631,-2.133,-2.1134,-2.1134,-2.1975,-2.3875,-2.4257,-2.4759,-2.5459,-2.6294,-2.7014,-2.7701,-2.7886,-2.8664,-2.9965,-3.0381,-2.964,-2.8021,-2.7132,-2.5926,-2.4495,-2.326,-2.2803,-2.2885,-2.3735,-2.3971,0.0,0.0,0.0,0.0,0.0,0.0,0.0,-2.4317,-2.4548,-2.5077,-2.5269,-2.5923,-2.7082,0.0,-3.1352,0.0,0.0,0.0,0.0,0.0,0.0,0.0,0.0,0.0,0.0,0.0,0.0,0.0,0.0,0.0,0.0,0.0,0.0,0.0,0.0,0.0,0.0,0.0,0.0,0.0,0.0,0.0,0.0,0.0,0.0,0.0,-5.0673,-5.0712,-5.0712,-5.0712,-5.0057,-4.9729,0.0,-4.9158,-4.9272,-5.0067,-5.0871,-5.1304,-5.1405,-5.1406,-5.1406,-5.1406,-5.1406,-5.1406,-5.1406,-5.1601,-5.1562,-5.1406,-5.1601,-5.168,-5.168,0.0,0.0,0.0,0.0,0.0,0.0,0.0,0.0,-1.8963,-1.9349,-1.9778,-2.0356,-2.1191,-2.1703,0.0,0.0,-2.2963,-2.2887,-2.209,-2.1975,-2.1631,-2.0829,-2.1555,-2.2396,-2.3269,-2.411,-2.4727,-2.5191,-2.5623,-2.6465,-2.7689,-2.7713,-2.8613,-3.0248,-3.0267,-2.9376,-2.7824,-2.7363,-2.6451,-2.524,-2.4351,-2.4005,-2.4043,-2.4505,-2.4432,-2.4206,-2.5,0.0,0.0,0.0,0.0,0.0,0.0,0.0,-2.5308,-2.5308,-2.5923,-2.7044,0.0,0.0,0.0,0.0,0.0,0.0,0.0,0.0,0.0,0.0,0.0,0.0,0.0,0.0,0.0,0.0,0.0,0.0,0.0,0.0,0.0,0.0,0.0,0.0,0.0,0.0,0.0,0.0,0.0,0.0,0.0,-4.8586,-4.9163,-5.0048,-4.9663,-4.9663,-5.0048,-4.9202,-4.8779,-4.8779,-4.8403,-4.8756,-4.973,-5.0766,-5.1302,-5.1406,-5.1406,-5.1406,-5.1406,-5.1406,-5.1406,-5.1406,-5.1406,-5.1406,-5.1406,-5.1406,-5.1406,-5.1406,0.0,0.0,0.0,0.0,0.0,0.0,0.0,0.0,0.0,-2.1478,-2.1598,-2.1937,-2.2734,-2.2811,-2.2887,0.0,0.0,0.0,-2.1713,-2.209,-2.1779,-2.0361,-2.1779,-2.2658,-2.2811,-2.4236,-2.5044,-2.5197,-2.5187,-2.6123,-2.7929,-2.7929,-2.888,-3.0541,-3.0387,-2.9483,-2.8088,-2.7818,-2.7159,-2.6308,-2.5577,-2.5308,-2.5308,-2.5308,-2.4889,-2.4394,-2.5077,-2.5308,-2.5308,-2.5308,0.0,0.0,0.0,0.0,-2.5308,-2.5308,-2.5808,-2.6736,0.0,0.0,0.0,0.0,0.0,0.0,0.0,0.0,0.0,0.0,0.0,0.0,0.0,0.0,0.0,0.0,0.0,0.0,0.0,0.0,0.0,0.0,0.0,0.0,0.0,0.0,0.0,0.0,0.0,0.0,-4.6885,-4.7548,-4.8279,-4.9163,-4.8471,-4.8394,-4.8971,-4.824,-4.774,-4.7432,-4.7516,-4.8044,-4.9059,-5.0096,-5.0863,-5.1366,-5.125,-5.1289,-5.1406,-5.1406,-5.1406,-5.1406,-5.1406,-5.1406,-5.1406,-5.1406,-5.1406,-5.1406,0.0,0.0,0.0,0.0,0.0,0.0,0.0,0.0,0.0,0.0,-2.2429,-2.2772,-2.3646,-2.3722,-2.4033,-2.4809,-2.358,-2.2696,-2.2467,0.0,0.0,-2.1254,-2.2128,-2.2963,-2.3722,-2.3941,-2.4454,-2.5187,-2.5215,-2.6469,-2.891,-2.891,-2.9799,-3.1392,-3.0719,-2.9846,-2.8857,-2.739,-2.6269,-2.5462,-2.5346,-2.5308,-2.5308,-2.5308,-2.5231,-2.5154,-2.5269,-2.5308,-2.5308,-2.5308,-2.5308,0.0,0.0,0.0,-2.5308,-2.5308,-2.5385,-2.5846,0.0,0.0,0.0,0.0,0.0,0.0,0.0,0.0,0.0,0.0,0.0,0.0,0.0,0.0,0.0,0.0,0.0,0.0,0.0,0.0,0.0,0.0,0.0,0.0,0.0,0.0,0.0,0.0,0.0,0.0,-4.6846,-4.7,-4.7432,-4.824,-4.8163,-4.7817,-4.724,-4.7115,-4.6317,-4.4816,-4.4867,-4.5387,-4.635,-4.7312,-4.9036,-5.1295,-5.0622,-5.0742,-5.1406,-5.1406,-5.1406,-5.1406,-5.1406,-5.1406,-5.1406,-5.1406,-5.1406,-5.1406,0.0,0.0,0.0,0.0,0.0,0.0,0.0,0.0,0.0,0.0,0.0,-2.3116,-2.4498,-2.4186,-2.4263,-2.5115,-2.4503,-2.3657,-2.2658,-2.2281,-2.186,-2.1407,-2.2166,-2.3007,-2.3897,-2.3913,-2.435,-2.5215,-2.5241,-2.6568,-2.9113,-2.9592,-3.0713,-3.2257,-3.0994,-3.0192,-2.9698,-2.7505,-2.639,-2.6,-2.55,-2.5577,-2.6038,-2.6038,-2.6346,-2.6774,-2.6774,-2.6774,-2.6697,-2.6192,-2.6038,-2.5923,-2.5462,0.0,0.0,0.0,0.0,0.0,0.0,0.0,0.0,0.0,0.0,0.0,0.0,0.0,0.0,0.0,0.0,0.0,0.0,0.0,0.0,0.0,0.0,0.0,0.0,0.0,0.0,0.0,0.0,0.0,0.0,0.0,0.0,0.0,0.0,-4.5355,-4.4816,-4.5663,-4.6317,-4.6701,-4.6701,-4.6778,-4.6885,-4.5932,-4.5103,-4.4358,-4.4884,-4.5611,-4.6457,-4.646,-4.7454,-4.9189,-4.9323,-4.9645,-5.0039,-5.0547,-5.0742,-5.0781,-5.1211,-5.1406,-5.1406,-5.1406,-5.1406,-5.1406,0.0,0.0,0.0,0.0,0.0,0.0,0.0,0.0,0.0,0.0,0.0,-2.3422,-2.4727,0.0,0.0,0.0,-2.5,-2.423,-2.2696,-2.2811,-2.2587,-2.1761,-2.2521,-2.3252,-2.3891,-2.394,-2.4339,-2.5241,-2.5268,-2.6589,-2.9125,-2.9988,-3.1538,-3.3506,-3.1769,-3.0923,-3.0577,-2.8236,-2.7236,-2.7159,-2.6308,-2.6346,-2.6928,-2.6928,-2.7313,-2.7895,-2.7895,-2.7895,-2.7818,-2.7159,-2.6928,-2.6774,-2.5923,-2.5615,0.0,0.0,0.0,0.0,0.0,0.0,0.0,0.0,0.0,0.0,0.0,0.0,0.0,0.0,0.0,0.0,0.0,0.0,0.0,0.0,0.0,0.0,0.0,0.0,0.0,0.0,0.0,0.0,0.0,0.0,0.0,0.0,0.0,-4.4701,-4.347,-4.4393,-4.5056,-4.5248,-4.5287,-4.547,-4.5932,-4.4201,-4.3564,-4.4058,-4.4298,-4.4823,-4.568,-4.5363,-4.5643,-4.6548,-4.7884,-4.8613,-4.8904,-4.9568,-4.9999,-5.0273,-5.0859,-5.1211,-5.1406,-5.1406,-5.1406,-5.1406,0.0,0.0,0.0,0.0,0.0,0.0,0.0,0.0,0.0,0.0,0.0,-2.3875,-2.3951,-2.3913,-2.4263,-2.5115,-2.4454,-2.3575,-2.2658,-2.3384,-2.3471,-2.2661,-2.3383,0.0,-2.3976,-2.3995,-2.4428,-2.5306,-2.5293,-2.6615,-2.9121,-3.0,-3.2192,-3.5308,-3.3545,-3.2352,-3.1506,-2.9742,-2.8973,-2.8896,-2.8088,-2.778,-2.7818,0.0,0.0,0.0,0.0,0.0,0.0,-2.7857,0.0,0.0,0.0,0.0,0.0,0.0,0.0,0.0,0.0,0.0,0.0,0.0,0.0,0.0,0.0,0.0,0.0,0.0,0.0,0.0,0.0,0.0,0.0,0.0,0.0,0.0,0.0,0.0,0.0,0.0,0.0,0.0,0.0,0.0,0.0,0.0,0.0,-4.4316,-4.4239,-4.3585,-4.3585,-4.4355,-4.4355,-4.4008,-4.3316,-4.1554,-4.1516,-4.3162,-4.1554,-4.127,-4.2194,-4.2934,-4.3388,-4.3748,-4.6349,-4.7981,-4.8805,-4.8844,-4.9405,-5.0195,-5.0234,-5.0742,-5.1406,-5.1406,-5.1406,-5.1406,0.0,0.0,0.0,0.0,0.0,0.0,0.0,0.0,0.0,0.0,0.0,0.0,0.0,-2.4252,-2.4487,-2.5899,-2.5746,-2.5204,-2.4399,-2.4585,-2.4366,-2.3577,-2.3802,-2.4239,-2.484,-2.4274,-2.4442,-2.5293,-2.5303,-2.6346,-2.8357,-2.9159,-3.0814,-3.3038,-3.2968,-3.3045,-3.3122,-3.0319,-2.9088,-2.9011,-2.8203,-2.8544,-2.95,0.0,0.0,0.0,0.0,0.0,0.0,0.0,0.0,0.0,0.0,0.0,0.0,0.0,0.0,0.0,0.0,0.0,0.0,0.0,0.0,0.0,0.0,0.0,0.0,0.0,0.0,0.0,0.0,0.0,0.0,0.0,0.0,0.0,0.0,0.0,0.0,0.0,0.0,0.0,0.0,0.0,0.0,0.0,0.0,0.0,-4.3547,-4.3278,-4.297,-4.2701,-4.3239,-4.3124,-4.2277,-4.22,-4.22,-4.2277,-4.22,-4.2324,-4.2686,-4.2988,-4.3435,-4.4102,-4.5111,-4.6124,-4.7117,-4.7736,-4.8145,-4.8584,-4.9765,-5.0391,-5.0703,-5.1211,-5.1406,-5.1406,0.0,0.0,0.0,-2.4356,0.0,-2.5203,-2.5203,-2.5203,-2.5208,-2.522,0.0,0.0,0.0,0.0,-2.5368,-2.6809,-2.6924,-2.6694,-2.6151,-2.6113,-2.5811,-2.5296,-2.5027,-2.5152,-2.5705,-2.4865,-2.4721,-2.5308,-2.5308,-2.6038,-2.7467,-2.8319,-2.9621,-3.1269,-3.1814,-3.2852,-3.4013,0.0,0.0,-3.0704,0.0,0.0,-3.1346,0.0,0.0,0.0,0.0,0.0,0.0,0.0,0.0,0.0,0.0,0.0,0.0,0.0,0.0,0.0,0.0,0.0,0.0,0.0,0.0,0.0,0.0,0.0,0.0,0.0,0.0,0.0,0.0,0.0,0.0,0.0,0.0,0.0,0.0,0.0,0.0,0.0,0.0,0.0,0.0,0.0,0.0,0.0,0.0,0.0,-4.3124,-4.2547,-4.2085,-4.1808,-4.2354,-4.2393,-4.1808,-4.2085,-4.1931,-4.1354,-4.1931,-4.2239,-4.2239,-4.2541,-4.298,-4.3582,-4.4214,-4.506,-4.6044,-4.6736,-4.7354,-4.7996,-4.9247,-5.0075,-5.0622,-5.1171,-5.1405,-5.1363,-2.4019,-2.4661,-2.5187,-2.5198,-2.5193,-2.5193,-2.5231,-2.5231,-2.528,-2.5346,0.0,0.0,0.0,0.0,0.0,-2.7806,-2.7883,-2.7883,-2.7844,-2.7806,-2.7779,-2.7819,-2.7045,-2.6633,-2.6659,-2.5808,-2.5346,-2.5346,-2.5346,-2.5769,-2.6582,-2.7467,-2.8736,-3.0346,-3.0385,-3.1775,-3.409,0.0,-3.3353,-3.4013,0.0,-3.2237,-3.3276,0.0,0.0,0.0,-3.813,-3.7777,0.0,-3.5654,0.0,0.0,0.0,0.0,0.0,0.0,0.0,0.0,0.0,0.0,0.0,0.0,0.0,0.0,0.0,0.0,0.0,0.0,0.0,0.0,0.0,0.0,0.0,0.0,0.0,0.0,0.0,0.0,0.0,0.0,0.0,0.0,0.0,0.0,0.0,0.0,0.0,-4.2162,-4.3008,-4.1439,-4.0893,-4.1731,-4.1769,-4.1769,-4.1769,-4.0931,-4.0516,-4.0516,-4.0516,-4.0516,-4.0516,-4.1393,-4.1801,-4.1994,-4.3612,-4.4885,-4.5789,-4.5931,-4.698,-4.853,-4.8738,-4.9774,-5.1221,-5.1364,-5.136,-5.1295,-2.4802,-2.5093,-2.5192,-2.5182,-2.5182,-2.5412,-2.6031,-2.6146,-2.6381,0.0,0.0,0.0,-2.8295,-2.9509,-3.0098,-2.9707,-2.9669,-2.94,-2.8791,-2.8214,-2.7874,-2.7885,-2.7654,-2.7538,-2.7544,-2.7313,-2.689,-2.6231,-2.6231,-2.6038,-2.5692,-2.6544,-2.7544,-2.8621,-2.9846,-3.1154,-3.2314,-3.1462,0.0,-3.3237,-3.2737,-3.3814,0.0,0.0,0.0,0.0,0.0,-4.0123,-3.9962,0.0,-3.7199,-3.4154,0.0,0.0,0.0,0.0,0.0,0.0,-2.5308,0.0,0.0,0.0,0.0,0.0,0.0,0.0,0.0,0.0,0.0,0.0,0.0,0.0,0.0,0.0,0.0,0.0,0.0,0.0,0.0,0.0,0.0,0.0,0.0,0.0,0.0,0.0,-4.2431,-4.1923,-4.2162,-4.1085,-4.0631,-4.0854,-4.0854,-4.0854,-4.0854,-4.0631,-4.0516,-4.0516,-4.0516,-4.0516,-4.0516,-4.0746,-4.1208,-4.187,-4.2364,-4.3405,-4.4755,-4.5557,-4.6158,-4.6795,-4.8144,-4.8925,-4.9484,-5.0787,-5.1252,-5.1236,-2.5206,-2.5273,-2.5219,-2.5247,-2.5559,-2.5943,-2.6447,-2.6831,-2.7374,0.0,0.0,0.0,-3.0553,-3.1571,-3.2006,-3.15,-3.1154,-3.0737,-3.0237,-2.939,-2.8929,-2.8929,-2.8582,-2.8396,-2.8396,-2.8088,-2.7659,-2.7121,-2.7121,-2.6697,-2.5846,-2.6736,-2.7236,-2.7428,-2.9121,-3.016,-3.0621,0.0,0.0,0.0,-3.3968,0.0,0.0,-3.9738,-4.0893,0.0,0.0,0.0,-4.3239,-4.2393,-3.9354,0.0,0.0,0.0,0.0,0.0,0.0,0.0,0.0,0.0,0.0,0.0,0.0,0.0,-2.7044,-2.8011,-2.9204,0.0,0.0,0.0,0.0,0.0,0.0,0.0,0.0,0.0,0.0,0.0,0.0,0.0,0.0,0.0,0.0,0.0,0.0,-4.2508,-4.1739,-4.1277,-4.1277,-4.0785,-4.0516,-4.0516,-4.0516,-4.0516,-4.0516,-4.0516,-4.0516,-4.0516,-4.0516,-4.0516,-4.0516,-4.0516,-4.0785,-4.1277,-4.1686,-4.2609,-4.3871,-4.4793,-4.5652,-4.6487,-4.7567,-4.8248,-4.8738,-5.0139,-5.0637,-5.068,0.0,-2.5385,-2.5452,-2.5431,-2.6161,-2.682,-2.6973,-2.755,-2.833,0.0,-3.0275,-3.1385,-3.2891,-3.3122,-3.316,-3.3045,-3.2391,-3.1929,-3.1852,-3.1115,-3.0654,-3.0538,-2.9813,-2.9357,-2.9242,-2.8544,-2.8121,-2.8049,-2.8049,-2.7582,-2.6774,-2.7544,-2.7505,-2.6813,-2.8396,-2.9165,-2.9357,0.0,0.0,-3.5538,-3.5692,-3.7353,0.0,0.0,-4.4701,-4.4124,-4.7817,-4.7702,-4.5671,-4.4239,-4.0854,0.0,0.0,0.0,0.0,0.0,-2.7582,0.0,0.0,0.0,0.0,0.0,0.0,0.0,-2.6467,-2.7274,-2.8313,0.0,0.0,0.0,0.0,0.0,0.0,0.0,0.0,0.0,0.0,0.0,0.0,0.0,0.0,0.0,0.0,-4.1085,-4.1546,-4.1662,-4.0931,-4.0516,-4.0516,-4.0516,-4.0516,-4.0516,-4.0516,-4.0516,-4.0516,-4.0516,-4.0516,-4.0516,-4.0516,-4.0516,-4.0516,-4.0516,-4.0516,-4.0554,-4.1316,-4.22,-4.3162,-4.3855,-4.5222,-4.6901,-4.7088,-4.7666,-4.8444,-4.9395,-4.9761,-4.9903,-2.5308,-2.5846,-2.6346,-2.6341,-2.7077,-2.8115,-2.9456,-2.9192,-2.966,-3.1852,-3.2929,-3.3583,-3.3898,-3.4584,-3.4699,-3.4013,-3.3821,-3.3391,-3.2699,-3.2506,-3.2122,-3.1468,-3.1275,-3.0852,-3.0154,-3.0,-2.9583,-2.8857,-2.8857,-2.8434,-2.7659,-2.7818,-2.7818,-2.7698,-2.8665,-2.9506,-3.0192,0.0,0.0,-3.5615,-3.6969,0.0,-4.2508,-4.397,-4.5624,-4.7163,-4.7317,-4.7471,-4.6855,0.0,-4.0508,-3.9923,0.0,0.0,0.0,0.0,0.0,0.0,0.0,0.0,0.0,0.0,0.0,0.0,-2.689,-2.7274,-2.8011,0.0,0.0,0.0,0.0,0.0,0.0,0.0,0.0,0.0,0.0,0.0,0.0,0.0,0.0,0.0,0.0,-3.9708,-4.0046,-4.0708,-4.0593,-4.0516,-4.0516,-4.0516,-4.0516,-4.0516,-4.0516,-4.0516,-4.0516,-4.0516,-4.0516,-4.0516,-4.0516,-4.0516,-4.0516,-4.0516,-4.0516,-4.0516,-4.0669,-4.1662,-4.3124,-4.3278,-4.435,-4.6034,-4.6762,-4.7163,-4.7478,-4.8385,-4.9121,-4.9751,-2.5846,-2.6308,-2.6736,-2.7159,-2.7928,-2.8929,-3.0192,-3.039,-3.1006,-3.2699,-3.4045,-3.5007,-3.5391,-3.6238,-3.6584,-3.6122,-3.5315,-3.4661,-3.4237,-3.3391,-3.2737,-3.2314,-3.2314,-3.1929,-3.1077,-3.1038,-3.0615,-2.9737,-2.9737,-2.9313,-2.8511,-2.8929,-2.9159,-2.9198,-3.0006,-3.0852,-3.1731,0.0,-3.4808,-3.6853,-3.8123,0.0,-4.3316,-4.5393,-4.7278,-4.874,-4.8779,-4.8509,-4.7509,-4.3701,-4.2162,0.0,0.0,-3.5238,-3.3968,0.0,-3.0814,-2.9044,0.0,0.0,0.0,-2.7852,0.0,0.0,0.0,-2.6928,-2.6736,0.0,0.0,0.0,0.0,0.0,0.0,0.0,0.0,0.0,0.0,0.0,0.0,0.0,0.0,0.0,0.0,-3.8661,-3.8815,-3.92,-3.9669,-3.99,-3.99,-4.0285,-4.0516,-4.0516,-4.0516,-4.0516,-4.0516,-4.0516,-4.0516,-4.0516,-4.0516,-4.0516,-4.0516,-4.0516,-4.0516,-4.0516,-4.0969,-4.1893,-4.3124,-4.3547,-4.4487,-4.5706,-4.618,-4.6391,-4.6561,-4.7434,-4.8299,-4.9126,-2.6697,-2.6967,-2.7313,-2.8011,-2.8934,-2.989,-3.0731,-3.1462,-3.2275,-3.3276,-3.4923,-3.6269,-3.7123,0.0,0.0,0.0,-3.7161,-3.6192,-3.6692,-3.4776,-3.3545,-3.343,-3.3237,-3.2776,-3.1968,-3.1929,-3.1506,-3.0654,-3.0654,-3.0198,-2.9357,-3.0231,-3.0654,-3.0692,-3.1545,0.0,0.0,0.0,0.0,-3.8354,0.0,-4.1354,-4.3662,-4.6894,-4.8432,-4.9048,-4.9894,-4.9394,-4.8048,-4.6009,0.0,-4.247,-3.9431,-3.7469,0.0,0.0,0.0,0.0,0.0,0.0,0.0,0.0,0.0,-2.8044,0.0,0.0,0.0,0.0,0.0,0.0,0.0,0.0,0.0,0.0,0.0,0.0,0.0,0.0,0.0,0.0,0.0,0.0,0.0,-3.7815,-3.8007,-3.8007,-3.8661,-3.913,-3.9284,-3.9938,-4.0323,-4.0516,-4.0516,-4.0516,-4.0516,-4.0516,-4.0516,-4.0516,-4.0516,-4.0516,-4.0516,-4.0516,-4.0593,-4.0785,-4.1508,-4.2393,-4.3393,-4.4047,-4.4816,-4.5594,-4.5684,-4.5742,-4.5881,-4.6592,-4.7387,-4.8268,-2.7736,-2.8319,-2.8857,-2.8934,-3.0314,-3.1698,-3.2506,-3.2699,-3.3353,-3.5,-3.6661,0.0,0.0,0.0,0.0,0.0,0.0,0.0,-4.0923,0.0,-3.5962,-3.5231,-3.4468,-3.366,-3.2776,-3.2776,-3.2352,-3.1545,-3.1545,-3.1115,-3.0269,-3.1154,-3.1545,0.0,-3.2391,0.0,0.0,0.0,-3.7584,0.0,-4.17,-4.3278,0.0,-4.7086,-4.774,-4.7278,-4.8086,-4.8779,-4.874,0.0,-4.5778,-4.6547,0.0,-3.9592,-3.8661,0.0,0.0,0.0,0.0,0.0,0.0,0.0,-3.1814,0.0,0.0,0.0,-2.8275,0.0,0.0,0.0,0.0,0.0,0.0,0.0,0.0,0.0,0.0,0.0,0.0,0.0,0.0,0.0,0.0,0.0,-3.8007,-3.8007,-3.8084,-3.8469,-3.9246,-3.94,-3.9746,-4.0477,-4.0516,-4.0516,-4.0516,-4.0516,-4.0516,-4.0516,-4.0516,-4.0516,-4.0516,-4.0516,-4.0931,-4.1662,-4.1769,-4.2701,-4.4162,-4.4239,-4.4816,-4.5594,-4.5684,-4.5709,-4.5726,-4.5874,-4.6483,-4.738,-2.8511,-2.8857,-2.9434,-3.0429,-3.1198,-3.2122,-3.343,-3.4891,-3.593,-3.6154,0.0,0.0,0.0,0.0,0.0,0.0,0.0,-4.1393,0.0,0.0,0.0,-3.8392,-3.7123,-3.6007,-3.5122,-3.4654,-3.3737,-3.2391,-3.2391,-3.2199,-3.1852,-3.2237,-3.266,0.0,-3.4045,0.0,-3.6308,0.0,-3.9315,0.0,0.0,0.0,0.0,-4.6432,-4.7471,-4.7625,-4.7971,-4.8355,-4.8355,0.0,-4.6163,0.0,0.0,0.0,0.0,0.0,0.0,0.0,0.0,0.0,0.0,0.0,0.0,0.0,-3.0083,0.0,-2.8203,0.0,0.0,0.0,0.0,0.0,0.0,0.0,0.0,0.0,0.0,0.0,0.0,0.0,0.0,0.0,0.0,0.0,0.0,0.0,0.0,-3.6699,-3.7084,-3.8507,-3.9438,-3.9785,-4.0246,-4.0516,-4.0516,-4.0516,-4.0516,-4.0516,-4.0516,-4.0516,-4.0516,-4.0516,-4.0969,-4.1808,-4.2316,-4.3239,-4.4355,-4.4855,-4.5287,-4.5594,-4.5612,-4.5676,-4.5701,-4.5742,-4.6592,-4.7836,-2.9973,-2.9973,-3.0275,-3.1775,-3.2237,-3.2891,-3.4314,-3.6122,-3.7353,-3.7392,0.0,0.0,-4.4239,-4.5432,0.0,0.0,-4.7124,-4.5509,0.0,0.0,-4.0508,0.0,0.0,0.0,0.0,-3.6615,-3.5346,-3.3622,-3.3353,-3.3122,-3.2891,-3.3122,-3.3583,-3.4244,0.0,-3.6423,-3.7546,0.0,0.0,-4.2016,-4.3547,-4.4124,-4.4278,-4.5663,-4.6855,-4.7778,-4.7778,-4.7778,-4.7702,-4.7077,-4.6471,0.0,-4.4662,0.0,0.0,0.0,0.0,0.0,-3.8154,0.0,0.0,0.0,0.0,0.0,0.0,0.0,0.0,0.0,0.0,0.0,0.0,0.0,0.0,0.0,0.0,0.0,0.0,0.0,0.0,0.0,0.0,0.0,0.0,0.0,0.0,-3.2852,-3.3891,-3.4769,-3.5462,-3.7469,-3.8815,-3.9284,-4.0092,-4.0516,-4.0516,-4.0516,-4.0516,-4.0516,-4.0516,-4.0631,-4.0854,-4.0593,-4.1239,-4.2508,-4.2931,-4.3701,-4.4701,-4.5325,-4.5594,-4.5594,-4.5594,-4.5612,-4.5684,-4.5693,-4.6629,-4.7951,-3.2622,-3.216,0.0,-3.2737,-3.3545,-3.443,-3.5308,-3.5538,-3.6462,0.0,0.0,0.0,0.0,0.0,0.0,0.0,0.0,-5.1615,-5.1615,0.0,-4.2624,0.0,0.0,-3.9246,0.0,0.0,-3.7084,-3.5423,-3.4584,-3.3744,-3.2929,-3.3782,-3.4167,-3.4282,-3.593,-3.7623,-3.9323,-4.1046,-4.3162,-4.5518,-4.6432,-4.6769,-4.6577,0.0,-4.5432,-4.6923,-4.6923,0.0,0.0,-4.6923,-4.6885,0.0,0.0,0.0,0.0,0.0,0.0,0.0,0.0,0.0,0.0,-3.9823,0.0,0.0,0.0,0.0,-3.2045,0.0,0.0,0.0,0.0,0.0,0.0,0.0,0.0,0.0,0.0,0.0,0.0,0.0,0.0,0.0,0.0,0.0,0.0,-3.2852,-3.2237,-3.2885,-3.5385,-3.6308,-3.7546,-3.9246,-4.0092,-4.0516,-4.0516,-4.0516,-4.0516,-4.0516,-4.0516,-4.0931,-4.1731,-4.0893,-4.1862,-4.4162,-4.3431,-4.4047,-4.5556,-4.5594,-4.5594,-4.5594,-4.5594,-4.5594,-4.5603,-4.5684,-4.6232,-4.7088,-3.3583,-3.3545,-3.343,0.0,0.0,-3.4507,-3.5385,-3.7392,-3.9931,0.0,0.0,0.0,0.0,-5.755,-5.9011,0.0,0.0,-5.6203,-5.4549,-5.0471,0.0,0.0,0.0,-4.2354,0.0,0.0,0.0,0.0,-3.6007,-3.543,-3.4615,-3.4923,-3.5045,-3.5122,0.0,-3.7661,0.0,0.0,0.0,0.0,0.0,-4.6885,-4.6778,0.0,0.0,-4.6047,-4.6047,-4.6394,0.0,-4.624,-4.6432,-4.6701,-4.5509,-4.4586,-4.4008,-4.4586,-4.4355,0.0,0.0,0.0,-4.5663,-4.2585,0.0,0.0,0.0,0.0,0.0,0.0,0.0,0.0,0.0,0.0,0.0,0.0,0.0,0.0,0.0,0.0,0.0,0.0,0.0,0.0,0.0,0.0,0.0,-2.9544,-3.039,-3.1462,-3.2923,-3.5346,-3.7238,-3.8392,-3.9785,-4.0516,-4.0516,-4.0516,-4.0516,-4.0516,-4.0516,-4.0669,-4.0931,-4.1239,-4.2162,-4.3508,-4.3778,-4.4547,-4.5594,-4.5594,-4.5594,-4.5594,-4.5594,-4.5594,-4.5594,-4.5612,-4.6562,-4.7974,-3.4853,-3.5084,0.0,0.0,0.0,-3.5391,-3.6269,0.0,0.0,0.0,-5.0702,0.0,-6.1127,0.0,-6.432,0.0,-6.3782,-6.1089,-5.728,-5.4483,0.0,-4.951,-4.7278,0.0,0.0,0.0,0.0,0.0,0.0,-3.6423,-3.5923,-3.5615,-3.55,-3.5538,0.0,-3.7661,-3.9438,0.0,-4.3624,0.0,0.0,-4.6701,0.0,0.0,-4.5509,-4.6009,0.0,-4.597,-4.6355,-4.5787,-4.597,-4.6394,-4.6124,-4.5663,-4.5393,-4.624,-4.6317,-4.6278,-4.7124,-4.7932,0.0,-4.5893,-4.4239,0.0,-3.8962,0.0,0.0,0.0,0.0,0.0,0.0,0.0,0.0,0.0,0.0,0.0,0.0,-2.5962,0.0,0.0,0.0,0.0,0.0,0.0,-2.6967,-2.7818,-2.889,-3.016,0.0,0.0,-3.6808,-3.7969,-3.9631,-4.0669,-4.0969,-4.0969,-4.0969,-4.0969,-4.1285,-4.1239,-4.0969,-4.1854,-4.2739,-4.3547,-4.4085,-4.4778,-4.5594,-4.5594,-4.5594,-4.5594,-4.5594,-4.5594,-4.5594,-4.5594,-4.669,-4.841,-3.6469,-3.6769,0.0,0.0,-3.6308,0.0,0.0,0.0,-4.6355,0.0,-5.3664,-5.905,-6.3358,-6.6051,-6.8167,-6.9821,-6.9129,0.0,-6.0242,-5.8242,0.0,0.0,-4.9663,-4.8817,-4.7115,0.0,0.0,0.0,0.0,0.0,-3.6692,-3.5923,-3.5538,-3.5538,-3.6346,0.0,-3.94,-4.1085,-4.3769,-4.6885,-4.6923,-4.6471,-4.5633,-4.4739,-4.547,-4.6778,-4.5893,-4.5594,-4.5594,-4.5594,-4.5594,-4.5748,-4.6624,-4.6885,-4.7077,-4.7932,-4.874,-4.924,-4.8509,-4.8894,-4.951,-4.9471,0.0,0.0,0.0,0.0,-4.0962,0.0,0.0,0.0,0.0,0.0,0.0,0.0,0.0,0.0,0.0,0.0,0.0,0.0,0.0,0.0,0.0,-2.6544,-2.689,-2.7698,-2.7857,-2.8967,0.0,0.0,-3.6231,-3.7892,-3.9592,-4.0931,-4.1769,-4.1808,-4.1808,-4.1885,-4.2701,-4.2662,-4.1885,-4.2777,-4.3585,-4.4316,-4.4355,-4.4816,-4.5594,-4.5594,-4.5594,-4.5594,-4.5594,-4.5633,-4.5671,-4.571,-4.674,-4.8394,-3.7584,-3.7661,-3.7815,0.0,-3.8507,-3.8469,0.0,0.0,0.0,0.0,-5.9127,-6.5474,-7.036,-7.2591,-7.363,-7.3437,-7.2052,0.0,0.0,0.0,0.0,-5.6165,-5.3587,-5.1433,-4.974,-4.6595,0.0,-4.147,0.0,0.0,-3.6692,-3.65,-3.6077,0.0,0.0,0.0,-3.94,-4.1085,-4.3769,-4.6962,-4.7548,-4.7663,0.0,0.0,-4.6509,-4.6778,-4.5893,-4.5594,-4.5594,-4.5594,-4.5594,-4.5748,-4.6624,-4.6885,-4.7201,-4.8625,-4.9202,-4.9625,-5.0654,-5.1077,-5.1125,-5.051,-4.8894,-4.7009,0.0,0.0,0.0,0.0,0.0,0.0,0.0,0.0,0.0,0.0,0.0,0.0,0.0,0.0,0.0,-2.7582,0.0,0.0,0.0,-2.5615,-2.5731,-2.5962,-2.7159,-2.8434,0.0,0.0,0.0,-3.7,-3.9277,-4.0931,-4.1769,-4.1808,-4.2124,-4.2777,-4.3008,-4.297,-4.2777,-4.3624,-4.4085,-4.4355,-4.4979,-4.5402,-4.5594,-4.5594,-4.5594,-4.5594,-4.5594,-4.6009,-4.6624,-4.724,-4.8125,-4.9202,-3.8469,0.0,0.0,-3.9823,0.0,0.0,-4.2431,0.0,0.0,-5.4972,-6.1897,0.0,-6.9898,-7.3322,-7.5091,-7.4245,-7.2629,0.0,-6.6782,0.0,0.0,-5.8434,-5.6088,-5.3895,-5.1856,-4.8432,0.0,-4.2893,0.0,0.0,-3.7276,-3.6885,0.0,0.0,0.0,-3.7469,0.0,-4.17,-4.4008,-4.5855,-4.7086,0.0,0.0,-4.6932,-4.7115,-4.7355,-4.6855,-4.6201,-4.5594,-4.5594,-4.5594,-4.5748,-4.6624,-4.7154,-4.7702,-4.9009,-4.9663,-5.0164,-5.1125,-5.1615,-5.1769,-5.1356,-5.051,-4.9317,-4.7625,-4.6586,-4.5355,0.0,0.0,0.0,0.0,0.0,0.0,0.0,0.0,0.0,0.0,0.0,0.0,0.0,0.0,0.0,0.0,-2.6428,-2.6428,-2.6428,-2.7659,0.0,0.0,0.0,0.0,-3.6654,-3.9546,-4.0931,-4.07,-4.2162,-4.2777,-4.2547,-4.3278,-4.3431,-4.3124,-4.4316,-4.4662,-4.4355,-4.521,-4.5594,-4.5594,-4.5594,-4.5594,-4.5633,-4.6009,-4.6932,-4.8048,-4.8509,-4.8971,-4.951,-3.9323,0.0,0.0,0.0,0.0,0.0,0.0,-5.0164,0.0,-5.7214,0.0,-6.7475,-6.6628,-7.1321,-7.4168,-7.3245,0.0,-6.9475,-6.6436,-6.5205,-6.2897,-5.9127,-5.7819,-5.6011,-5.3587,-5.0087,0.0,0.0,0.0,0.0,-3.8161,0.0,0.0,0.0,0.0,0.0,0.0,-4.2662,-4.4355,-4.4624,-4.6355,-4.6586,-4.6018,-4.6778,-4.7509,-4.8086,-4.8086,-4.7086,-4.5787,-4.5787,-4.571,-4.5748,-4.6624,-4.7471,-4.8279,-4.9125,-5.001,-5.0712,-5.0712,-5.1202,-5.1731,-5.1731,-5.1654,-5.1192,-4.974,-4.874,-4.7663,-4.6086,-4.4509,-4.3124,0.0,0.0,0.0,0.0,0.0,0.0,0.0,0.0,0.0,0.0,0.0,0.0,0.0,0.0,0.0,-2.7895,-2.8665,0.0,0.0,0.0,0.0,-3.6315,-3.97,0.0,-3.9823,0.0,-4.3585,-4.2462,-4.3816,-4.4085,-4.347,-4.494,-4.521,-4.4509,-4.5287,-4.5594,-4.5594,-4.5594,-4.5671,-4.5864,-4.6855,-4.8125,-4.9394,-4.951,-4.9586,-4.9663,0.0,0.0,0.0,0.0,0.0,-4.9077,-5.5549,-5.7203,-5.8819,-6.182,-6.7513,-7.0975,-7.0129,-7.2245,-7.3091,-7.1475,-7.0475,0.0,0.0,0.0,0.0,-6.2512,-5.9627,-5.7203,-5.528,-5.1241,-4.7932,0.0,0.0,0.0,-3.9092,0.0,0.0,0.0,0.0,0.0,-4.1277,-4.3393,0.0,-4.5518,-4.7201,-4.7817,-4.7663,-4.7817,-4.7971,-4.8086,-4.8086,-4.7471,-4.6663,-4.6663,-4.6201,-4.5748,-4.6624,-4.7471,-4.8279,-4.9125,-5.001,-5.0712,-5.0712,-5.0789,-5.0894,-5.0894,-5.0356,-4.974,-4.9471,-4.874,-4.7817,-4.6855,-4.5855,-4.4701,-4.3162,0.0,0.0,0.0,0.0,0.0,0.0,0.0,0.0,0.0,0.0,0.0,0.0,0.0,0.0,0.0,0.0,0.0,0.0,0.0,0.0,0.0,-3.793,0.0,0.0,0.0,-4.4239,-4.6,-4.5586,-4.5287,-4.5171,-4.5479,-4.5518,-4.5364,-4.5518,-4.5594,-4.5594,-4.5594,-4.6009,-4.6817,-4.8355,-4.9125,-4.9471,-5.0212,-5.0481,-5.0481,0.0,0.0,0.0,0.0,0.0,0.0,0.0,-6.1127,0.0,-6.3281,-6.582,-6.7436,-6.7013,-7.009,-7.1668,-7.0398,-6.9513,-6.8475,-6.7205,-6.5128,-6.3358,-6.205,-5.9627,0.0,-5.5742,-5.2395,-4.924,-4.6278,0.0,0.0,-3.9284,0.0,0.0,0.0,0.0,-4.0854,0.0,0.0,0.0,-4.6432,-4.8086,-4.8779,-4.8817,-4.9279,-4.9433,-4.9433,-4.9433,-4.8894,-4.8048,-4.7201,-4.6624,-4.6278,-4.624,-4.6817,-4.7548,-4.7971,-4.8702,-4.9356,-4.9356,-4.9356,-4.9356,-4.9356,-4.9048,-4.874,-4.874,-4.8394,-4.7855,-4.7077,-4.6586,-4.5624,-4.3508,-4.1046,0.0,0.0,0.0,0.0,0.0,0.0,0.0,0.0,0.0,0.0,0.0,0.0,0.0,0.0,0.0,0.0,0.0,0.0,0.0,0.0,0.0,0.0,0.0,0.0,0.0,-4.4269,-4.4701,-4.5171,-4.5594,-4.5594,-4.5594,-4.5594,-4.5594,-4.5594,-4.5633,-4.6086,-4.7048,-4.8279,-4.9086,-4.9663,-5.0125,-5.0558,-5.0712,-5.0712,0.0,-4.5086,0.0,0.0,-5.2933,0.0,-5.9935,-6.3474,-6.559,-6.4782,-6.45,-6.4385,-6.4385,-6.7975,-6.9898,-6.8706,-6.7975,-6.6936,-6.5436,-6.3897,-6.2358,-6.0858,-5.9204,-5.7473,-5.5742,-5.3203,-5.0346,0.0,0.0,0.0,0.0,0.0,0.0,0.0,0.0,0.0,0.0,0.0,-4.6471,-4.7548,-4.9086,-4.9663,-4.974,-5.0442,-5.0712,-5.0712,-5.0712,-5.025,-4.9433,-4.7932,-4.7201,-4.6778,-4.6086,-4.6355,-4.6885,-4.6885,-4.7471,-4.8048,-4.7894,-4.7855,-4.7855,-4.7855,-4.7702,-4.7625,-4.7817,-4.7702,-4.7394,-4.674,-4.6624,-4.597,-4.3778,-4.2662,0.0,0.0,0.0,0.0,0.0,0.0,0.0,0.0,0.0,0.0,0.0,0.0,0.0,0.0,0.0,0.0,0.0,0.0,0.0,0.0,0.0,-4.0277,-3.8815,0.0,-4.4316,0.0,-4.4047,-4.494,-4.5594,-4.5594,-4.5594,-4.5594,-4.5787,-4.597,-4.6201,-4.7086,-4.8202,-4.9433,-4.9586,-5.0087,-5.0712,-5.0712,-5.0712,-5.0712,0.0,0.0,0.0,0.0,0.0,0.0,-6.2551,-6.4628,-6.6667,-6.8821,-6.8398,-6.7923,-6.7923,-6.8359,-6.7667,-6.5282,-6.5013,-6.4551,-6.3628,-6.2704,-6.1793,-6.0819,-5.9204,-5.7473,-5.5742,-5.3203,-5.0615,0.0,0.0,0.0,0.0,0.0,0.0,0.0,0.0,0.0,0.0,-4.6394,-4.7702,-4.924,-5.0212,-5.0596,-5.0596,-5.0673,-5.0712,-5.0712,-5.0712,-5.0635,-5.0442,-4.9471,-4.8163,-4.6885,-4.6817,-4.6808,-4.6885,-4.6885,-4.7471,-4.7932,-4.7192,-4.7,-4.7,-4.7,-4.6432,-4.6047,-4.6817,-4.6394,-4.5825,-4.5748,-4.571,-4.5402,-4.4393,-4.3508,-4.2393,0.0,0.0,0.0,0.0,0.0,0.0,0.0,0.0,0.0,0.0,0.0,0.0,0.0,0.0,0.0,0.0,0.0,0.0,-3.5462,0.0,-3.9354,-4.1423,-4.2701,-4.4355,-4.6423,-4.5778,-4.5518,-4.5594,-4.5594,-4.5594,-4.5633,-4.6432,-4.7201,-4.7932,-4.8817,-4.924,-4.9471,-5.0289,-5.0635,-5.0712,-5.0712,-5.0712,-5.0712,0.0,0.0,0.0,0.0,0.0,0.0,0.0,-6.5974,-6.759,-6.8052,-6.7436,-6.709,-6.7552,-6.7628,-6.7013,-6.5513,-6.5397,-6.4589,-6.2704,-6.2293,-6.1243,-5.9396,-5.8665,-5.7473,-5.5742,-5.3741,-5.1702,0.0,0.0,0.0,0.0,0.0,0.0,0.0,0.0,-4.4662,-4.571,-4.7586,-4.8779,-4.9471,-5.0366,-5.0712,-5.0712,-5.0712,-5.0712,-5.0712,-5.0712,-5.0712,-5.0635,-5.0289,-4.9394,-4.8317,-4.7778,-4.7625,-4.7548,-4.7038,-4.7115,-4.7201,-4.6355,-4.6124,-4.6124,-4.6124,-4.5864,-4.571,-4.6047,-4.5864,-4.5594,-4.5594,-4.5594,-4.5479,-4.5133,-4.4825,-4.4047,0.0,0.0,0.0,0.0,0.0,0.0,0.0,0.0,0.0,0.0,0.0,0.0,0.0,0.0,0.0,0.0,0.0,0.0,-3.6969,0.0,-4.0469,-4.2547,-4.3393,-4.4316,-4.5355,-4.5518,-4.5594,-4.5594,-4.5594,-4.5893,-4.6394,-4.674,-4.7663,-4.8894,-4.924,-4.9702,-5.0212,-5.0558,-5.0712,-5.0712,-5.0712,-5.0712,-5.0712,-5.7126,0.0,-5.8511,0.0,-6.3128,-6.4282,-6.4897,-6.6513,-6.7513,-6.7128,-6.6397,-6.6205,-6.7013,-6.6898,-6.632,-6.5243,-6.5128,-6.4166,-6.187,-6.1485,-6.0435,-5.8396,-5.805,0.0,-5.5742,-5.4318,-5.2741,-5.1048,-4.8125,0.0,0.0,0.0,0.0,0.0,-4.5432,-4.624,-4.6826,-4.8625,-4.9548,-4.9817,-5.0442,-5.0712,-5.0712,-5.0712,-5.0712,-5.0712,-5.0712,-5.0712,-5.0712,-5.0712,-5.0289,-4.9625,-4.8779,-4.8317,-4.8009,-4.7432,-4.7077,-4.6778,-4.6163,-4.5787,-4.5594,-4.5594,-4.5594,-4.5594,-4.5594,-4.5594,-4.5594,-4.5594,-4.5594,-4.5594,-4.5594,-4.5594,-4.5133,-4.3701,0.0,0.0,0.0,0.0,0.0,0.0,0.0,-3.6577,-3.6269,0.0,0.0,0.0,0.0,0.0,0.0,0.0,0.0,0.0,0.0,0.0,0.0,-4.3547,-4.4201,-4.4701,-4.5325,-4.5748,-4.597,-4.624,-4.6817,-4.7625,-4.7625,-4.8432,-4.9779,-4.9779,-5.0125,-5.0712,-5.0712,-5.0712,-5.0712,-5.0712,-5.0712,-5.0712,-6.137,-6.2024,-6.2563,-6.4243,-6.5282,-6.5859,-6.5859,-6.5897,-6.6205,-6.7013,-6.6397,-6.6205,-6.7013,-6.6397,-6.5205,-6.3462,-6.332,-6.2627,-6.0935,-6.0012,-5.9165,0.0,0.0,-5.6599,-5.5703,-5.4895,-5.3626,-5.1885,0.0,0.0,-4.6846,0.0,-4.6009,-4.6846,-4.6885,-4.7817,-4.9356,-4.9394,-4.9894,-5.0712,-5.0712,-5.0712,-5.0712,-5.0712,-5.0712,-5.0712,-5.0712,-5.0712,-5.0712,-5.0712,-5.0712,-5.0519,-4.9663,-4.8779,-4.8086,-4.8086,-4.7509,-4.6885,-4.6885,-4.624,-4.5594,-4.5594,-4.5594,-4.5594,-4.5594,-4.5594,-4.5594,-4.5594,-4.5594,-4.5594,-4.5594,-4.5594,-4.5325,-4.4432,0.0,0.0,0.0,0.0,0.0,0.0,-3.6692,-3.7038,-3.7892,0.0,0.0,0.0,0.0,0.0,0.0,0.0,0.0,-3.7969,-3.8854,0.0,-4.1808,-4.2701,-4.3932,-4.5594,-4.5594,-4.6047,-4.6923,-4.7702,-4.8548,-4.9356,-4.9356,-4.9856,-5.0673,-5.0673,-5.0712,-5.0712,-5.0712,-5.0712,-5.0712,-5.0712,-5.0712,-5.0712,-6.4243,-6.4666,-6.5013,-6.6128,-6.6513,-6.6513,-6.5974,-6.6359,-6.659,-6.632,-6.5551,-6.5128,-6.5359,-6.5166,-6.4551,0.0,-6.2781,-6.2012,0.0,-6.055,-5.9742,-5.8357,-5.805,-5.7203,-5.5742,-5.4895,-5.4241,-5.3664,0.0,0.0,0.0,-4.7163,-4.7432,-4.774,-4.8355,-4.8894,-4.9433,-5.001,-5.0442,-5.0712,-5.0712,-5.0712,-5.0712,-5.0712,-5.0712,-5.0712,-5.0712,-5.0712,-5.0712,-5.0712,-5.0712,-5.0635,-5.0366,-5.0087,-4.974,-4.9163,-4.8817,-4.8355,-4.7201,-4.6701,-4.6355,-4.5748,-4.5594,-4.5594,-4.5594,-4.5594,-4.5594,-4.5594,-4.5594,-4.5594,-4.5594,-4.5594,-4.5325,-4.4432,-4.4586,0.0,0.0,0.0,0.0,0.0,-3.9277,-3.9623,0.0,-3.9585,0.0,0.0,0.0,0.0,0.0,0.0,0.0,0.0,-4.1739,0.0,-4.4355,-4.4671,-4.5355,-4.6509,-4.7048,-4.7432,-4.774,-4.7971,-4.8586,-4.9394,-4.9394,-4.9894,-5.0712,-5.0712,-5.0712,-5.0712,-5.0712,-5.0712,-5.0712,-5.0712,-5.0712,-5.0712,-6.5205,-6.5667,-6.6051,-6.6551,-6.6359,-6.5974,-6.5474,-6.5551,-6.5474,-6.4974,-6.4436,-6.4128,-6.4128,-6.3858,0.0,-6.2897,-6.2397,-6.1716,-6.0858,-6.0473,-5.9704,-5.8357,-5.7973,-5.7165,-5.5742,-5.5203,0.0,-5.4511,-5.1702,-4.9817,-4.8769,-4.8971,-4.9086,-4.9086,-4.9663,-4.9894,-4.9933,-5.0481,-5.0712,-5.0712,-5.0712,-5.0712,-5.0712,-5.0712,-5.0712,-5.0712,-5.0712,-5.0712,-5.0712,-5.0712,-5.0712,-5.0712,-5.0712,-5.0712,-5.0596,-5.0048,-4.9663,-4.9163,-4.8125,-4.7586,-4.7163,-4.6317,-4.6317,-4.6471,-4.6163,-4.6086,-4.6009,-4.5671,-4.5594,-4.5594,-4.5594,-4.5594,-4.5441,-4.4893,-4.5248,-4.4825,-4.2585,0.0,0.0,0.0,0.0,0.0,0.0,-4.1816,-4.1477,0.0,0.0,0.0,0.0,0.0,0.0,-4.2547,-4.3239,0.0,-4.5594,-4.5932,-4.6509,-4.7355,-4.8202,-4.8586,-4.8586,-4.8933,-4.9356,-4.9894,-4.9894,-5.0212,-5.0712,-5.0712,-5.0712,-5.0712,-5.0712,-5.0712,-5.0712,-5.0712,-5.0712,-5.0712,-6.4512,-6.5205,-6.5782,0.0,-6.5089,0.0,-6.4512,-6.382,-6.3308,-6.3308,-6.3231,-6.3243,-6.3243,-6.2474,-6.2024,-6.2024,0.0,0.0,0.0,-5.9973,-5.9127,-5.8357,-5.7473,-5.6599,-5.5703,-5.5703,-5.5318,-5.4511,-5.2895,-5.2,-5.1885,-5.1125,-5.075,-5.0712,-5.0712,-5.0712,-5.0712,-5.0712,-5.0712,-5.0712,-5.0712,-5.0712,-5.0712,-5.0712,-5.0712,-5.0712,-5.0712,-5.0712,-5.0712,-5.0712,-5.0712,-5.0712,-5.0712,-5.0712,-5.0712,-5.0712,-5.0125,-4.9471,-4.9433,-4.8817,-4.8009,-4.7201,-4.7548,-4.7894,-4.7154,-4.6962,-4.674,-4.5941,-4.5787,-4.5748,-4.571,-4.571,-4.5671,-4.5594,-4.5594,-4.5017,-4.3393,0.0,0.0,0.0,0.0,0.0,0.0,-4.3278,-4.3278,0.0,0.0,0.0,0.0,0.0,-4.2154,-4.2154,-4.3662,-4.4893,-4.5787,-4.6624,-4.7471,-4.8279,-4.9086,-4.9471,-4.951,-5.0327,-5.0712,-5.0712,-5.0712,-5.0712,-5.0712,-5.0712,-5.0712,-5.0712,-5.0712,-5.0712,-5.0712,-5.0712,-5.0712,-5.0712,0.0,0.0,-6.4705,-6.4051,-6.432,-6.4397,-6.3705,-6.3435,-6.3308,-6.3308,-6.2781,-6.2358,-6.2358,-6.1627,-6.1089,-6.1089,-6.1089,-6.1012,-6.0819,-5.9973,-5.9127,-5.8357,-5.7473,-5.6599,-5.5703,-5.5703,-5.5318,-5.4511,-5.4087,-5.3203,-5.1885,-5.1692,-5.1279,-5.0712,-5.0712,-5.0712,-5.0712,-5.0712,-5.0712,-5.0712,-5.0712,-5.0712,-5.0712,-5.0712,-5.0712,-5.0712,-5.0712,-5.0712,-5.0712,-5.0712,-5.0712,-5.0712,-5.0712,-5.0712,-5.0712,-5.0712,-5.0558,-5.025,-4.9586,-4.924,-4.8894,-4.8048,-4.7971,-4.8048,-4.7855,-4.7817,-4.7778,-4.7548,-4.7509,-4.7317,-4.6701,-4.6586,-4.6355,-4.571,-4.5594,-4.5248,-4.4162,-4.4162,0.0,0.0,-4.3585,-4.4047,-4.494,-4.5017,-4.5017,0.0,0.0,0.0,0.0,-4.5432,-4.5692,-4.5692,-4.6086,-4.6701,-4.7509,-4.8355,-4.924,-5.0087,-5.0289,-5.0404,-5.0404,-5.0596,-5.0712,-5.0712,-5.0712,-5.0712,-5.0712,-5.0712,-5.0712,-5.0712,-5.0712,-5.0712,-5.0712,-5.0712,-5.0712,-5.0712,-6.3308,-6.432,-6.5051,-6.4589,-6.4205,-6.3858,-6.3346,-6.2666,-6.2166,-6.2166,-6.1781,-6.1524,-6.1524,-6.1089,-6.0781,-6.0781,-6.0781,-6.0781,-6.0781,-5.9973,-5.9127,-5.8357,-5.7473,-5.6599,-5.5703,-5.5703,-5.5472,-5.5049,-5.4664,-5.401,-5.3087,-5.2692,-5.2049,-5.1241,-5.1241,-5.1048,-5.0712,-5.0712,-5.0712,-5.0712,-5.0712,-5.0712,-5.0712,-5.0712,-5.0712,-5.0712,-5.0712,-5.0712,-5.0712,-5.0712,-5.0712,-5.0712,-5.0712,-5.0712,-5.0712,-5.0712,-5.0712,-5.0596,-5.0125,-4.9971,-4.9894,-4.9394,-4.8971,-4.8702,-4.8702,-4.8702,-4.8586,-4.8202,-4.8086,-4.7855,-4.7038,-4.6885,-4.6624,-4.5748,-4.5287,-4.4855,-4.4355,-4.4316,0.0,-4.4855,-4.524,-4.5817,-4.6663,-4.674,-4.674,-4.674,-4.6394,0.0,-4.6701,-4.6855,-4.6885,-4.6885,-4.7625,-4.824,-4.8702,-4.9548,-5.025,-5.0712,-5.0712,-5.0712,-5.0712,-5.0712,-5.0712,-5.0712,-5.0712,-5.0712,-5.0712,-5.0712,-5.0712,-5.0712,-5.0712,-5.0712,-5.0712,-5.0712,-5.0712,-5.0712,-6.2974,-6.432,-6.5474,-6.5359,-6.4205,-6.3308,-6.3308,-6.1973,-6.1012,-6.1012,-6.1012,-6.1012,-6.1012,-6.1012,-6.1012,-6.1012,-6.0858,-6.0781,-6.0781,-5.9858,-5.9011,-5.8319,-5.7319,-5.6483,-5.5703,-5.5703,-5.5703,-5.5703,-5.5011,-5.4626,-5.4472,-5.3741,-5.2933,-5.2115,-5.2115,-5.1741,-5.1097,-5.1097,-5.1097,-5.1058,-5.0933,-5.0894,-5.0856,-5.075,-5.0712,-5.0712,-5.0712,-5.0712,-5.0712,-5.0712,-5.0712,-5.0712,-5.0712,-5.0712,-5.0712,-5.0712,-5.0712,-5.0712,-5.0712,-5.0712,-5.0712,-5.0712,-5.0125,-4.9586,-4.9586,-4.9586,-4.9394,-4.8663,-4.8509,-4.824,-4.7432,-4.7154,-4.6778,-4.5748,-4.4855,-4.4239,-4.4124,0.0,-4.4778,-4.5518,-4.6471,-4.7355,-4.8048,-4.8086,-4.8163,-4.8279,-4.7548,-4.7432,-4.824,-4.7663,-4.7278,-4.7278,-4.8663,-4.9471,-4.9586,-5.0327,-5.0712,-5.0712,-5.0712,-5.075,-5.0894,-5.0894,-5.0933,-5.1097,-5.1097,-5.102,-5.0894,-5.102,-5.0943,-5.075,-5.0981,-5.102,-5.0894,-5.0894,-5.0971,-5.1058,-6.132,-6.2551,-6.3474,-6.282,-6.3012,-6.3308,-6.3308,-6.2512,-6.1908,-6.1908,-6.1908,-6.1908,-6.1908,-6.1908,-6.1908,-6.1908,-6.1204,-6.0781,-6.0781,-5.9358,-5.8434,-5.8319,-5.6742,-5.5818,-5.5703,-5.5703,-5.5703,-5.5703,-5.5549,-5.5164,-5.4511,-5.4357,-5.3818,-5.301,-5.301,-5.2933,-5.2818,-5.2818,-5.2818,-5.2741,-5.201,-5.1692,-5.1654,-5.0971,-5.0712,-5.0712,-5.0712,-5.0712,-5.0712,-5.0712,-5.0712,-5.0712,-5.0712,-5.0712,-5.0712,-5.0712,-5.0712,-5.0712,-5.0712,-5.0712,-5.0712,-5.0712,-5.0596,-5.0519,-5.0519,-5.0519,-5.0481,-5.0327,-5.0289,-5.001,-4.9163,-4.8394,-4.7394,-4.5864,-4.4855,-4.4047,-4.3393,0.0,-4.5441,-4.5594,-4.6971,-4.7971,-4.8086,-4.8086,-4.8394,-4.9125,-4.8394,-4.8279,-4.9163,-4.9086,-4.9009,-4.9009,-4.924,-4.974,-5.0481,-5.0635,-5.0712,-5.0712,-5.0712,-5.1048,-5.1692,-5.1692,-5.2125,-5.2818,-5.2818,-5.2395,-5.1769,-5.251,-5.1972,-5.0827,-5.2241,-5.2356,-5.1692,-5.1692,-5.2202,-5.2626,-6.2243,-6.3512,-6.4589,-6.4205,-6.4436,-6.4551,-6.4089,-6.3281,-6.2743,-6.2743,-6.2743,-6.2589,-6.2139,-6.2101,-6.1908,-6.1435,-6.1012,-6.0781,-6.0781,-5.9627,-5.8742,-5.8319,-5.7088,-5.6175,-5.5703,-5.5703,-5.5703,-5.5703,-5.5703,-5.5511,-5.5164,-5.5164,-5.4434,-5.3241,-5.3703,-5.3395,-5.2538,-5.301,-5.3203,-5.3126,-5.2231,-5.1885,-5.1808,-5.101,-5.0712,-5.0712,-5.0712,-5.0712,-5.0712,-5.0712,-5.0712,-5.0789,-5.1202,-5.1356,-5.1433,-5.1895,-5.1395,-5.0712,-5.0712,-5.0712,-5.0712,-5.0712,-5.0712,-5.0712,-5.0712,-5.0712,-5.0712,-5.0712,-5.0712,-5.0442,-4.9548,-4.8702,-4.7702,-4.6509,-4.5163,0.0,0.0,-4.4825,-4.5787,-4.624,-4.7778,-4.8971,-4.9433,-4.951,-4.9663,-5.0048,-4.974,-4.9663,-5.0087,-5.0087,-5.0087,-5.0087,-5.0087,-5.051,-5.1356,-5.1356,-5.1356,-5.1356,-5.1818,-5.201,-5.1923,-5.2385,-5.2818,-5.3203,-5.3203,-5.2972,-5.2615,-5.3049,-5.2741,-5.2125,-5.2895,-5.2972,-5.2577,-5.2577,-5.2856,-5.3087,-6.3051,-6.4397,-6.559,-6.559,-6.559,-6.5436,-6.4974,-6.4166,-6.3538,-6.332,-6.3462,-6.3281,-6.2474,-6.2358,-6.2204,-6.1704,-6.1127,-6.0896,-6.1089,-6.0281,-5.9358,-5.8357,-5.728,-5.6368,-5.5703,-5.5703,-5.5703,-5.5703,-5.5703,-5.5703,-5.5703,-5.5703,-5.5011,-5.3818,-5.4472,-5.4049,-5.2808,-5.351,-5.378,-5.3703,-5.2856,-5.25,-5.2423,-5.1587,-5.1164,-5.101,-5.1202,-5.1164,-5.101,-5.1202,-5.1279,-5.1395,-5.201,-5.2192,-5.2308,-5.301,-5.2279,-5.1279,-5.1279,-5.1279,-5.1279,-5.1279,-5.1279,-5.1279,-5.1279,-5.1279,-5.1279,-5.1279,-5.1125,-5.0779,-5.0087,-4.9125,-4.8125,-4.7317,0.0,0.0,0.0,-4.5624,-4.6509,-4.7394,-4.8817,-4.9971,-5.0635,-5.0712,-5.0712,-5.0712,-5.0856,-5.0971,-5.0971,-5.1164,-5.1279,-5.1279,-5.1087,-5.1279,-5.1885,-5.2115,-5.2115,-5.1923,-5.2779,-5.2972,-5.2538,-5.3203,-5.3587,-5.378,-5.378,-5.3664,-5.351,-5.3703,-5.3549,-5.3241,-5.3626,-5.3664,-5.351,-5.351,-5.3626,-5.3741,-6.232,-6.3551,-6.4705,-6.4705,-6.4705,-6.4936,-6.5705,-6.5051,-6.4205,-6.3423,-6.4012,-6.4166,-6.332,-6.3205,-6.3512,-6.4243,-6.2166,-6.1127,-6.1947,-6.1166,-5.9973,-5.8357,-5.6703,-5.578,-5.5703,-5.5703,-5.5703,-5.5703,-5.5703,-5.5703,-5.5703,-5.5703,-5.5626,-5.5511,-5.5588,-5.5549,-5.5434,-5.5472,-5.5511,-5.5434,-5.4626,-5.4318,-5.4203,-5.3356,-5.251,-5.1923,-5.2741,-5.251,-5.1923,-5.2741,-5.301,-5.3049,-5.3087,-5.3087,-5.3126,-5.3164,-5.3126,-5.301,-5.301,-5.301,-5.301,-5.301,-5.301,-5.301,-5.301,-5.301,-5.301,-5.301,-5.2346,-5.1769,-5.1731,-5.0394,-4.9009,-4.8163,0.0,0.0,-4.6692,-4.7432,-4.824,-4.9125,-5.0048,-5.0635,-5.0712,-5.0712,-5.0712,-5.0712,-5.1395,-5.1808,-5.1808,-5.2587,-5.301,-5.301,-5.2231,-5.1846,-5.1885,-5.2692,-5.2692,-5.1923,-5.2779,-5.3587,-5.4318,-5.4357,-5.4818,-5.5511,-5.5511,-5.5088,-5.4472,-5.5203,-5.4587,-5.3356,-5.4895,-5.5049,-5.4395,-5.4395,-5.4895,-5.528,-6.282,-6.4243,-6.5397,-6.5397,-6.482,-6.4512,-6.5013,-6.482,-6.4282,-6.3423,-6.4051,-6.4282,-6.3397,-6.2858,-6.2704,-6.3012,-6.1666,-6.0935,-6.1281,-6.0012,-5.8973,-5.8319,-5.6626,-5.5703,-5.5703,-5.5703,-5.5703,-5.5703,-5.5703,-5.5703,-5.5703,-5.5703,-5.5434,-5.4972,-5.5472,-5.5434,-5.4972,-5.5472,-5.5703,-5.5626,-5.4818,-5.4511,-5.4395,-5.3549,-5.301,-5.2731,-5.3087,-5.301,-5.2779,-5.3087,-5.3203,-5.328,-5.3857,-5.401,-5.4087,-5.4587,-5.4741,-5.4741,-5.4741,-5.3972,-5.3203,-5.3203,-5.3203,-5.3203,-5.3203,-5.3203,-5.3203,-5.3203,-5.2933,-5.2538,-5.2,-5.0971,-4.9933,-4.9048,0.0,-4.7663,-4.7663,-4.8355,-4.9048,-4.9356,-5.0625,-5.1433,-5.1433,-5.176,-5.2045,-5.2231,-5.2335,-5.2505,-5.2692,-5.301,-5.3433,-5.3972,-5.3703,-5.351,-5.351,-5.3857,-5.3857,-5.351,-5.4357,-5.4664,-5.4511,-5.5011,-5.5395,-5.5703,-5.5703,-5.5511,-5.528,-5.5549,-5.5318,-5.4818,-5.5434,-5.5511,-5.5241,-5.5241,-5.5434,-5.5588,-6.282,-6.4089,-6.5166,-6.5436,-6.4859,-6.4397,-6.4589,-6.482,-6.4589,-6.3474,-6.4051,-6.4282,-6.3397,-6.2589,-6.2216,-6.2435,-6.1435,-6.0935,-6.1166,-5.9627,-5.8319,-5.7511,-5.6357,-5.5703,-5.5703,-5.5703,-5.5703,-5.5703,-5.5703,-5.5703,-5.5703,-5.5703,-5.5395,-5.4895,-5.5434,-5.5395,-5.4895,-5.5472,-5.5703,-5.5665,-5.5088,-5.4895,-5.4818,-5.4203,-5.3818,-5.3626,-5.3895,-5.3818,-5.3664,-5.3895,-5.3972,-5.4087,-5.4703,-5.4895,-5.4972,-5.5549,-5.5703,-5.5703,-5.5703,-5.4857,-5.3972,-5.3972,-5.3972,-5.3972,-5.3972,-5.3972,-5.3972,-5.3972,-5.378,-5.3433,-5.2818,-5.2049,-5.1279,-5.0702,-5.0087,-4.9702,-4.9702,-5.0202,-5.0587,-5.0587,-5.1516,-5.2197,-5.2308,-5.2552,-5.2862,-5.3182,-5.3245,-5.3491,-5.3962,-5.3972,-5.4241,-5.4857,-5.4895,-5.4895,-5.4895,-5.4895,-5.4741,-5.4511,-5.5318,-5.5395,-5.4895,-5.5434,-5.5703,-5.5703,-5.5703,-5.5703,-5.5703,-5.5703,-5.5703,-5.5703,-5.5703,-5.566,-5.5554,-5.5554,-5.5508,-5.5411,-6.2101,-6.2743,-6.3589,-6.4436,-6.4589,-6.4589,-6.4589,-6.532,-6.5282,-6.3551,-6.4051,-6.4282,-6.3385,-6.2589,-6.2435,-6.3243,-6.1781,-6.1166,-6.2024,-6.0473,-5.8357,-5.5818,-5.5703,-5.5703,-5.5703,-5.5703,-5.5703,-5.5703,-5.5703,-5.5703,-5.5703,-5.5703,-5.5703,-5.5703,-5.5703,-5.5703,-5.5703,-5.5703,-5.5703,-5.5703,-5.5703,-5.5703,-5.5703,-5.5703,-5.5203,-5.4626,-5.5395,-5.5203,-5.4626,-5.5434,-5.5703,-5.5703,-5.5703,-5.5703,-5.5703,-5.5703,-5.5703,-5.5703,-5.5703,-5.5703,-5.5703,-5.5703,-5.5703,-5.5703,-5.5703,-5.5703,-5.5703,-5.5703,-5.5049,-5.4511,-5.4511,-5.378,-5.3203,-5.3203,-5.3203,-5.3203,-5.3203,-5.3203,-5.3203,-5.3203,-5.2909,-5.285,-5.3182,-5.2909,-5.2862,-5.3182,-5.401,-5.4857,-5.5665,-5.5703,-5.5703,-5.5703,-5.5703,-5.5703,-5.5703,-5.5703,-5.528,-5.4511,-5.5318,-5.5703,-5.5703,-5.5703,-5.5703,-5.5703,-5.5703,-5.5703,-5.5703,-5.5703,-5.5703,-5.5703,-5.5703,-5.552,-5.5301,-5.5301,-5.5078,-5.4851,-6.2704,-6.2666,-6.2897,-6.4359,-6.4089,-6.3897,-6.4512,-6.482,-6.4589,-6.3474,-6.3551,-6.382,-6.4166,-6.2935,-6.2666,-6.4089,-6.2666,-6.1281,-6.0319,-5.9781,-5.8896,-5.7588,-5.6934,-5.6626,-5.6599,-5.6011,-5.5703,-5.5703,-5.5703,-5.5703,-5.5703,-5.5703,-5.5703,-5.5703,-5.5703,-5.5703,-5.5703,-5.5703,-5.5703,-5.5703,-5.5703,-5.5703,-5.5703,-5.5703,-5.5549,-5.5357,-5.5588,-5.5549,-5.5395,-5.5626,-5.5703,-5.5703,-5.5703,-5.5703,-5.5703,-5.5703,-5.5703,-5.5703,-5.5703,-5.5703,-5.5703,-5.5703,-5.5703,-5.5703,-5.5703,-5.5703,-5.5703,-5.5703,-5.5511,-5.5164,-5.4587,-5.428,-5.3895,-5.3318,-5.3203,-5.3203,-5.3203,-5.3203,-5.3203,-5.3203,-5.364,-5.4013,-5.4077,-5.4376,-5.4635,-5.4923,-5.5203,-5.5434,-5.5703,-5.5703,-5.5703,-5.5703,-5.5703,-5.5626,-5.5413,-5.5626,-5.5588,-5.5318,-5.5588,-5.5703,-5.5703,-5.5703,-5.5703,-5.5703,-5.5703,-5.5703,-5.5692,-5.5485,-5.5413,-5.5401,-5.5159,-5.5023,-5.4938,-5.4938,-5.488,-5.4806,-6.2704,-6.2435,-6.2512,-6.3858,-6.3666,-6.3577,-6.4474,-6.4897,-6.4782,-6.3935,-6.382,-6.4012,-6.4551,-6.3397,-6.2974,-6.4012,-6.2858,-6.1639,-6.0589,-6.0204,-5.9781,-5.9319,-5.8473,-5.7665,-5.7022,-5.6137,-5.5703,-5.5703,-5.5703,-5.5703,-5.5703,-5.6049,-5.6011,-5.5703,-5.6049,-5.6011,-5.5703,-5.5703,-5.5703,-5.5703,-5.5703,-5.5703,-5.5703,-5.5703,-5.5703,-5.5703,-5.5703,-5.5934,-5.6214,-5.6214,-5.6434,-5.6626,-5.5934,-5.5934,-5.6214,-5.6214,-5.5972,-5.5857,-5.6549,-5.6472,-5.6214,-5.6214,-5.5972,-5.5703,-5.5703,-5.5703,-5.5703,-5.5703,-5.5703,-5.5549,-5.5049,-5.4972,-5.478,-5.428,-5.4203,-5.4203,-5.4203,-5.409,-5.4057,-5.4192,-5.4461,-5.4721,-5.4962,-5.5045,-5.5159,-5.5326,-5.5338,-5.5338,-5.5338,-5.5338,-5.5338,-5.5338,-5.5338,-5.5263,-5.5091,-5.525,-5.5425,-5.5531,-5.566,-5.5703,-5.5703,-5.5703,-5.5703,-5.5703,-5.5577,-5.5531,-5.5508,-5.5211,-5.5091,-5.5064,-5.488,-5.4716,-5.4607,-5.4607,-5.4511,-5.4413,-6.232,-6.2101,-6.2243,-6.3166,-6.3308,-6.3628,-6.4589,-6.5397,-6.5628,-6.482,-6.4666,-6.4628,-6.4705,-6.3858,-6.3346,-6.3512,-6.2704,-6.2178,-6.2101,-6.1293,-6.0781,-6.0781,-5.9973,-5.8781,-5.7253,-5.628,-5.5857,-5.5934,-5.578,-5.578,-5.5934,-5.6676,-5.6599,-5.5857,-5.6637,-5.6522,-5.5703,-5.5703,-5.5703,-5.5703,-5.5703,-5.5703,-5.5703,-5.5703,-5.5703,-5.5703,-5.5703,-5.6214,-5.6868,-5.6868,-5.7511,-5.8011,-5.6319,-5.6368,-5.7022,-5.7099,-5.6522,-5.6165,-5.7857,-5.7703,-5.7137,-5.7137,-5.6511,-5.5895,-5.5818,-5.5818,-5.5818,-5.5934,-5.5934,-5.5934,-5.5934,-5.5934,-5.5934,-5.5874,-5.5863,-5.5852,-5.583,-5.5643,-5.5543,-5.5692,-5.5246,-5.5099,-5.5566,-5.5132,-5.4791,-5.4791,-5.4867,-5.4867,-5.4791,-5.4867,-5.4867,-5.4791,-5.4791,-5.4791,-5.4761,-5.4776,-5.4952,-5.5262,-5.5497,-5.561,-5.561,-5.561,-5.561,-5.5599,-5.5364,-5.5262,-5.5236,-5.4895,-5.4761,-5.4746,-5.4716,-5.4528,-5.4282,-5.4282,-5.4054,-5.3851,-6.2935,-6.1973,-6.155,-6.3051,-6.3308,-6.382,-6.5397,-6.5782,-6.582,-6.5628,-6.5013,-6.4859,-6.5551,-6.4243,-6.3858,-6.5205,-6.3935,-6.2781,-6.2139,-6.1293,-6.0781,-6.0781,-5.9973,-5.9319,-5.8973,-5.7473,-5.7049,-5.7742,-5.6357,-5.6395,-5.7742,-5.7242,-5.6907,-5.6714,-5.6907,-5.6522,-5.5703,-5.5703,-5.5703,-5.5703,-5.5703,-5.5703,-5.5703,-5.5703,-5.5703,-5.5703,-5.5703,-5.5818,-5.5972,-5.5972,-5.7011,-5.8127,-5.7049,-5.6868,-5.7137,-5.7819,-5.7396,-5.6934,-5.8011,-5.8165,-5.8011,-5.8011,-5.7896,-5.755,-5.6868,-5.6714,-5.6907,-5.7588,-5.7742,-5.7742,-5.7742,-5.7742,-5.7636,-5.7302,-5.7264,-5.7185,-5.6896,-5.6808,-5.6565,-5.5993,-5.5814,-5.5557,-5.5019,-5.488,-5.4791,-5.4791,-5.5398,-5.5474,-5.4829,-5.5398,-5.5474,-5.4829,-5.4791,-5.467,-5.4413,-5.467,-5.4836,-5.4909,-5.4966,-5.5009,-5.5009,-5.5009,-5.5009,-5.4995,-5.4938,-5.4909,-5.488,-5.4544,-5.4397,-5.438,-5.4125,-5.3963,-5.3926,-5.3926,-5.387,-5.3794,-6.2704,-6.2012,-6.182,-6.3089,-6.3308,-6.3897,-6.5628,-6.5897,-6.5897,-6.5897,-6.5513,-6.5397,-6.5859,-6.5089,-6.4743,-6.5243,-6.3705,-6.2551,-6.2139,-6.1293,-6.0781,-6.0781,-6.0358,-6.0127,-6.0127,-5.8858,-5.8242,-5.8319,-5.7396,-5.7396,-5.828,-5.7819,-5.7396,-5.6983,-5.6983,-5.6753,-5.6291,-5.5857,-5.5934,-5.6291,-5.5857,-5.5703,-5.5703,-5.5703,-5.5972,-5.6329,-5.6329,-5.6819,-5.7511,-5.7511,-5.8396,-5.9281,-5.8011,-5.7896,-5.828,-5.8742,-5.828,-5.7896,-5.9165,-5.9204,-5.8858,-5.8858,-5.8765,-5.8474,-5.7796,-5.7627,-5.7742,-5.8204,-5.8138,-5.8016,-5.8016,-5.7864,-5.7718,-5.7511,-5.7443,-5.7384,-5.7239,-5.704,-5.6857,-5.6601,-5.6436,-5.6166,-5.5751,-5.5713,-5.5647,-5.5515,-5.5911,-5.5948,-5.5535,-5.5911,-5.5948,-5.5535,-5.5498,-5.541,-5.5249,-5.5448,-5.5498,-5.5515,-5.5016,-5.4791,-5.4791,-5.5208,-5.517,-5.4829,-5.5038,-5.4937,-5.4528,-5.4213,-5.4054,-5.4035,-5.387,-5.3794,-5.3794,-5.3794,-5.3794,-5.3794,-6.2216,-6.2101,-6.2332,-6.2974,-6.332,-6.4012,-6.5474,-6.5782,-6.5897,-6.5897,-6.5897,-6.5897,-6.5897,-6.5782,-6.5282,-6.4243,-6.3012,-6.2332,-6.2332,-6.1512,-6.1012,-6.1012,-6.0858,-6.0781,-6.0781,-6.0089,-5.9396,-5.8742,-5.8434,-5.8357,-5.8511,-5.8357,-5.7819,-5.6983,-5.6983,-5.6983,-5.6945,-5.6049,-5.628,-5.7137,-5.628,-5.6011,-5.6126,-5.6126,-5.6588,-5.7214,-5.7214,-5.8204,-5.9473,-5.9358,-5.9973,-6.0512,-5.8973,-5.8973,-5.9511,-5.9665,-5.9127,-5.8858,-6.0358,-6.0281,-5.9692,-5.9646,-5.9435,-5.9112,-5.8641,-5.8448,-5.8371,-5.8525,-5.831,-5.8058,-5.8058,-5.784,-5.7624,-5.7559,-5.7543,-5.7527,-5.7461,-5.7203,-5.7094,-5.7239,-5.6865,-5.6648,-5.6648,-5.6648,-5.6557,-5.6303,-5.6432,-5.6469,-5.632,-5.6432,-5.6432,-5.632,-5.632,-5.632,-5.632,-5.632,-5.632,-5.6283,-5.5437,-5.5076,-5.5076,-5.574,-5.5665,-5.506,-5.5477,-5.5168,-5.44,-5.4112,-5.3943,-5.3794,-5.3794,-5.3794,-5.3831,-5.3943,-5.4017,-5.4017,-6.2139,-6.2101,-6.2139,-6.2243,-6.3474,-6.4512,-6.4743,-6.5436,-6.5897,-6.5897,-6.5897,-6.5897,-6.5897,-6.5243,-6.4128,-6.2563,-6.2858,-6.3128,-6.3128,-6.2358,-6.1908,-6.1908,-6.1204,-6.0781,-6.0781,-6.0666,-6.055,-6.0473,-5.9011,-5.8665,-5.9319,-5.8627,-5.7819,-5.6983,-5.6983,-5.6983,-5.6945,-5.6049,-5.6626,-5.805,-5.7176,-5.728,-5.7934,-5.7934,-5.8011,-5.8127,-5.8127,-5.8704,-5.9396,-5.8704,-5.9511,-6.0627,-5.9665,-5.9396,-5.9665,-6.0396,-6.0012,-5.955,-6.0512,-6.0704,-6.0541,-6.0263,-6.0168,-6.0046,-5.9695,-5.9026,-5.8669,-5.9444,-5.9564,-5.9533,-5.9533,-5.9501,-5.9332,-5.9004,-5.8932,-5.8822,-5.853,-5.8466,-5.8206,-5.7538,-5.6811,-5.6362,-5.6362,-5.6362,-5.6343,-5.6283,-5.6952,-5.7026,-5.6357,-5.6952,-5.7026,-5.632,-5.632,-5.632,-5.632,-5.632,-5.632,-5.6283,-5.6159,-5.6105,-5.6105,-5.6217,-5.618,-5.6105,-5.6159,-5.5693,-5.4911,-5.4854,-5.4426,-5.3794,-5.3794,-5.3794,-5.3868,-5.4574,-5.4834,-5.4946,-6.1358,-6.1358,-6.1666,-6.2589,-6.3397,-6.4205,-6.5166,-6.5628,-6.5897,-6.5897,-6.5897,-6.5897,-6.5897,-6.4705,-6.3589,-6.282,-6.2666,-6.2627,-6.2627,-6.2293,-6.2293,-6.2743,-6.1512,-6.1012,-6.1524,-6.105,-6.0781,-6.0781,-6.005,-5.9896,-6.0204,-5.9358,-5.8781,-5.8396,-5.7934,-5.7973,-5.8319,-5.7511,-5.7857,-5.8896,-5.805,-5.7973,-5.8319,-5.8319,-5.8588,-5.905,-5.9511,-5.9935,-6.0165,-5.9819,-6.0204,-6.0742,-6.0358,-6.0242,-6.0281,-6.0704,-6.0512,-6.0319,-6.0704,-6.0647,-6.0494,-6.0335,-5.9992,-5.9673,-5.9502,-5.9364,-5.9402,-5.9727,-5.9605,-5.9467,-5.9467,-5.9326,-5.9121,-5.8927,-5.8908,-5.8865,-5.8719,-5.8698,-5.8586,-5.8215,-5.7881,-5.7658,-5.7658,-5.7658,-5.7658,-5.7658,-5.7992,-5.8029,-5.7658,-5.7992,-5.8029,-5.7658,-5.7658,-5.7658,-5.7658,-5.7658,-5.7658,-5.7658,-5.7658,-5.7175,-5.632,-5.6766,-5.6729,-5.632,-5.6766,-5.6209,-5.502,-5.502,-5.4537,-5.3794,-5.3794,-5.3794,-5.3905,-5.4723,-5.502,-5.5131]},{"header":{"parameterUnit":"m.s-1","parameterCategory":1,"la1":30.6,"la2":28.766,"lo1":-90.7593,"lo2":-88.6598,"dy":0.0162,"dx":0.0183,"nx":116,"ny":114,"refTime":"2024-03-28T06:00:00:Z","depth":0,"parameterNumber":3,"parameterNumberName":"V-component_of_WINDS"},"data":[0.0,0.0,0.0,0.0,0.0,0.0,0.0,0.0,0.0,0.0,0.0,0.0,0.0,0.0,0.0,0.0,0.0,0.0,0.0,0.0,0.0,0.0,0.0,0.0,0.0,0.0,0.0,0.0,0.0,0.0,0.0,0.0,0.0,0.0,0.0,0.0,0.0,0.0,0.0,0.0,0.0,0.0,0.0,0.0,0.0,0.0,0.0,0.0,0.0,0.0,0.0,0.0,0.0,0.0,0.0,0.0,0.0,0.0,0.0,0.0,0.0,0.0,0.0,0.0,0.0,0.0,0.0,0.0,0.0,0.0,0.0,0.0,0.0,0.0,0.0,0.0,0.0,0.0,0.0,0.0,0.0,0.0,0.0,0.0,0.0,0.0,0.0,0.0,0.0,0.0,0.0,0.0,0.0,0.0,0.0,0.0,0.0,0.0,0.0,0.0,0.0,0.0,0.0,0.0,0.0,0.0,0.0,0.0,0.0,0.0,0.0,0.0,0.0,0.0,0.0,0.0,0.0,0.0,0.0,0.0,0.0,0.0,0.0,0.0,0.0,0.0,0.0,0.0,0.0,0.0,0.0,0.0,0.0,0.0,0.0,0.0,0.0,0.0,0.0,0.0,0.0,0.0,0.0,0.0,0.0,0.0,0.0,0.0,0.0,0.0,0.0,0.0,0.0,0.0,0.0,0.0,0.0,0.0,0.0,0.0,0.0,0.0,0.0,0.0,0.0,0.0,0.0,0.0,0.0,0.0,0.0,0.0,0.0,0.0,0.0,0.0,0.0,0.0,0.0,0.0,0.0,0.0,0.0,0.0,0.0,0.0,0.0,0.0,0.0,0.0,0.0,0.0,0.0,0.0,0.0,0.0,0.0,0.0,0.0,0.0,0.0,0.0,0.0,0.0,0.0,0.0,0.0,0.0,0.0,0.0,0.0,0.0,0.0,0.0,0.0,0.0,0.0,0.0,0.0,0.0,0.0,0.0,0.0,0.0,0.0,0.0,0.0,0.0,0.0,0.0,0.0,0.0,0.0,0.0,0.0,0.0,0.0,0.0,0.0,0.0,0.0,0.0,0.0,0.0,0.0,0.0,0.0,0.0,0.0,0.0,0.0,0.0,0.0,0.0,0.0,0.0,0.0,0.0,0.0,0.0,0.0,0.0,0.0,0.0,0.0,0.0,0.0,0.0,0.0,0.0,0.0,0.0,0.0,0.0,0.0,0.0,0.0,0.0,0.0,0.0,0.0,0.0,0.0,0.0,0.0,0.0,0.0,0.0,0.0,0.0,0.0,0.0,0.0,0.0,0.0,0.0,0.0,0.0,0.0,0.0,0.0,0.0,0.0,0.0,0.0,0.0,0.0,0.0,0.0,0.0,0.0,0.0,0.0,0.0,0.0,0.0,0.0,0.0,0.0,0.0,0.0,0.0,0.0,0.0,0.0,0.0,0.0,0.0,0.0,0.0,0.0,0.0,0.0,0.0,0.0,0.0,0.0,0.0,0.0,0.0,0.0,0.0,0.0,0.0,0.0,0.0,0.0,0.0,0.0,0.0,0.0,0.0,0.0,0.0,0.0,0.0,0.0,0.0,0.0,0.0,0.0,0.0,0.0,0.0,0.0,0.0,0.0,0.0,0.0,0.0,0.0,0.0,0.0,0.0,0.0,0.0,0.0,0.0,0.0,0.0,0.0,0.0,0.0,0.0,0.0,0.0,0.0,0.0,0.0,0.0,0.0,0.0,0.0,0.0,0.0,0.0,0.0,0.0,0.0,0.0,0.0,0.0,0.0,0.0,0.0,0.0,0.0,0.0,0.0,0.0,0.0,0.0,0.0,0.0,0.0,0.0,0.0,0.0,0.0,0.0,0.0,0.0,0.0,0.0,0.0,0.0,0.0,0.0,0.0,0.0,0.0,0.0,0.0,0.0,0.0,0.0,0.0,0.0,0.0,0.0,0.0,0.0,0.0,0.0,0.0,0.0,0.0,0.0,0.0,0.0,0.0,0.0,0.0,0.0,0.0,0.0,0.0,0.0,0.0,0.0,0.0,0.0,0.0,0.0,0.0,0.0,0.0,0.0,0.0,0.0,0.0,0.0,0.0,0.0,0.0,0.0,0.0,0.0,0.0,0.0,0.0,0.0,0.0,0.0,0.0,0.0,0.0,0.0,0.0,0.0,0.0,0.0,0.0,0.0,0.0,0.0,0.0,0.0,0.0,0.0,0.0,0.0,0.0,0.0,0.0,0.0,0.0,0.0,0.0,0.0,0.0,0.0,0.0,0.0,0.0,0.0,0.0,0.0,0.0,0.0,0.0,0.0,0.0,0.0,0.0,0.0,0.0,0.0,0.0,0.0,0.0,0.0,0.0,0.0,0.0,0.0,0.0,0.0,0.0,0.0,0.0,0.0,0.0,0.0,0.0,0.0,0.0,0.0,0.0,0.0,0.0,0.0,0.0,0.0,0.0,0.0,0.0,0.0,0.0,0.0,0.0,0.0,0.0,0.0,0.0,0.0,0.0,0.0,0.0,0.0,0.0,0.0,0.0,0.0,0.0,0.0,0.0,0.0,0.0,0.0,0.0,0.0,0.0,0.0,0.0,0.0,0.0,0.0,0.0,0.0,0.0,0.0,0.0,0.0,0.0,0.0,0.0,0.0,0.0,0.0,0.0,0.0,0.0,0.0,0.0,0.0,0.0,0.0,0.0,0.0,0.0,0.0,0.0,0.0,0.0,0.0,0.0,0.0,0.0,0.0,0.0,0.0,0.0,0.0,0.0,0.0,0.0,0.0,0.0,0.0,0.0,0.0,0.0,0.0,0.0,0.0,0.0,0.0,0.0,0.0,0.0,0.0,0.0,0.0,0.0,0.0,0.0,0.0,0.0,0.0,0.0,0.0,0.0,0.0,0.0,0.0,0.0,0.0,0.0,0.0,0.0,0.0,0.0,0.0,0.0,0.0,0.0,0.0,0.0,0.0,0.0,0.0,0.0,0.0,0.0,0.0,0.0,0.0,0.0,0.0,0.0,0.0,0.0,0.0,0.0,0.0,0.0,0.0,0.0,0.0,0.0,0.0,0.0,0.0,0.0,0.0,0.0,0.0,0.0,0.0,0.0,0.0,0.0,0.0,0.0,0.0,0.0,0.0,0.0,0.0,0.0,0.0,0.0,0.0,0.0,0.0,0.0,0.0,0.0,0.0,0.0,0.0,0.0,0.0,0.0,0.0,0.0,0.0,0.0,0.0,0.0,0.0,0.0,0.0,0.0,0.0,0.0,0.0,0.0,0.0,0.0,0.0,0.0,0.0,0.0,0.0,0.0,0.0,0.0,0.0,0.0,0.0,0.0,0.0,0.0,0.0,0.0,0.0,0.0,0.0,0.0,0.0,0.0,0.0,0.0,0.0,0.0,0.0,0.0,0.0,0.0,0.0,0.0,0.0,0.0,0.0,0.0,0.0,0.0,0.0,0.0,0.0,0.0,0.0,0.0,0.0,0.0,0.0,0.0,0.0,0.0,0.0,0.0,0.0,0.0,0.0,0.0,0.0,0.0,0.0,0.0,0.0,0.0,0.0,0.0,0.0,0.0,0.0,0.0,0.0,0.0,0.0,0.0,0.0,0.0,0.0,0.0,0.0,0.0,0.0,0.0,0.0,0.0,0.0,0.0,0.0,0.0,0.0,0.0,0.0,0.0,0.0,0.0,0.0,0.0,0.0,0.0,0.0,0.0,0.0,0.0,0.0,0.0,0.0,0.0,0.0,0.0,0.0,0.0,0.0,0.0,0.0,0.0,0.0,0.0,0.0,0.0,0.0,0.0,0.0,0.0,0.0,0.0,0.0,0.0,0.0,0.0,0.0,0.0,0.0,0.0,0.0,0.0,0.0,0.0,0.0,0.0,0.0,0.0,0.0,0.0,0.0,0.0,0.0,0.0,0.0,0.0,0.0,0.0,0.0,0.0,0.0,0.0,0.0,0.0,0.0,0.0,0.0,0.0,0.0,0.0,0.0,0.0,0.0,0.0,0.0,0.0,0.0,0.0,0.0,0.0,0.0,0.0,0.0,0.0,0.0,0.0,0.0,0.0,0.0,0.0,0.0,0.0,0.0,0.0,0.0,0.0,0.0,0.0,0.0,0.0,0.0,0.0,0.0,0.0,0.0,0.0,0.0,0.0,0.0,0.0,0.0,0.0,0.0,0.0,0.0,0.0,0.0,0.0,0.0,0.0,0.0,0.0,0.0,0.0,0.0,0.0,0.0,0.0,0.0,0.0,0.0,0.0,0.0,0.0,0.0,0.0,0.0,0.0,0.0,0.0,0.0,0.0,0.0,0.0,0.0,0.0,0.0,0.0,0.0,0.0,0.0,0.0,0.0,0.0,0.0,0.0,0.0,0.0,0.0,0.0,0.0,0.0,0.0,0.0,0.0,0.0,0.0,0.0,0.0,0.0,0.0,0.0,0.0,0.0,0.0,0.0,0.0,0.0,0.0,0.0,0.0,0.0,0.0,0.0,0.0,0.0,0.0,0.0,0.0,0.0,0.0,0.0,0.0,0.0,0.0,0.0,0.0,0.0,0.0,0.0,0.0,0.0,0.0,0.0,0.0,0.0,0.0,0.0,0.0,0.0,0.0,0.0,0.0,0.0,0.0,0.0,0.0,0.0,0.0,0.0,0.0,0.0,0.0,0.0,0.0,0.0,0.0,0.0,0.0,0.0,0.0,0.0,0.0,0.0,0.0,0.0,0.0,0.0,0.0,0.0,0.0,0.0,0.0,0.0,0.0,0.0,0.0,0.0,0.0,0.0,0.0,0.0,0.0,0.0,0.0,0.0,0.0,0.0,0.0,0.0,0.0,0.0,0.0,0.0,0.0,0.0,0.0,0.0,0.0,0.0,0.0,0.0,0.0,0.0,0.0,0.0,0.0,0.0,0.0,0.0,0.0,0.0,0.0,0.0,0.0,0.0,0.0,0.0,0.0,0.0,0.0,0.0,0.0,0.0,0.0,0.0,0.0,0.0,0.0,0.0,0.0,0.0,0.0,0.0,0.0,0.0,0.0,0.0,0.0,0.0,0.0,0.0,0.0,0.0,0.0,0.0,0.0,0.0,0.0,0.0,0.0,0.0,0.0,0.0,0.0,0.0,0.0,0.0,0.0,0.0,0.0,0.0,0.0,0.0,0.0,0.0,0.0,0.0,0.0,0.0,0.0,0.0,0.0,0.0,0.0,0.0,0.0,0.0,0.0,0.0,0.0,0.0,0.0,0.0,0.0,0.0,0.0,0.0,0.0,0.0,0.0,0.0,0.0,0.0,0.0,0.0,0.0,0.0,0.0,0.0,0.0,0.0,0.0,0.0,0.0,0.0,0.0,0.0,0.0,0.0,0.0,0.0,0.0,0.0,0.0,0.0,0.0,0.0,0.0,0.0,0.0,0.0,0.0,0.0,0.0,0.0,0.0,0.0,0.0,0.0,0.0,0.0,0.0,0.0,0.0,0.0,0.0,0.0,0.0,0.0,0.0,0.0,0.0,0.0,0.0,0.0,0.0,0.0,0.0,0.0,0.0,0.0,0.0,0.0,0.0,0.0,0.0,0.0,0.0,0.0,0.0,0.0,0.0,0.0,0.0,0.0,0.0,0.0,0.0,0.0,0.0,0.0,0.0,0.0,0.0,0.0,0.0,0.0,0.0,0.0,0.0,0.0,0.0,0.0,0.0,0.0,0.0,0.0,0.0,0.0,0.0,0.0,0.0,0.0,0.0,0.0,0.0,0.0,0.0,0.0,0.0,0.0,0.0,0.0,0.0,0.0,0.0,0.0,0.0,0.0,0.0,0.0,0.0,0.0,0.0,0.0,0.0,0.0,0.0,0.0,0.0,0.0,0.0,0.0,0.0,0.0,0.0,0.0,0.0,0.0,0.0,0.0,0.0,0.0,0.0,0.0,0.0,0.0,0.0,0.0,0.0,0.0,0.0,0.0,0.0,0.0,0.0,0.0,0.0,0.0,0.0,0.0,0.0,0.0,0.0,0.0,0.0,0.0,0.0,0.0,0.0,0.0,0.0,0.0,0.0,0.0,0.0,0.0,0.0,0.0,0.0,0.0,0.0,0.0,0.0,0.0,0.0,0.0,0.0,0.0,0.0,0.0,0.0,0.0,0.0,0.0,0.0,0.0,0.0,0.0,0.0,0.0,0.0,0.0,0.0,0.0,0.0,0.0,0.0,0.0,0.0,0.0,0.0,0.0,0.5266,0.5197,0.5197,0.4934,0.4756,0.4756,0.0,0.0,0.0,0.0,0.0,0.4934,0.5044,0.5265,0.5606,0.5792,0.6333,0.7233,0.7213,0.7285,0.744,0.0,0.0,0.0,0.0,0.0,0.0,0.0,0.0,0.0,0.0,0.0,0.0,0.0,0.0,0.0,0.0,0.0,0.0,0.0,0.0,0.0,0.0,0.0,0.0,0.0,0.0,0.0,0.0,0.0,0.0,0.0,0.0,0.0,0.0,0.0,0.0,0.0,0.0,0.0,0.0,0.0,0.0,0.0,0.0,0.0,0.0,0.0,0.0,0.0,0.0,0.0,0.0,0.0,0.0,0.0,0.0,0.0,0.0,0.0,0.0,0.0,0.0,0.0,0.0,0.0,0.0,0.0,0.0,0.0,0.0,0.0,0.0,0.0,0.0,0.0,0.0,0.0,0.0,0.0,0.0,0.0,0.0,0.0,0.0,0.0,0.0,0.0,0.0,0.0,0.0,0.0,0.0,0.0,0.5426,0.5635,0.5464,0.5334,0.5319,0.4993,0.4774,0.4774,0.4674,0.0,0.0,0.4765,0.4936,0.5094,0.5292,0.5519,0.5749,0.6341,0.7142,0.8171,0.8643,0.8627,0.8224,0.8097,0.0,0.0,0.0,0.0,0.0,0.0,0.0,0.0,0.0,0.0,0.0,0.0,0.0,0.0,0.0,0.0,0.0,0.0,0.0,0.0,0.0,0.0,0.0,0.0,0.0,0.0,0.0,0.0,0.0,0.0,0.0,0.0,0.0,0.0,0.0,0.0,0.0,0.0,0.0,0.0,0.0,0.0,0.0,0.0,0.0,0.0,0.0,0.0,0.0,0.0,0.0,0.0,0.0,0.0,0.0,0.0,0.0,0.0,0.0,0.0,0.0,0.0,0.0,0.0,0.0,0.0,0.0,0.0,0.0,0.0,0.0,0.0,0.0,0.0,0.0,0.0,0.0,0.0,0.0,0.0,0.0,0.0,0.0,0.0,0.0,0.0,0.0,0.0,0.0,0.0,0.0,0.0,0.5891,0.5861,0.5892,0.5874,0.5827,0.561,0.5467,0.5467,0.5443,0.5443,0.5443,0.5472,0.55,0.5528,0.5727,0.602,0.6379,0.773,0.8618,0.9121,0.9881,1.0286,1.0341,0.9071,0.8832,0.931,0.0,0.0,0.0,0.0,0.0,0.0,0.0,0.0,0.0,0.0,0.0,0.0,0.0,0.0,0.0,0.0,0.0,0.0,0.0,0.0,0.0,0.0,0.0,0.0,0.0,0.0,0.0,0.0,0.0,0.0,0.0,0.0,0.0,0.0,0.0,0.0,0.0,0.0,0.0,0.0,0.0,0.0879,0.0729,0.0,0.0,0.0,0.0,0.0,0.0,0.0,0.0,0.0,0.0,0.0,0.0,0.0,0.0,0.0,0.0,0.0,0.0,0.0,0.0,0.0,0.0,0.0,0.0,0.0,0.0,0.0,0.0,0.0,0.0,0.0,0.0,0.0,0.0,0.0,0.0,0.0,0.0,0.0,0.0,0.0,0.0,0.0,0.0,0.0,0.0,0.0,0.0,0.0,0.6463,0.6545,0.6674,0.6895,0.6747,0.6134,0.635,0.6218,0.5632,0.5717,0.5774,0.5774,0.6182,0.6897,0.7894,0.9044,0.9856,1.0386,1.0943,1.1231,1.1173,1.0509,1.0161,1.0024,0.9408,0.0,0.0,0.0,0.0,0.0,0.0,0.0,0.0,0.0,0.0,0.0,0.0,0.0,0.0,0.0,0.0,0.0,0.0,0.0,0.0,0.0,0.0,0.0,0.0,0.0,0.0,0.0,0.0,0.0,0.0,0.0,0.0,0.0,0.0,0.0,0.0,0.0,0.0,0.0,0.0843,0.0777,0.0762,0.0725,0.0658,0.0,0.0,0.0,0.0,0.0,0.0,0.0,0.0,0.0,0.0,0.0,0.0,0.0,0.0,0.0,0.0,0.0,0.0,0.0,0.0,0.0,0.0,0.0,0.0,0.0,0.0,0.0,0.0,0.0,0.0,0.0,0.0,0.0,-0.0033,0.0,0.0,0.0,0.0,0.0,0.0,0.0,0.0,0.0,0.0,0.0,0.0,0.691,0.7253,0.7512,0.7716,0.8064,0.7862,0.6953,0.71,0.6796,0.5862,0.6012,0.6097,0.6067,0.6868,0.795,0.9346,1.0234,1.0962,1.152,1.1945,1.2058,1.1917,1.186,1.1414,1.0731,1.0272,0.9838,0.9462,0.0,0.0,0.0,0.0,0.0,0.0,0.0,0.0,0.0,0.0,0.0,0.0,0.0,0.0,0.0,0.0,0.0,0.0,0.0,0.0,0.0,0.0,0.0,0.0,0.0,0.0,0.0,0.0,0.0,0.0,0.0,0.0,0.0,0.0,0.0,0.0,0.0,0.082,0.0736,0.073,0.06,0.0498,0.0,0.0,0.0,0.0,0.0,0.0,0.0,0.0,0.0,0.0,0.0,0.0,0.0,0.0,0.0,0.0,0.0,0.0,0.0,0.0,0.0,0.0,0.0,0.0,0.0,0.0,0.0,0.0,0.0,0.0,0.0,0.0,-0.0037,-0.0112,0.0,0.0,0.0,0.0,0.0,0.0,0.0,0.0,0.0,0.0,0.0,0.7209,0.7431,0.8325,0.8898,0.8923,0.876,0.8477,0.8033,0.7508,0.6986,0.6473,0.6632,0.6651,0.6473,0.7881,0.9138,1.0216,1.1236,1.1964,1.2335,1.2805,1.306,1.3032,1.2842,1.2423,1.175,1.0663,1.0275,1.0343,0.8943,0.0,0.0,0.0,0.0,0.0,0.0,0.0,0.0,0.0,0.0,0.0,0.0,0.0,0.0,0.0,0.0,0.0,0.0,0.0,0.0,0.0,0.0,0.0,0.0,0.0,0.0,0.0,0.0,0.0,0.0,0.0,0.0,0.0,0.0,0.0,0.0,0.0,0.0,0.0527,0.0545,0.0,0.0,0.0,0.0,0.0036,0.0,0.0,0.0,0.0,0.0,0.0,0.0,0.0,0.0,0.0,0.0,0.0,0.0,0.0,0.0,0.0,0.0,0.0,0.0,0.0,0.0,0.0,0.0,0.0,0.0,0.0,0.0,0.0,-0.0162,-0.0365,0.0,0.0,0.0,0.0,0.0,0.5406,0.5153,0.5237,0.5459,0.5787,0.6523,0.7376,0.8366,0.9153,0.9878,1.0445,1.0496,1.0225,0.9577,0.8779,0.8051,0.7362,0.7,0.716,0.791,0.8968,1.0083,1.1264,1.2172,1.2767,1.306,1.3334,1.34,1.3277,1.3334,1.3117,1.2592,1.1619,1.0955,1.0448,0.9562,0.893,0.0,0.0,0.0,0.0,0.0,0.0,0.0,0.0,0.0,0.0,0.0,0.0,0.0,0.0,0.0,0.0,0.0,0.0,0.0,0.0,0.0,0.0,0.0,0.0,0.0,0.0,0.0,0.0,0.0,0.0,0.0,0.0,0.0,0.0,0.0,0.0,0.0,0.031,0.0254,0.0,0.0,0.0081,0.0082,0.0,0.0,0.0,0.0,0.0,0.0,0.0,0.0,0.0,0.0,0.0,0.0,0.0,0.0,0.0,0.0,0.0,0.0,0.0,0.0,0.0,0.0,0.0,0.0,0.0,0.0,0.0,0.0,-0.0184,-0.032,-0.0452,0.0,0.0,0.0,0.0,0.5797,0.5437,0.5264,0.529,0.5494,0.5914,0.6791,0.7861,0.9052,1.0065,1.0941,1.1511,1.1544,1.1132,1.027,0.9318,0.8439,0.7641,0.7371,0.7853,0.91,0.9985,1.0953,1.2134,1.2833,1.3287,1.3495,1.3627,1.3618,1.3495,1.3627,1.3495,1.3174,1.252,1.1737,1.0856,1.0018,0.9459,0.9114,0.0,0.0,0.0,0.0,0.0,0.0,0.0,0.0,0.0,0.0,0.0,0.0,0.0,0.0,0.0,0.0,0.0,0.0,0.0,0.0,0.0,0.0,0.0,0.0,0.0,0.0,0.0,0.0,0.0,0.0,0.0,0.0,0.0,0.0,0.0,0.0216,0.0213,0.0093,0.0,0.0,0.0,0.0,0.0,0.0,0.0,0.0,0.0,0.0,0.0,0.0,0.0,0.0,0.0,0.0,0.0,0.0,0.0,0.0,0.0,0.0,0.0,0.0,0.0,0.0,0.0,0.0,0.0,0.0,-0.0051,-0.0151,-0.0351,-0.0546,-0.0784,0.0,0.0,0.0,0.6322,0.5858,0.5498,0.5498,0.5546,0.568,0.5886,0.7356,0.8699,0.9456,1.0977,1.2047,1.2124,1.1714,1.1075,1.0089,0.8996,0.8051,0.7261,0.783,0.8751,1.0004,1.0811,1.1746,1.2842,1.3202,1.3495,1.3693,1.3693,1.3693,1.3693,1.3693,1.358,1.3381,1.3164,1.2606,1.1737,1.0246,0.9813,0.9942,0.0,0.0,0.0,0.0,0.0,0.0,0.0,0.0,0.0,0.0,0.0,0.0,0.0,0.0,0.0,0.0,0.0,0.0,0.0,0.0,0.0,0.0,0.0,0.0,0.0,0.0,0.0,0.0,0.0,0.0,0.0,0.0,0.0,0.076,0.0444,0.0194,0.028,0.0103,0.0,0.0,0.0,0.0,0.0,0.0,0.0,0.0,0.0,0.0,0.0,0.0,0.0,0.0,0.0,0.0,0.0,0.0,0.0,0.0,0.0,0.0,0.0,0.0,0.0,0.0,0.0,0.0,0.0,0.0,-0.0163,-0.0426,-0.0419,-0.0779,-0.1343,0.0,0.0,0.646,0.6322,0.5858,0.5498,0.5498,0.5389,0.5533,0.6183,0.739,0.8714,1.006,1.1199,1.2068,1.254,1.1935,1.1264,1.0679,0.9374,0.8448,0.808,0.8807,0.9734,1.083,1.1671,1.2465,1.3221,1.3476,1.3636,1.3693,1.3693,1.3693,1.3693,1.3693,1.3655,1.3589,1.3391,1.3164,1.2843,1.1529,1.0592,0.999,0.0,0.0,0.0,0.0,0.0,0.0,0.0,0.0,0.0,0.0,0.0,0.0,0.0,0.0,0.0,0.0,0.0,0.0,0.0,0.0,0.0,0.0,0.0,0.0,0.0,0.0,0.0,0.0,0.0,0.0,0.0,0.0,0.0611,0.0659,0.0328,0.005,0.0106,0.0055,0.0,0.0,0.0,0.0,0.0,0.0,0.0,0.0,0.0,0.0,0.0,0.0,0.0,0.0,0.0,0.0,0.0,0.0,0.0,0.0,0.0,0.0,0.0,0.0,0.0,0.0,0.0,0.0,0.0,0.0,-0.0166,-0.0434,-0.064,-0.1041,-0.1525,0.0,0.6627,0.646,0.6322,0.5858,0.5498,0.5498,0.5424,0.5658,0.6468,0.7618,0.8933,1.0254,1.1189,1.1775,1.1964,1.1378,1.0669,0.9904,0.8968,0.8581,0.8872,0.9682,1.0604,1.169,1.2361,1.2909,1.3336,1.3567,1.3624,1.3504,1.3624,1.3693,1.3693,1.3693,1.3693,1.3684,1.3561,1.3466,1.3325,1.2597,1.1775,1.0982,1.0603,1.0082,0.9434,0.9242,0.9048,0.8732,0.8033,0.0,0.0,0.0,0.0,0.0,0.0,0.0,0.0,0.0,0.0,0.0,0.0,0.0,0.0,0.0,0.0,0.0,0.0,0.0,0.0,0.0,0.0,0.0,0.0,0.1181,0.0649,0.0726,0.0319,0.0,0.0,0.0,0.0,0.0,0.0,0.0,0.0,0.0,0.0,0.0,0.0,0.0,0.0,0.0,0.0,0.0,0.0,0.0,0.0,0.0,0.0,0.0,0.0,0.0,0.0,0.0,0.0,0.0,0.0,0.0,0.0,0.0,0.0,0.0,0.0,-0.1205,-0.1429,0.0,0.6627,0.646,0.6322,0.5889,0.5531,0.5514,0.5555,0.5865,0.6659,0.7884,0.9083,1.0063,1.0847,1.1198,1.0858,1.0423,0.9686,0.8543,0.8316,0.8685,0.97,1.0594,1.1501,1.2438,1.2862,1.314,1.3204,1.3444,1.3444,1.3204,1.3504,1.3693,1.3693,1.3693,1.3693,1.3693,1.3693,1.3589,1.3429,1.3429,1.3032,1.2288,1.1416,1.1038,1.0924,1.0355,0.9781,0.9286,0.8987,0.0,0.0,0.0,0.0,0.0,0.0,0.0,0.0,0.0,0.0,0.0,0.0,0.0,0.0,0.0,0.0,0.0,0.0,0.0,0.0,0.0,0.0,0.0,0.0,0.1677,0.0833,0.0902,0.0426,0.0061,0.0,0.0,0.0,0.0,0.0,0.0,0.0,0.0,0.0,0.0,0.0,0.0,0.0,0.0,0.0,0.0,0.0,0.0,0.0,0.0,0.0,0.0,0.0,0.0,0.0,0.0,0.0,0.0,0.0,0.0,0.0,-0.0056,-0.0168,-0.0445,-0.1025,-0.1212,-0.1188,0.0,0.6627,0.646,0.6322,0.6044,0.575,0.5531,0.5504,0.5751,0.638,0.7351,0.8306,0.916,0.9851,1.0336,1.0431,0.9847,0.9337,0.893,0.9015,0.9554,1.0612,1.1453,1.2228,1.2928,1.3119,1.3182,1.3204,1.2964,1.3024,1.3204,1.3264,1.3444,1.3693,1.3693,1.3693,1.3693,1.3693,1.3665,1.3627,1.3627,1.3154,1.2363,1.2165,1.1935,1.1576,1.1123,1.1208,1.1328,1.0329,0.9867,0.9573,0.8684,0.0,0.0,0.0,0.0,0.0,0.0,0.0,0.0,0.0,0.0,0.0,0.0,0.0,0.0,0.0,0.0,0.0,0.0,0.0,0.0,0.3293,0.2133,0.1184,0.101,0.0643,0.0321,0.0063,0.0,0.0,0.0,0.0,0.0,0.0,0.0,0.0,0.0,0.0,0.0,0.0,0.0,0.0,0.0,0.0,0.0,0.0,0.0,0.0,0.0,0.0,0.0,0.0,0.0,0.0,0.0,0.0,0.0,0.0,-0.0225,-0.0331,-0.0431,-0.0856,-0.094,-0.0913,0.0,0.672,0.6583,0.6337,0.6075,0.5812,0.5545,0.5498,0.5661,0.6133,0.6832,0.754,0.8238,0.866,0.8865,0.8761,0.8325,0.827,0.8826,0.9346,1.0197,1.1463,1.2219,1.2843,1.3372,1.3401,1.3264,1.2964,1.3144,1.3084,1.2964,1.3264,1.3564,1.3693,1.3693,1.3693,1.3693,1.3693,1.3693,1.3693,1.3693,1.3381,1.2918,1.2918,1.2654,1.2266,1.2058,1.1983,1.1817,1.1142,1.0688,1.0241,0.9486,0.8436,0.735,0.0,0.0,0.0,0.0,0.0,0.0,0.0,0.0,0.0,0.0,0.0,0.0,0.0,0.0,0.5873,0.5254,0.0,0.3974,0.3332,0.2239,0.1371,0.1092,0.0723,0.0397,0.0065,0.0,0.0,0.0,0.0,0.0,0.0,0.0,0.0,0.0,0.0,0.0,0.0,0.0,0.0,0.0,0.0,0.0,0.0,0.0,0.0,0.0,0.0,0.0,0.0,0.0,0.0,0.0,0.0,0.0,0.0,-0.0168,-0.0222,-0.0219,-0.0542,-0.0748,-0.0893,0.0,0.6796,0.669,0.6369,0.6122,0.5874,0.5561,0.5494,0.5593,0.5884,0.6299,0.6738,0.7228,0.7368,0.7318,0.6976,0.6984,0.7489,0.8685,0.9672,1.0773,1.22,1.2814,1.3306,1.3684,1.3624,1.3324,1.2784,1.3264,1.3264,1.2784,1.3324,1.3624,1.3693,1.3693,1.3693,1.3693,1.3693,1.3693,1.3684,1.3646,1.3532,1.3381,1.3343,1.3117,1.287,1.2691,1.2266,1.1728,1.1479,1.0962,1.0364,0.9992,0.9182,0.8255,0.7576,0.7141,0.0,0.0,0.0,0.0,0.0,0.0,0.0,0.0,0.0,0.6035,0.6214,0.6344,0.6215,0.5587,0.4855,0.4098,0.3367,0.2314,0.149,0.117,0.0796,0.0469,0.0066,0.0,0.0,0.0,0.0,0.0,0.0,0.0,0.0,0.0,0.0,0.0,0.0,0.0,0.0,0.0,0.0,0.0,0.0,0.0,0.0,0.0,0.0,0.0,0.0,0.0,0.0,0.0,0.0,0.0,0.0,0.0,0.0,0.0,-0.022,-0.0492,-0.076,0.0,0.6796,0.669,0.6369,0.6276,0.6091,0.5577,0.551,0.5531,0.5621,0.5647,0.5787,0.6144,0.6131,0.6095,0.6057,0.705,0.8051,0.8891,1.0121,1.1359,1.2644,1.3117,1.3457,1.3684,1.3384,1.3204,1.3144,1.2904,1.2904,1.3144,1.3204,1.3384,1.3693,1.3693,1.3693,1.3693,1.3693,1.3693,1.3674,1.3495,1.341,1.3372,1.3173,1.3136,1.2965,1.2408,1.1874,1.1469,1.1114,1.0599,1.0158,1.0087,0.9451,0.8625,0.8057,0.0,0.6627,0.6237,0.6006,0.59,0.6049,0.5945,0.5959,0.0,0.0,0.6736,0.7153,0.6655,0.6168,0.6308,0.4761,0.3487,0.3663,0.2768,0.1783,0.1204,0.1075,0.0803,0.0066,0.0,0.0,0.0,0.0,0.0,0.0,0.0,0.0,0.0,0.0,0.0,0.0,0.0,0.0,0.0,0.0,0.0,0.0,0.0,0.0,0.0,0.0,0.0,0.0,0.0,0.0,0.0,0.0,0.0,0.0,0.0,0.0,0.0,-0.0055,-0.0054,-0.016,0.0,0.0,0.669,0.6369,0.6291,0.6122,0.5592,0.5498,0.5406,0.5155,0.5121,0.5121,0.517,0.5082,0.5125,0.5349,0.6294,0.7437,0.8751,1.0008,1.1371,1.2766,1.3164,1.3485,1.3684,1.3564,1.3384,1.3204,1.3264,1.3264,1.3204,1.3384,1.3564,1.3693,1.3693,1.3693,1.3693,1.3693,1.3693,1.3674,1.3466,1.3315,1.3154,1.2701,1.2304,1.1945,1.168,1.1196,0.0,1.0315,0.9947,0.9655,0.9861,0.9263,0.8446,0.8113,0.7537,0.0,0.6814,0.6551,0.6415,0.0,0.68,0.6867,0.7176,0.7353,0.7556,0.7834,0.784,0.757,0.7104,0.5731,0.4523,0.0,0.2925,0.1844,0.1183,0.1124,0.0855,0.0064,0.0,0.0,0.0,0.0,0.0,0.0,0.0,0.0,0.0,0.0,0.0,0.0,0.0,0.0,0.0,0.0,0.0,0.0,0.0,0.0,0.0,0.0,0.0,0.0,0.0,0.0,0.0,0.0,0.0,0.0,0.0,0.0,0.0,0.0,-0.0111,-0.0223,0.0,0.0,0.0,0.6369,0.6291,0.6137,0.5672,0.5561,0.5356,0.4944,0.4788,0.4649,0.446,0.4352,0.4413,0.4697,0.5434,0.6596,0.825,0.9478,1.0849,1.2436,1.2909,1.3249,1.3514,1.3514,1.3395,1.3159,1.3461,1.3489,1.3251,1.3545,1.3693,1.3693,1.3693,1.3693,1.3693,1.3693,1.3655,1.3589,1.3381,1.3107,1.2748,1.2115,1.1378,1.0679,1.0679,1.0145,0.9377,0.0,0.8829,0.8683,0.9063,0.8694,0.8105,0.7918,0.7496,0.7062,0.7159,0.7062,0.0,0.7413,0.7592,0.7721,0.7787,0.7977,0.8208,0.8357,0.844,0.8214,0.7478,0.6423,0.0,0.4118,0.3243,0.2293,0.1356,0.1171,0.0838,0.0185,0.0062,0.0,0.0,0.0,0.0,0.0,0.0,0.0,0.0,0.0,0.0,0.0,0.0,0.0,0.0,0.0,0.0,0.0,0.0,0.0,0.0,0.0,0.0,0.0,0.0,0.0,0.0,0.0,0.0,0.0,0.0,0.0,0.0,0.0,-0.0113,-0.0285,0.0,0.0,0.0,0.0,0.6291,0.6214,0.5936,0.5656,0.539,0.5137,0.4752,0.4388,0.4052,0.4014,0.4021,0.4027,0.4659,0.5752,0.7422,0.8486,0.9904,1.1765,1.2247,1.2663,1.3136,1.3146,1.3088,1.3088,1.3296,1.34,1.34,1.3599,1.3693,1.3693,1.3693,1.3693,1.3693,1.3693,1.358,1.3381,1.3164,1.271,1.2043,1.1463,1.0452,0.9343,0.9343,0.8777,0.7914,0.0,0.7155,0.7049,0.745,0.769,0.0,0.7592,0.7123,0.679,0.7094,0.7272,0.7481,0.7871,0.8131,0.825,0.8282,0.8364,0.8513,0.8662,0.7931,0.7261,0.7209,0.6373,0.5295,0.401,0.3968,0.3469,0.1744,0.129,0.0952,0.0546,0.0179,0.0,0.0,0.0,0.0,0.0,0.0,0.0,0.0,0.0,0.0,0.0,0.0,0.0,0.0,0.0,0.0,0.0,0.0,0.0,0.0,0.0,0.0,0.0,0.0,0.0,0.0,0.0,0.0,0.0,0.0,0.0,0.0,0.0,0.0,0.0,0.0,0.0,0.0,0.0,0.0,0.626,0.6183,0.5936,0.5609,0.5169,0.4752,0.0,0.0,0.0,0.0,0.0,0.4724,0.5418,0.6572,0.7731,0.893,1.0112,1.1094,1.1813,1.2228,1.238,1.2521,1.2654,1.272,1.2833,1.2975,1.3051,1.3145,1.3277,1.3277,1.3277,1.3277,1.3277,1.3079,1.2739,1.2531,1.1992,1.1236,1.0461,0.9563,0.8581,0.0,0.724,0.6876,0.0,0.0,0.0,0.6849,0.0,0.671,0.6645,0.6759,0.7029,0.7586,0.7975,0.8301,0.8698,0.8895,0.8932,0.8926,0.8948,0.8913,0.8872,0.8475,0.8163,0.8069,0.7067,0.5877,0.4853,0.4122,0.312,0.1396,0.1081,0.081,0.0235,0.0059,0.0,0.0,0.0,0.0,0.0,0.0,0.0,0.0,0.0,0.0,0.0,0.0,0.0,0.0,0.0,0.0,0.0,0.0,0.0,0.0,0.0,0.0,0.0,0.0,0.0,0.0,0.0,0.0,0.0,0.0,0.0,0.0,0.0,0.0,0.0,0.0,0.0,0.0,0.0,0.0,0.0,0.0,0.0,0.0,0.0,0.0,0.0,0.0,0.0,0.0,0.0,0.0,0.4943,0.5784,0.6635,0.7522,0.8505,0.9535,1.0244,1.0584,1.0829,1.0999,1.1104,1.1281,1.1548,1.1817,1.2068,1.2313,1.2521,1.2587,1.2616,1.2616,1.2616,1.2247,1.1652,1.1529,1.0886,0.9932,0.9242,0.8468,0.0,0.6788,0.6294,0.0,0.0,0.0,0.0,0.0,0.6261,0.6244,0.6441,0.6808,0.7342,0.8116,0.8575,0.8981,0.9271,0.9377,0.9396,0.9258,0.9084,0.8859,0.8602,0.8459,0.8248,0.8038,0.7298,0.6433,0.5593,0.4882,0.378,0.1958,0.1601,0.1213,0.0291,0.0058,0.0,0.0,0.0,0.0,0.0,0.0,0.0,0.0,0.0,0.0,0.0,0.0,0.0,0.0,0.0,0.0,0.0,0.0,0.0,0.0,0.0,0.0,0.0,0.0,0.0,0.0,0.0,0.0,0.0,0.0,0.0,0.0,0.0,0.0,0.0,0.0,0.0,0.0,0.0,0.0,0.0,0.0,0.0,0.0,0.0,0.0,0.0,0.0,0.0,0.0,0.0,0.0,0.0,0.5091,0.5253,0.5828,0.7024,0.7688,0.8099,0.8316,0.8722,0.8836,0.8637,0.9202,0.9639,0.9919,1.0669,1.1161,1.1387,1.1576,1.1661,1.1661,1.1661,1.1075,1.0203,1.0203,0.9422,0.8278,0.7872,0.7237,0.6529,0.6309,0.0,0.0,0.0,0.0,0.0,0.0,0.5935,0.6375,0.6882,0.7314,0.7789,0.8691,0.9218,0.9488,0.9601,0.9617,0.9546,0.9264,0.8845,0.837,0.8015,0.7753,0.7434,0.0,0.0,0.6847,0.6186,0.6129,0.5399,0.3376,0.2767,0.2061,0.0,0.0,0.0,0.0,0.0,0.0,0.0,0.0,0.0,0.0,0.0,0.0,0.0,0.0,0.0,0.0,0.0,0.0,0.0,0.0,0.0,0.0,0.0,0.0,0.0,0.0,0.0,0.0,0.0,0.0,0.0,0.0,0.0,0.0,0.0,0.0,0.0,0.0,0.0,0.0,0.0,0.0,0.0,0.0,0.0,0.0,0.0,0.0,0.0,0.0,0.0,0.0,0.0,0.0,0.0,0.4528,0.4964,0.5311,0.5552,0.6426,0.7,0.7207,0.7503,0.7717,0.7811,0.7973,0.8239,0.8599,0.8779,0.9072,0.9422,0.9478,0.9497,0.9497,0.9497,0.9167,0.8675,0.8675,0.808,0.7188,0.6915,0.6444,0.5891,0.0,0.0,0.0,0.0,0.0,0.0,0.0,0.6554,0.7058,0.7586,0.8187,0.8823,0.9322,0.9837,1.0191,0.9982,0.9723,0.9546,0.9264,0.8635,0.8038,0.7624,0.7041,0.6552,0.0,0.6417,0.6446,0.5837,0.6205,0.0,0.4627,0.3527,0.0,0.0,0.0,0.0,0.0,0.0,0.0,0.0,0.0,0.0,0.0,0.0,0.0,0.0,0.0,0.0,0.0,0.0,0.0,0.0,0.0,0.0,0.0,0.0,0.0,0.0,0.0,0.0,0.0,0.0,0.0,0.0,0.0,0.0,0.0,0.0,0.0,0.0,0.0,0.0,0.0,0.0,0.0,0.0,0.0,0.0,0.0,0.0,0.0,0.0,0.0,0.0,0.0,0.0,0.0,0.0,0.0,0.4567,0.4645,0.4568,0.5214,0.557,0.5564,0.5906,0.6103,0.6131,0.6312,0.6568,0.6891,0.7135,0.7437,0.7749,0.7809,0.7856,0.7856,0.7856,0.7541,0.0,0.0,0.6549,0.5862,0.5859,0.5664,0.0,0.0,0.0,0.0,0.0,0.0,0.6482,0.6871,0.7326,0.7829,0.8519,0.0,0.9517,0.9877,1.0235,1.0396,0.9996,0.9655,0.9307,0.8879,0.8187,0.7415,0.6817,0.6286,0.0,0.0,0.0,0.0,0.0,0.0,0.0,0.4995,0.4707,0.3762,0.0,0.1097,0.0,0.006,0.0,0.0,0.0,0.0,0.0,0.0,0.0,0.0,0.0,0.0,0.0,0.0,0.0,0.0,0.0,0.0,0.0,0.0,0.0,0.0,0.0,0.0,0.0,0.0,0.0,0.0,0.0,0.0,0.0,0.0,0.0,0.0,0.0,0.0,0.0,0.0,0.0,0.0,0.0,0.0,0.0,0.0,0.0,0.5545,0.0,0.0,0.0,0.0,0.0,0.0,0.0,0.0,0.0,0.0,0.401,0.4225,0.4233,0.3962,0.4356,0.448,0.43,0.466,0.4923,0.5131,0.5655,0.6022,0.6229,0.6417,0.6492,0.6492,0.6492,0.6078,0.5443,0.5443,0.5135,0.469,0.0,0.0,0.0,0.0,0.0,0.0,0.0,0.6652,0.7012,0.7714,0.8237,0.8698,0.9502,0.9892,1.0136,1.0307,1.0457,1.0435,0.9889,0.9456,0.9016,0.835,0.7597,0.6734,0.5895,0.0,0.5276,0.5276,0.0,0.5788,0.6903,0.0,0.6961,0.5483,0.5898,0.5019,0.142,0.1501,0.1325,0.0127,0.0,0.0,0.0,0.0,0.0,0.0,0.0,0.0,0.0,0.0,0.0,0.0,0.0,0.0,0.0,0.0,0.0,0.0,0.0,0.0,0.0,0.0,0.0,0.0,0.0,0.0,0.0,0.0,0.0,0.0,0.0,0.0,0.0,0.0,0.0,0.0,0.0,0.0,0.0,0.0,0.0,0.0,0.0,0.6133,0.5688,0.0,0.0,0.0,0.0,0.0,0.0,0.0,0.0,0.0,0.0,0.4048,0.3978,0.3756,0.0,0.0,0.0,0.0,0.4019,0.4215,0.4328,0.4516,0.4765,0.4803,0.4812,0.4812,0.4812,0.4736,0.4603,0.4603,0.4557,0.448,0.0,0.0,0.0,0.0,0.0,0.0,0.0,0.7269,0.7878,0.8455,0.9185,0.99,1.0201,1.0623,1.0883,1.0552,1.0629,1.0545,0.9845,0.9306,0.8784,0.8058,0.7122,0.0,0.0,0.0,0.4648,0.4648,0.5057,0.0,0.6903,0.0,0.0,0.0,0.0,0.4734,0.0,0.0,0.0,0.0,0.0,0.0,0.0,0.0,0.0,0.0,0.0,0.0,0.0,0.0,0.0,0.0,0.0,0.0,0.0,0.0,0.0,0.0,0.0,0.0,0.0,0.0,0.0,0.0,0.0,0.0,0.0,0.0,0.0,0.0,0.0,0.0,0.0,0.0,0.0,0.0,0.0,0.0,0.0,0.0,0.6673,0.6752,0.7259,0.6919,0.6471,0.6027,0.5454,0.5093,0.0,0.0,0.0,0.0,0.0,0.0,0.0,0.0,0.0,0.0,0.0,0.0,0.0,0.0,0.0,0.0,0.0,0.0,0.0,0.0,0.0,0.0,0.4035,0.4035,0.0,0.0,0.0,0.0,0.0,0.0,0.0,0.0,0.0,0.0,0.0,0.6936,0.778,0.8779,0.9633,1.0269,1.0493,1.0763,1.086,1.0568,1.0546,1.0386,0.9765,0.915,0.8465,0.7556,0.0,0.0,0.0,0.0,0.4328,0.464,0.0,0.0,0.0,0.0,0.0,0.0,0.0,0.0,0.0,0.0,0.0,0.0,0.0,0.0,0.0,0.0,0.0,0.0,0.0,0.0,0.0,0.0,0.0,0.0,0.0,0.0,0.0,0.0,0.0,0.0,0.0,0.0,0.0,0.0,0.0,0.0,0.0,0.0,0.0,0.0,0.0,0.0,0.0,0.0,0.0,0.0,0.0,0.0,0.0,0.0,0.0,0.7102,0.7038,0.7116,0.7734,0.7576,0.7188,0.6655,0.5878,0.5331,0.0,0.0,0.0,0.0,0.0,0.0,0.0,0.0,0.0,0.0,0.0,0.0,0.0,0.0,0.0,0.0,0.0,0.0,0.0,0.0,0.0,0.0,0.0,0.0,0.0,0.0,0.0,0.0,0.0,0.0,0.0,0.0,0.0,0.0,0.0,0.6286,0.7204,0.8449,0.9363,1.0057,1.0363,1.0548,1.0593,1.0546,1.0426,1.019,0.9623,0.8967,0.8153,0.7075,0.6166,0.0,0.0,0.4078,0.4159,0.4721,0.0,0.0,0.0,0.0,0.0,0.0,0.0,0.0,0.0,0.0,0.0,0.0,0.0,0.0,0.0,0.0,0.0,0.0,0.0,0.0,0.0,0.0,0.0,0.0,0.0,0.0,0.0,0.0,0.0,0.0,0.0,0.0,0.0,0.0,0.0,0.0,0.0,0.0,0.0,0.0,0.0,0.0,0.0,0.0,0.0,0.0,0.0,0.0,0.0,0.0,0.0,0.68,0.7086,0.7388,0.7747,0.7763,0.7605,0.7257,0.6653,0.6054,0.0,0.0,0.0,0.0,0.0,0.0,0.0,0.0,0.0,0.0,0.0,0.0,0.0,0.0,0.0,0.0,0.0,0.0,0.0,0.0,0.0,0.0,0.0,0.0,0.0,0.0,0.0,0.0,0.0,0.0,0.0,0.0,0.0,0.0,0.0,0.0,0.6359,0.6798,0.7975,0.9267,0.9624,0.0,0.0,1.0427,1.0426,1.0141,0.9415,0.8791,0.8026,0.6825,0.0,0.0,0.42,0.4004,0.4117,0.447,0.4655,0.5114,0.0,0.0,0.0,0.0,0.0,0.0,0.0,0.0,0.0,0.0,0.0,0.0,0.0,0.0,0.0,0.0,0.0,0.0,0.0,0.0,0.0,0.0,0.0,0.0,0.0,0.0,0.0,0.0,0.0,0.0,0.0,0.0,0.0,0.0,0.0,0.0,0.0,0.0,0.0,0.0,0.0,0.0,0.0,0.0,0.0,0.0,0.0,0.0,0.0,0.7023,0.7054,0.7277,0.8055,0.794,0.775,0.7623,0.7201,0.6543,0.5587,0.0,0.0,0.0,0.0,0.0,0.0,0.0,0.0,0.0,0.0,0.0,0.0,0.0,0.0,0.0,0.0,0.0,0.0,0.0,0.0,0.0,0.0,0.0,0.0,0.0,0.0,0.0,0.0,0.0,0.0,0.0,0.0,0.0,0.0,0.0,0.0,0.5612,0.631,0.0,0.0,0.9067,0.9407,0.9887,0.9967,0.9783,0.9303,0.8567,0.7726,0.6743,0.0,0.0,0.4139,0.3998,0.4111,0.4436,0.4614,0.4992,0.5915,0.0,0.0,0.0,0.0,0.0,0.0,0.0,0.0,0.0,0.0,0.0,0.0,0.0,0.0,0.0,0.0,0.0,0.0,0.0,0.0,0.0,0.0,0.0,0.0,0.0,0.0,0.0,0.0,0.0,0.0,0.0,0.0,0.0,0.0,0.0,0.0,0.0,0.0,0.0,0.0,0.0,0.0,0.0,0.0,0.0,0.0,0.0,0.6498,0.707,0.7038,0.7229,0.7979,0.7928,0.7766,0.7671,0.7338,0.6737,0.5681,0.5317,0.0,0.0,0.0,0.0,0.0,0.0,0.0,0.0,0.0,0.3859,0.4,0.4083,0.0,0.0,0.0,0.0,0.0,0.0,0.0,0.0,0.0,0.0,0.0,0.0,0.0,0.0,0.0,0.0,0.0,0.0,0.0,0.0,0.0,0.0,0.0,0.0,0.0,0.0,0.0,0.8012,0.842,0.9212,0.9419,0.934,0.9084,0.8309,0.7434,0.0,0.0,0.4719,0.4119,0.4031,0.4139,0.4443,0.458,0.487,0.5616,0.0,0.6037,0.0,0.0,0.0,0.0,0.0,0.0,0.0,0.0,0.0,0.0,0.0,0.0,0.0,0.0,0.0,0.0,0.0,0.0,0.0,0.0,0.0,0.0,0.0,0.0,0.0,0.0,0.0,0.0,0.0,0.0,0.0,0.0,0.0,0.0,0.0,0.0,0.0,0.0,0.0,0.0,0.0,0.0,0.0,0.0,0.0,0.0,0.6752,0.7086,0.7309,0.7309,0.7592,0.7671,0.734,0.7007,0.6533,0.5862,0.5739,0.0,0.0,0.0,0.0,0.0,0.0,0.0,0.0,0.0,0.4,0.4,0.4271,0.4404,0.4404,0.4404,0.0,0.0,0.0,0.0,0.0,0.0,0.0,0.0,0.0,0.0,0.394,0.0,0.0,0.0,0.0,0.0,0.0,0.0,0.0,0.0,0.0,0.441,0.4816,0.0,0.6957,0.7425,0.8434,0.8808,0.8817,0.8567,0.7929,0.7146,0.0,0.0,0.4719,0.4119,0.4112,0.4267,0.4464,0.4491,0.4743,0.5467,0.5501,0.0,0.0,0.0,0.0,0.0,0.0,0.0,0.0,0.0,0.0,0.0,0.0,0.0,0.0,0.0,0.0,0.0,0.0,0.0,0.0,0.0,0.0,0.0,0.0,0.0,0.0,0.0,0.0,0.0,0.0,0.0,0.0,0.0,0.0,0.0,0.0,0.0,0.0,0.0,0.0,0.0,0.0,0.0,0.0,0.0,0.0,0.0,0.645,0.6546,0.6689,0.6943,0.7053,0.7164,0.7293,0.675,0.6231,0.5828,0.5438,0.0,0.0,0.0,0.0,0.0,0.0,0.0,0.0,0.3972,0.4234,0.4687,0.4774,0.4955,0.5207,0.4945,0.4698,0.447,0.0,0.0,0.0,0.0,0.0,0.0,0.0,0.3808,0.3653,0.0,0.0,0.0,0.0,0.0,0.0,0.0,0.0,0.0,0.0,0.0,0.0,0.519,0.5693,0.6215,0.7038,0.7254,0.7231,0.7136,0.6668,0.601,0.5467,0.0,0.4491,0.3968,0.4144,0.4375,0.4301,0.4565,0.4952,0.5501,0.5718,0.0,0.0,0.0,0.0,0.0,0.0,0.0,0.0,0.0,0.0,0.0,0.0,0.0,0.0,0.0,0.0,0.0,0.0,0.0,0.0,0.0,0.0,0.0,0.0,0.0,0.0,0.0,0.0,0.0,0.0,0.0,0.0,0.0,0.0,0.0,0.0,0.0,0.0,0.0,0.0,0.0,0.0,0.0,0.0,0.0,0.0,0.0,0.6291,0.6291,0.6371,0.6578,0.6609,0.672,0.7036,0.6549,0.6065,0.5674,0.5229,0.0,0.0,0.0,0.0,0.0,0.0,0.0,0.4,0.4177,0.4545,0.5125,0.5179,0.5434,0.5815,0.549,0.5201,0.4907,0.4545,0.4215,0.0,0.0,0.0,0.0,0.3743,0.3642,0.3439,0.0,0.0,0.0,0.0,0.0,0.0,0.0,0.0,0.0,0.0,0.0,0.0,0.0,0.4746,0.51,0.0,0.6206,0.622,0.622,0.5897,0.0,0.0,0.0,0.4375,0.3961,0.4218,0.4464,0.4348,0.4606,0.4979,0.5433,0.561,0.0,0.0,0.0,0.0,0.0,0.0,0.0,0.0,0.0,0.0,0.0,0.0,0.0,0.0,0.0,0.0,0.0,0.0,0.0,0.0,0.0,0.0,0.0,0.0,0.0,0.0,0.0,0.0,0.0,0.0,0.0,0.0,0.0,0.0,0.0,0.0,0.0,0.0,0.0,0.0,0.0,0.0,0.0,0.0,0.0,0.0,0.0,0.0,0.6291,0.6307,0.6307,0.6276,0.6372,0.6622,0.6339,0.5928,0.5397,0.5049,0.0,0.0,0.0,0.0,0.0,0.0,0.0,0.4028,0.448,0.4898,0.5334,0.5528,0.5815,0.6219,0.6022,0.5717,0.5301,0.5125,0.4784,0.4347,0.4084,0.3836,0.3604,0.3794,0.3638,0.0,0.0,0.0,0.0,0.0,0.0,0.0,0.0,0.0,0.0,0.0,0.0,0.0,0.0,0.0,0.0,0.0,0.5496,0.5644,0.5657,0.5481,0.516,0.0,0.0,0.0,0.4063,0.426,0.4505,0.4491,0.4634,0.487,0.5351,0.5291,0.0,0.0,0.0,0.0,0.0,0.0,0.0,0.0,0.0,0.0,0.0,0.0,0.0,0.0,0.0185,0.0123,0.0,0.0,0.0,0.0,0.0,0.0,0.0,0.0,0.0,0.0,0.0,0.0,0.0,0.0,0.0,0.0,0.0,0.0,0.0,0.0,0.0,0.0,0.0,0.0,0.0,0.0,0.0,0.0,0.0,0.0,0.0,0.0,0.0,0.0,0.0,0.6137,0.6106,0.6167,0.5824,0.5433,0.0,0.0,0.0,0.0,0.0,0.0,0.0,0.0,0.0,0.43,0.4576,0.4973,0.5528,0.5736,0.6022,0.6426,0.6379,0.605,0.5528,0.5311,0.4768,0.4012,0.3832,0.3681,0.352,0.3565,0.3482,0.0,0.0,0.0,0.0,0.3192,0.3354,0.0,0.0,0.0,0.0,0.0,0.0,0.0,0.0,0.4038,0.3943,0.4089,0.0,0.4156,0.4239,0.4156,0.4054,0.0,0.0,0.0,0.0,0.0,0.0,0.0,0.4769,0.5176,0.5623,0.0,0.0,0.0,0.0,0.0,0.0,0.0,0.0,0.0,0.0,0.0,0.0,0.0,0.0,0.0,0.1665,0.1049,0.0062,0.0,0.0,0.0,0.0,0.0,0.0,0.0,0.0,0.0,0.0,0.0,0.0,0.0,0.0,0.0,0.0,0.0,0.0,0.0,0.0,0.0,0.0,0.0,0.0,0.0,0.0,0.0,0.0,0.0,0.0,0.0,0.0,0.0,0.0,0.6044,0.5998,0.5951,0.5764,0.5482,0.0,0.0,0.0,0.0,0.0,0.0,0.0,0.0,0.429,0.4538,0.4822,0.5264,0.5871,0.6069,0.6454,0.6955,0.6737,0.637,0.5843,0.5321,0.4699,0.409,0.4005,0.3803,0.3552,0.3647,0.0,0.0,0.0,0.0,0.0,0.341,0.3499,0.0,0.3789,0.4024,0.4242,0.0,0.0,0.0,0.0,0.3972,0.381,0.3837,0.3767,0.3733,0.386,0.3839,0.386,0.4151,0.0,0.0,0.0,0.0,0.0,0.0,0.0,0.0,0.0,0.0,0.0,0.0,0.0,0.0,0.0,0.0,0.0,0.0,0.0,0.0,0.0,0.0,0.0,0.0,0.2647,0.1849,0.0925,0.0308,0.0,0.0,0.0,0.0,0.0,0.0,0.0,0.0,0.0,0.0,0.0,0.0,0.0,0.0,0.0,0.0,0.0,0.0,0.0,0.0,0.0,0.0,0.0,0.0,0.0,0.0,0.0,0.0,0.0,0.0,0.0,0.0,0.0,0.0,0.0,0.0,0.0,0.0,0.0,0.0,0.0,0.0,0.0,0.0,0.0,0.429,0.4519,0.4747,0.5116,0.5576,0.6153,0.6417,0.6821,0.7362,0.7054,0.6631,0.6091,0.5225,0.4621,0.4279,0.4259,0.4013,0.3633,0.3792,0.0,0.0,0.0,0.0,0.0,0.0,0.0,0.0,0.3935,0.421,0.4452,0.4343,0.0,0.0,0.0,0.0,0.0,0.3977,0.3976,0.3914,0.3971,0.4031,0.4151,0.4429,0.0,0.0,0.0,0.0,0.0,0.0,0.0,0.0,0.0,0.0,0.0,0.0,0.0,0.0,0.0,0.0,0.0,0.0,0.0,0.0,0.0,0.0,0.0,0.0,0.3751,0.2893,0.2402,0.1049,0.0308,0.0308,0.0123,0.0,0.0,0.0,0.0,0.0,0.0,0.0,0.0,0.0,0.0,0.0,0.0,0.0,0.0,0.0,0.0,0.0,0.0,0.0,0.0,0.0,0.0,0.0,0.0,0.0,0.0,0.0,0.0,0.0,0.0,0.0,0.0,0.0,0.0,0.0,0.0,0.0,0.0,0.0,0.0,0.0,0.4328,0.4385,0.4565,0.4955,0.5192,0.5509,0.5954,0.6492,0.6761,0.6733,0.7191,0.6854,0.5828,0.5241,0.4687,0.4209,0.4094,0.391,0.3684,0.3709,0.0,0.0,0.0,0.0,0.0,0.0,0.0,0.0,0.3935,0.415,0.4335,0.4302,0.0,0.0,0.0,0.0,0.0,0.4095,0.4267,0.4334,0.4077,0.4212,0.4429,0.4477,0.0,0.0,0.0,0.0,0.0,0.0,0.0,0.0,0.0,0.0,0.0,0.0,0.0,0.0,0.0,0.0,0.0,0.0,0.0,0.0,0.0,0.0,0.0,0.0,0.6202,0.5284,0.4057,0.2525,0.1666,0.1666,0.0555,0.0,0.0,0.0,0.0,0.0,0.0,0.0,0.0,0.0,0.0,0.0,0.0,0.0,0.0,0.0,0.0,0.0,0.0,0.0,0.0,0.0,0.0,0.0,0.0,0.0,0.0,0.0,0.0,0.0,0.0,0.0,0.0,0.0,0.0,0.0,0.0,0.0,0.0,0.0,0.0,0.4388,0.4557,0.466,0.486,0.5163,0.5576,0.5922,0.6211,0.6745,0.6985,0.6924,0.6804,0.6324,0.5517,0.5047,0.4613,0.4257,0.4201,0.4053,0.3878,0.0,0.0,0.0,0.0,0.0,0.0,0.0,0.0,0.0,0.0,0.4272,0.4395,0.4327,0.0,0.0,0.0,0.0,0.0,0.4146,0.4355,0.4498,0.4497,0.4606,0.4707,0.4707,0.0,0.0,0.0,0.0,0.0,0.0,0.0,0.0,0.0,0.0,0.0,0.0,0.0,0.0,0.0,0.0,0.0,0.0,0.0,0.0,0.0,0.0,0.0,0.0,0.0,0.6508,0.5529,0.3417,0.2199,0.1973,0.0673,0.0,0.0,0.0,0.0,0.0,0.0,0.0,0.0,0.0,0.0,0.0,0.0,0.0,0.0,0.0,0.0,0.0,0.0,0.0,0.0,0.0,0.0,0.0,0.0,0.0,0.0,0.0,0.0,0.0,0.0,0.0,0.0,0.0,0.0,0.0,0.0,0.0,0.0,0.0,0.4429,0.4578,0.4623,0.4895,0.518,0.5502,0.5978,0.633,0.6586,0.6998,0.7183,0.7146,0.6436,0.586,0.5358,0.4973,0.4633,0.4337,0.4318,0.422,0.4085,0.0,0.0,0.0,0.0,0.0,0.0,0.0,0.0,0.0,0.0,0.0,0.0,0.0,0.0,0.0,0.4221,0.4097,0.4045,0.4267,0.4429,0.4607,0.485,0.4972,0.5047,0.5123,0.0,0.0,0.0,0.0,0.0,0.0,0.0,0.0,0.0,0.0,0.0,0.0,0.0,0.0,0.0,0.0,0.0,0.0,0.0,0.0,0.0,0.0,0.0,0.0,0.0,0.7433,0.7006,0.4543,0.2966,0.2452,0.1148,0.03,0.0,0.0,0.0,0.0,0.0,0.0,0.0,0.0,0.0,0.0,0.0,0.0,0.0,0.0,0.0,0.0,0.0,0.0,0.0,0.0,0.0,0.0,0.0,0.0,0.0,0.0,0.0,0.0,0.0,0.0,0.0,0.0,0.0,0.0,0.0,0.0,0.0,0.0,0.4326,0.4414,0.4423,0.4853,0.5419,0.6116,0.6179,0.6425,0.6874,0.7109,0.7146,0.6984,0.6447,0.5973,0.5555,0.5224,0.4849,0.4469,0.4345,0.4286,0.4278,0.4294,0.0,0.0,0.0,0.0,0.0,0.0,0.0,0.0,0.0,0.0,0.0,0.0,0.0,0.4221,0.4204,0.4097,0.4085,0.4545,0.4667,0.4714,0.4877,0.5128,0.0,0.5818,0.6146,0.0,0.0,0.0,0.0,0.0,0.0,0.0,0.0,0.0,0.0,0.0,0.0,0.0,0.0,0.0,0.0,0.0,0.0,0.0,0.0,0.0,0.0,0.0,0.0,0.0,0.872,0.6603,0.4931,0.3793,0.2492,0.1247,0.0,0.0,0.0,0.0,0.0,0.0,0.0,0.0,0.0,0.0,0.0,0.0,0.0,0.0,0.0,0.0,0.0,0.0,0.0,0.0,0.0,0.0,0.0,0.0,0.0,0.0,0.0,0.0,0.0,0.0,0.5482,0.5482,0.0,0.0,0.0,0.0,0.0,0.0,0.429,0.449,0.4527,0.4928,0.5413,0.5948,0.6195,0.6454,0.6704,0.6823,0.6789,0.6614,0.6219,0.5856,0.5588,0.5117,0.4832,0.4662,0.4416,0.4337,0.4412,0.4343,0.4386,0.0,0.0,0.0,0.0,0.0,0.0,0.0,0.0,0.4284,0.4181,0.4179,0.4242,0.4333,0.4379,0.4347,0.4361,0.4532,0.4755,0.4999,0.5155,0.5488,0.0,0.0,0.6335,0.6627,0.0,0.0,0.0,0.0,0.0,0.0,0.0,0.0,0.0,0.0,0.0,0.0,0.0,0.0,0.0,0.0,0.0,0.0,0.0,0.0,0.0,0.0,0.0,0.0,0.89,0.7115,0.586,0.5212,0.2976,0.1627,0.1111,0.0345,0.0,0.0,0.0,0.0,0.0,0.0,0.0,0.0,0.0,0.0,0.0,0.0,0.0,0.0,0.0,0.0,0.0,0.0,0.0,0.0,0.0,0.0,0.0,0.0,0.0,0.5484,0.0,0.0,0.0,0.0,0.4938,0.0,0.0,0.0,0.0,0.3949,0.4244,0.4465,0.4504,0.4857,0.5233,0.5637,0.5976,0.6304,0.6631,0.6687,0.6562,0.6327,0.6114,0.5872,0.5677,0.5247,0.506,0.5027,0.4621,0.4516,0.4581,0.4392,0.4363,0.0,0.0,0.0,0.0,0.0,0.0,0.0,0.0,0.4227,0.412,0.4129,0.4235,0.4339,0.4389,0.4457,0.4491,0.4491,0.4755,0.5083,0.0,0.0,0.0,0.6458,0.6763,0.0,0.0,0.0,0.0,0.0,0.0,0.0,0.0,0.0,0.0,0.0,0.0,0.0,0.0,0.0,0.0,0.0,0.0,0.0,0.0,0.0,0.0,0.0,0.0,0.0,0.0,0.768,0.6737,0.6116,0.3862,0.2517,0.2049,0.0732,0.0056,0.0,0.0,0.0,0.0,0.0,0.0,0.0,0.0,0.0,0.0,0.0,0.0,0.0,0.0,0.0,0.0,0.0,0.0,0.0,0.0,0.0,0.0,0.0,0.0,0.4792,0.4792,0.4804,0.0,0.0,0.0,0.0,0.0,0.0,0.0,0.4011,0.4204,0.43,0.43,0.4554,0.488,0.5284,0.5489,0.5961,0.6692,0.6692,0.6539,0.6211,0.6203,0.6082,0.588,0.5693,0.5612,0.5571,0.5035,0.48,0.4775,0.4441,0.4333,0.44,0.0,0.0,0.0,0.0,0.0,0.0,0.0,0.4141,0.4175,0.4036,0.4083,0.42,0.42,0.4355,0.4491,0.4491,0.4694,0.4999,0.0,0.0,0.0,0.0,0.0,0.0,0.0,0.0,0.0,0.0,0.0,0.0,0.0,0.0,0.0,0.0,0.0,0.0,0.0,0.0,0.0,0.0,0.0,0.0,0.0,0.0,0.0,0.0,0.0,0.0,0.0,0.8431,0.7613,0.6408,0.5268,0.4035,0.274,0.1176,0.028,0.0,0.0,0.0,0.0,0.0,0.0,0.0,0.0,0.0,0.0,0.0,0.0,0.0,0.0,0.0,0.0,0.0,0.0,0.0,0.0,0.0,0.0,0.0,0.0,0.4792,0.4792,0.4632,0.0,0.0,0.0,0.0,0.0,0.0,0.0,0.4295,0.4478,0.4543,0.4453,0.4514,0.462,0.4726,0.5155,0.5688,0.6343,0.6343,0.6286,0.6203,0.6049,0.6033,0.609,0.575,0.5554,0.5408,0.4888,0.461,0.4481,0.4146,0.4115,0.4259,0.0,0.0,0.0,0.0,0.0,0.0,0.0,0.0,0.0,0.4052,0.4184,0.4395,0.4395,0.4532,0.4646,0.4755,0.5155,0.0,0.0,0.0,0.0,0.0,0.0,0.0,0.0,0.0,0.0,0.0,0.0,0.0,0.0,0.0,0.0,0.0,0.0,0.0,0.0,0.0,0.0,0.0,0.0,0.0,0.0,0.0,0.0,0.0,0.0,0.0,0.0,0.8575,0.8214,0.7874,0.6522,0.5609,0.519,0.3073,0.14,0.028,0.0112,0.0,0.0,0.0,0.0,0.0,0.0,0.0,0.0,0.0,0.0,0.0,0.0,0.0,0.0,0.0,0.0,0.0,0.0,0.0,0.0,0.4596,0.4522,0.4488,0.4488,0.4332,0.4269,0.0,0.0,0.0,0.4198,0.4461,0.0,0.4368,0.4534,0.4554,0.442,0.4412,0.4517,0.4727,0.5187,0.5583,0.5967,0.6041,0.6073,0.6073,0.6041,0.6051,0.6085,0.5973,0.5778,0.5509,0.5103,0.4824,0.4647,0.4254,0.4134,0.4221,0.0,0.0,0.0,0.0,0.0,0.0,0.0,0.0,0.0,0.4112,0.4206,0.4389,0.447,0.46,0.4721,0.4877,0.0,0.0,0.0,0.0,0.0,0.0,0.0,0.0,0.0,0.0,0.0,0.0,0.0,0.0,0.0,0.0,0.0,0.0,0.0,0.0,0.0,0.0,0.0,0.0,0.0,0.0,0.0,0.0,0.0,0.0,0.0,0.0,0.0,0.8768,0.8657,0.8657,0.7315,0.6644,0.6589,0.4522,0.285,0.1456,0.056,0.0168,0.0168,0.0056,0.0,0.0,0.0,0.0,0.0,0.0,0.0,0.0,0.0,0.0,0.0,0.0,0.0,0.5736,0.5277,0.0,0.0,0.4185,0.407,0.4002,0.4002,0.4,0.4078,0.0,0.0,0.0,0.4512,0.4636,0.4606,0.4359,0.4436,0.4452,0.4326,0.4318,0.4563,0.5094,0.5401,0.5571,0.5559,0.5774,0.5872,0.5896,0.6082,0.6077,0.5934,0.6212,0.6092,0.5636,0.5448,0.5247,0.4976,0.4547,0.4296,0.4193,0.434,0.0,0.0,0.0,0.0,0.0,0.0,0.0,0.0,0.42,0.4207,0.4267,0.445,0.46,0.4728,0.4911,0.0,0.0,0.0,0.0,0.0,0.0,0.0,0.0,0.0,0.0,0.0,0.0,0.0,0.0,0.0,0.0,0.0,0.0,0.0,0.0,0.0,0.0,0.0,0.0,0.0,0.0,0.0,0.0,0.0,0.0,0.0,0.0,0.8885,0.8885,0.8885,0.8885,0.7808,0.7249,0.0,0.5784,0.4505,0.3347,0.1454,0.0561,0.0393,0.0112,0.0,0.0,0.0,0.0,0.0,0.0,0.0,0.0,0.0,0.0,0.0,0.0,0.0,0.4888,0.457,0.0,0.0,0.404,0.4021,0.4002,0.4002,0.4044,0.4164,0.435,0.4434,0.0,0.4726,0.4775,0.4751,0.4694,0.4573,0.4485,0.4468,0.4468,0.4646,0.5102,0.5184,0.5263,0.5353,0.5559,0.5742,0.5888,0.5769,0.5864,0.6131,0.6043,0.5762,0.5288,0.5151,0.4805,0.4374,0.418,0.4072,0.4061,0.4185,0.42,0.0,0.0,0.0,0.0,0.0,0.0,0.0,0.426,0.4301,0.445,0.4484,0.46,0.4775,0.0,0.5528,0.0,0.0,0.0,0.0,0.0,0.0,0.0,0.0,0.0,0.0,0.0,0.0,0.0,0.0,0.0,0.0,0.0,0.0,0.0,0.0,0.0,0.0,0.0,0.0,0.0,0.0,0.0,0.0,0.0,0.0,0.0,0.8878,0.8885,0.8885,0.8885,0.8545,0.8378,0.0,0.6963,0.6104,0.5704,0.3279,0.1567,0.0393,0.0112,0.0,0.0,0.0,0.0,0.0,0.0,0.0,0.0,0.0,0.0,0.0,0.0,0.0,0.0,0.0,0.0,0.0,0.0,0.0,0.4161,0.4223,0.4272,0.4373,0.4577,0.4613,0.0,0.0,0.4881,0.4865,0.467,0.4646,0.4573,0.4404,0.4557,0.4735,0.4946,0.5125,0.5228,0.5297,0.533,0.5505,0.5759,0.5638,0.5724,0.5914,0.5815,0.5478,0.5063,0.4979,0.4753,0.4422,0.4294,0.4233,0.4239,0.4321,0.4281,0.4214,0.4436,0.0,0.0,0.0,0.0,0.0,0.0,0.0,0.4491,0.4491,0.46,0.4769,0.0,0.0,0.0,0.0,0.0,0.0,0.0,0.0,0.0,0.0,0.0,0.0,0.0,0.0,0.0,0.0,0.0,0.0,0.0,0.0,0.0,0.0,0.0,0.0,0.0,0.0,0.0,0.0,0.0,0.0,0.0,0.8567,0.8669,0.8825,0.8757,0.8757,0.8825,0.8676,0.8601,0.8601,0.7775,0.7015,0.6216,0.3661,0.1623,0.0224,0.0056,0.0,0.0,0.0,0.0,0.0,0.0,0.0,0.0,0.0,0.0,0.0,0.0,0.0,0.0,0.0,0.0,0.0,0.0,0.0,0.0,0.4541,0.4542,0.4638,0.4832,0.4849,0.4865,0.0,0.0,0.0,0.4566,0.467,0.4629,0.4351,0.4629,0.4816,0.4849,0.5096,0.5238,0.527,0.5124,0.5226,0.5555,0.5555,0.5581,0.5626,0.5598,0.5331,0.4921,0.4874,0.4789,0.4668,0.4539,0.4491,0.4491,0.4491,0.4389,0.4274,0.445,0.4491,0.4491,0.4491,0.0,0.0,0.0,0.0,0.4491,0.4491,0.458,0.4714,0.0,0.0,0.0,0.0,0.0,0.0,0.0,0.0,0.0,0.0,0.0,0.0,0.0,0.0,0.0,0.0,0.0,0.0,0.0,0.0,0.0,0.0,0.0,0.0,0.0,0.0,0.0,0.0,0.0,0.0,0.832,0.8384,0.8513,0.8669,0.8547,0.8533,0.8635,0.8506,0.8418,0.8364,0.8111,0.7287,0.5915,0.3723,0.1887,0.0392,0.0112,0.0,0.0,0.0,0.0,0.0,0.0,0.0,0.0,0.0,0.0,0.0,0.0,0.0,0.0,0.0,0.0,0.0,0.0,0.0,0.0,0.0,0.4767,0.484,0.5053,0.5069,0.5108,0.5217,0.4985,0.4824,0.4775,0.0,0.0,0.4469,0.4678,0.4881,0.5069,0.498,0.5003,0.5124,0.4987,0.5085,0.5423,0.5423,0.5557,0.5747,0.552,0.5296,0.5056,0.483,0.4662,0.4518,0.4498,0.4491,0.4491,0.4491,0.4477,0.4464,0.4484,0.4491,0.4491,0.4491,0.4491,0.0,0.0,0.0,0.4491,0.4491,0.4505,0.4586,0.0,0.0,0.0,0.0,0.0,0.0,0.0,0.0,0.0,0.0,0.0,0.0,0.0,0.0,0.0,0.0,0.0,0.0,0.0,0.0,0.0,0.0,0.0,0.0,0.0,0.0,0.0,0.0,0.0,0.0,0.8313,0.834,0.8364,0.8506,0.8492,0.8431,0.833,0.8361,0.8167,0.7902,0.7609,0.6834,0.5537,0.5025,0.3752,0.1847,0.0552,0.0,0.0,0.0,0.0,0.0,0.0,0.0,0.0,0.0,0.0,0.0,0.0,0.0,0.0,0.0,0.0,0.0,0.0,0.0,0.0,0.0,0.0,0.4914,0.5179,0.5141,0.5157,0.5281,0.5152,0.5001,0.4816,0.4711,0.4622,0.4501,0.4686,0.4864,0.4998,0.492,0.4926,0.4987,0.4849,0.4984,0.5396,0.5384,0.5554,0.5797,0.5535,0.5358,0.5237,0.485,0.4653,0.4614,0.4525,0.4539,0.4621,0.4621,0.4675,0.4721,0.4721,0.4721,0.4707,0.4648,0.4621,0.46,0.4518,0.0,0.0,0.0,0.0,0.0,0.0,0.0,0.0,0.0,0.0,0.0,0.0,0.0,0.0,0.0,0.0,0.0,0.0,0.0,0.0,0.0,0.0,0.0,0.0,0.0,0.0,0.0,0.0,0.0,0.0,0.0,0.0,0.0,0.0,0.7997,0.7902,0.8052,0.8167,0.8235,0.8235,0.8248,0.832,0.8099,0.7851,0.7572,0.7511,0.7173,0.6529,0.5602,0.3943,0.1718,0.113,0.0542,0.0,0.0,0.0,0.0,0.0,0.0,0.0,0.0,0.0,0.0,0.0,0.0,0.0,0.0,0.0,0.0,0.0,0.0,0.0,0.0,0.0,0.4978,0.5228,0.0,0.0,0.0,0.5257,0.5123,0.4824,0.4849,0.4775,0.4526,0.471,0.4836,0.4834,0.4789,0.4786,0.4849,0.4712,0.4868,0.5332,0.5389,0.5597,0.5908,0.5638,0.5487,0.5426,0.4979,0.4802,0.4789,0.4668,0.4675,0.4748,0.4748,0.4816,0.4887,0.4887,0.4887,0.4874,0.4789,0.4748,0.4721,0.46,0.4545,0.0,0.0,0.0,0.0,0.0,0.0,0.0,0.0,0.0,0.0,0.0,0.0,0.0,0.0,0.0,0.0,0.0,0.0,0.0,0.0,0.0,0.0,0.0,0.0,0.0,0.0,0.0,0.0,0.0,0.0,0.0,0.0,0.0,0.7882,0.7665,0.7828,0.7894,0.7928,0.7934,0.8018,0.8099,0.7794,0.7583,0.7472,0.7463,0.74,0.7235,0.6174,0.4445,0.2236,0.2091,0.1379,0.0427,0.0433,0.0273,0.0,0.0,0.0,0.0,0.0,0.0,0.0,0.0,0.0,0.0,0.0,0.0,0.0,0.0,0.0,0.0,0.0,0.0,0.5102,0.5118,0.511,0.5157,0.5281,0.5198,0.5011,0.4816,0.497,0.4935,0.461,0.4784,0.0,0.4606,0.4501,0.4527,0.4719,0.4574,0.4723,0.5135,0.5324,0.5713,0.6265,0.5915,0.5705,0.5555,0.5211,0.5076,0.5063,0.4921,0.4867,0.4874,0.0,0.0,0.0,0.0,0.0,0.0,0.4881,0.0,0.0,0.0,0.0,0.0,0.0,0.0,0.0,0.0,0.0,0.0,0.0,0.0,0.0,0.0,0.0,0.0,0.0,0.0,0.0,0.0,0.0,0.0,0.0,0.0,0.0,0.0,0.0,0.0,0.0,0.0,0.0,0.0,0.0,0.0,0.0,0.0,0.7814,0.7801,0.7685,0.7685,0.7821,0.7821,0.776,0.7638,0.728,0.7274,0.7611,0.728,0.7091,0.7014,0.7088,0.6194,0.455,0.3546,0.2515,0.1491,0.1492,0.0916,0.0,0.0,0.0,0.0,0.0,0.0,0.0,0.0,0.0,0.0,0.0,0.0,0.0,0.0,0.0,0.0,0.0,0.0,0.0,0.0,0.5017,0.5038,0.5152,0.5121,0.5042,0.4881,0.4946,0.4847,0.461,0.4681,0.4684,0.466,0.4499,0.4447,0.4574,0.4519,0.4675,0.4968,0.5142,0.5433,0.5863,0.5813,0.5827,0.584,0.5312,0.5096,0.5083,0.4941,0.5033,0.5235,0.0,0.0,0.0,0.0,0.0,0.0,0.0,0.0,0.0,0.0,0.0,0.0,0.0,0.0,0.0,0.0,0.0,0.0,0.0,0.0,0.0,0.0,0.0,0.0,0.0,0.0,0.0,0.0,0.0,0.0,0.0,0.0,0.0,0.0,0.0,0.0,0.0,0.0,0.0,0.0,0.0,0.0,0.0,0.0,0.0,0.7678,0.7631,0.7577,0.7529,0.7624,0.7604,0.7455,0.7441,0.7441,0.7455,0.7441,0.7415,0.7383,0.7242,0.6928,0.6444,0.5689,0.434,0.2572,0.1876,0.1366,0.0954,0.0271,0.0,0.0,0.0,0.0,0.0,0.0,0.0,0.0,0.5094,0.0,0.5242,0.5242,0.5242,0.5215,0.516,0.0,0.0,0.0,0.0,0.5017,0.5181,0.5203,0.5158,0.5083,0.5076,0.4988,0.4774,0.4723,0.469,0.4706,0.4524,0.4442,0.4491,0.4491,0.4621,0.4843,0.4961,0.5223,0.5549,0.561,0.5793,0.5959,0.0,0.0,0.5379,0.0,0.0,0.5562,0.0,0.0,0.0,0.0,0.0,0.0,0.0,0.0,0.0,0.0,0.0,0.0,0.0,0.0,0.0,0.0,0.0,0.0,0.0,0.0,0.0,0.0,0.0,0.0,0.0,0.0,0.0,0.0,0.0,0.0,0.0,0.0,0.0,0.0,0.0,0.0,0.0,0.0,0.0,0.0,0.0,0.0,0.0,0.0,0.0,0.7604,0.7502,0.7421,0.7419,0.7468,0.7475,0.7419,0.7421,0.7394,0.7292,0.7394,0.7448,0.7448,0.731,0.7289,0.7244,0.7003,0.5782,0.3927,0.3063,0.2534,0.22,0.1021,0.0546,0.0552,0.0167,0.028,0.0616,0.4587,0.4766,0.4924,0.5069,0.5097,0.5097,0.5105,0.5105,0.5057,0.4927,0.0,0.0,0.0,0.0,0.0,0.5373,0.5388,0.5388,0.5381,0.5373,0.5305,0.5093,0.4982,0.4846,0.4701,0.458,0.4498,0.4498,0.4498,0.4573,0.4687,0.4843,0.5067,0.5385,0.5392,0.5603,0.5973,0.0,0.5881,0.5959,0.0,0.5684,0.5867,0.0,0.0,0.0,0.668,0.6661,0.0,0.6327,0.0,0.0,0.0,0.0,0.0,0.0,0.0,0.0,0.0,0.0,0.0,0.0,0.0,0.0,0.0,0.0,0.0,0.0,0.0,0.0,0.0,0.0,0.0,0.0,0.0,0.0,0.0,0.0,0.0,0.0,0.0,0.0,0.0,0.0,0.0,0.0,0.0,0.7434,0.7584,0.726,0.721,0.7405,0.7412,0.7412,0.7412,0.7217,0.7098,0.7098,0.7098,0.7098,0.7098,0.7299,0.723,0.7027,0.7298,0.6758,0.5622,0.5081,0.442,0.3713,0.2234,0.1738,0.1733,0.056,0.084,0.1847,0.4653,0.4792,0.4897,0.4952,0.4952,0.4997,0.5089,0.5112,0.5128,0.0,0.0,0.0,0.5308,0.5403,0.5443,0.5405,0.5398,0.535,0.5206,0.5102,0.5009,0.4948,0.4907,0.4887,0.4857,0.4816,0.4741,0.4655,0.4655,0.4621,0.4559,0.468,0.4857,0.5047,0.5296,0.5528,0.5698,0.5583,0.0,0.5861,0.5772,0.5962,0.0,0.0,0.0,0.0,0.0,0.7075,0.7091,0.0,0.6559,0.6061,0.0,0.0,0.0,0.0,0.0,0.0,0.4491,0.0,0.0,0.0,0.0,0.0,0.0,0.0,0.0,0.0,0.0,0.0,0.0,0.0,0.0,0.0,0.0,0.0,0.0,0.0,0.0,0.0,0.0,0.0,0.0,0.0,0.0,0.0,0.7482,0.7439,0.7434,0.7244,0.7119,0.7204,0.7204,0.7204,0.7204,0.7119,0.7098,0.7098,0.7098,0.7098,0.7098,0.7139,0.722,0.7289,0.7184,0.7117,0.7088,0.5897,0.5157,0.4712,0.3631,0.31,0.2918,0.2717,0.2798,0.3078,0.4615,0.4684,0.4759,0.4822,0.4853,0.4925,0.4991,0.5064,0.5135,0.0,0.0,0.0,0.5559,0.5638,0.5644,0.559,0.5528,0.542,0.5332,0.5182,0.5101,0.5101,0.504,0.4975,0.4975,0.4921,0.4877,0.4782,0.4782,0.4707,0.4586,0.4714,0.4802,0.4836,0.5135,0.5318,0.5399,0.0,0.0,0.0,0.5989,0.0,0.0,0.7007,0.721,0.0,0.0,0.0,0.7624,0.7475,0.6939,0.0,0.0,0.0,0.0,0.0,0.0,0.0,0.0,0.0,0.0,0.0,0.0,0.0,0.4769,0.4908,0.5117,0.0,0.0,0.0,0.0,0.0,0.0,0.0,0.0,0.0,0.0,0.0,0.0,0.0,0.0,0.0,0.0,0.0,0.0,0.7495,0.736,0.7278,0.7278,0.7146,0.7098,0.7098,0.7098,0.7098,0.7098,0.7098,0.7098,0.7098,0.7098,0.7098,0.7098,0.7098,0.7146,0.7278,0.721,0.737,0.7637,0.6844,0.6365,0.6017,0.4842,0.4274,0.405,0.3671,0.3819,0.4267,0.0,0.4505,0.4574,0.4685,0.4819,0.491,0.4938,0.5044,0.5123,0.0,0.5338,0.5569,0.58,0.584,0.5847,0.5827,0.5711,0.563,0.5616,0.5521,0.544,0.5419,0.5257,0.5143,0.5123,0.5033,0.4958,0.4914,0.4914,0.4863,0.4721,0.4857,0.485,0.4728,0.4975,0.511,0.5143,0.0,0.0,0.6306,0.6334,0.6586,0.0,0.0,0.7882,0.778,0.8431,0.8411,0.8002,0.7801,0.7204,0.0,0.0,0.0,0.0,0.0,0.4863,0.0,0.0,0.0,0.0,0.0,0.0,0.0,0.4667,0.4809,0.4992,0.0,0.0,0.0,0.0,0.0,0.0,0.0,0.0,0.0,0.0,0.0,0.0,0.0,0.0,0.0,0.0,0.7244,0.7326,0.7346,0.7217,0.7098,0.7098,0.7098,0.7098,0.7098,0.7098,0.7098,0.7098,0.7098,0.7098,0.7098,0.7098,0.7098,0.7098,0.7098,0.7098,0.7105,0.7285,0.7441,0.7611,0.7733,0.7618,0.7271,0.5938,0.5378,0.5092,0.4159,0.4463,0.541,0.4491,0.4586,0.4675,0.4704,0.4805,0.4989,0.526,0.518,0.523,0.5616,0.5806,0.5922,0.5939,0.6098,0.6118,0.5959,0.5925,0.5888,0.5766,0.5732,0.5664,0.5549,0.5515,0.544,0.5351,0.5324,0.5216,0.5056,0.5056,0.4982,0.4877,0.4874,0.4874,0.4884,0.5022,0.5203,0.5358,0.0,0.0,0.632,0.6519,0.0,0.7495,0.7753,0.8045,0.8316,0.8343,0.837,0.8262,0.0,0.7143,0.7084,0.0,0.0,0.0,0.0,0.0,0.0,0.0,0.0,0.0,0.0,0.0,0.0,0.4741,0.4809,0.4908,0.0,0.0,0.0,0.0,0.0,0.0,0.0,0.0,0.0,0.0,0.0,0.0,0.0,0.0,0.0,0.0,0.6957,0.7061,0.7132,0.7112,0.7098,0.7098,0.7098,0.7098,0.7098,0.7098,0.7098,0.7098,0.7098,0.7098,0.7098,0.7098,0.7098,0.7098,0.7098,0.7098,0.7098,0.7125,0.7346,0.7604,0.7631,0.7621,0.7497,0.7145,0.6838,0.6567,0.6263,0.6358,0.666,0.4586,0.4668,0.4714,0.4789,0.4925,0.5101,0.5358,0.5359,0.5467,0.5766,0.6003,0.6173,0.624,0.639,0.6451,0.6369,0.6227,0.6112,0.6037,0.5888,0.5772,0.5698,0.5698,0.563,0.5515,0.5508,0.5433,0.5243,0.5243,0.5169,0.4995,0.5101,0.5142,0.5148,0.5291,0.544,0.5631,0.0,0.6177,0.6498,0.6722,0.0,0.7638,0.8004,0.8336,0.8594,0.8601,0.8554,0.8377,0.7706,0.7434,0.0,0.0,0.6213,0.5989,0.0,0.5433,0.5121,0.0,0.0,0.0,0.4911,0.0,0.0,0.0,0.4748,0.4714,0.0,0.0,0.0,0.0,0.0,0.0,0.0,0.0,0.0,0.0,0.0,0.0,0.0,0.0,0.0,0.0,0.6817,0.6844,0.6912,0.695,0.6991,0.6991,0.7058,0.7098,0.7098,0.7098,0.7098,0.7098,0.7098,0.7098,0.7098,0.7098,0.7098,0.7098,0.7098,0.7098,0.7098,0.7224,0.7387,0.7604,0.7678,0.7744,0.7802,0.7573,0.7244,0.6907,0.6878,0.6895,0.6904,0.4707,0.4755,0.4816,0.4908,0.5069,0.527,0.5453,0.5583,0.5691,0.5867,0.6197,0.6436,0.6546,0.0,0.0,0.0,0.6552,0.6422,0.6511,0.6132,0.5915,0.5895,0.5861,0.5779,0.5637,0.563,0.5555,0.544,0.544,0.5325,0.5143,0.5365,0.544,0.5446,0.5562,0.0,0.0,0.0,0.0,0.6763,0.0,0.7292,0.7699,0.8269,0.854,0.8648,0.8798,0.871,0.8472,0.8113,0.0,0.7489,0.6953,0.6607,0.0,0.0,0.0,0.0,0.0,0.0,0.0,0.0,0.0,0.4945,0.0,0.0,0.0,0.0,0.0,0.0,0.0,0.0,0.0,0.0,0.0,0.0,0.0,0.0,0.0,0.0,0.0,0.0,0.0,0.6668,0.6702,0.6702,0.6817,0.6856,0.6883,0.6997,0.7065,0.7098,0.7098,0.7098,0.7098,0.7098,0.7098,0.7098,0.7098,0.7098,0.7098,0.7098,0.7112,0.7146,0.7319,0.7475,0.7651,0.7767,0.7902,0.7988,0.7696,0.7347,0.6959,0.6963,0.6924,0.6837,0.4891,0.4961,0.5056,0.5069,0.5345,0.5589,0.5732,0.5766,0.5881,0.6211,0.6464,0.0,0.0,0.0,0.0,0.0,0.0,0.0,0.7262,0.0,0.6381,0.6252,0.6078,0.5935,0.5779,0.5779,0.5705,0.5562,0.5562,0.5521,0.5371,0.5528,0.5562,0.0,0.5711,0.0,0.0,0.0,0.6627,0.0,0.7353,0.7631,0.0,0.8303,0.8418,0.8336,0.8479,0.8601,0.8594,0.0,0.8072,0.8208,0.0,0.6937,0.6817,0.0,0.0,0.0,0.0,0.0,0.0,0.0,0.561,0.0,0.0,0.0,0.4986,0.0,0.0,0.0,0.0,0.0,0.0,0.0,0.0,0.0,0.0,0.0,0.0,0.0,0.0,0.0,0.0,0.0,0.6702,0.6702,0.6715,0.6783,0.6876,0.6903,0.6964,0.7092,0.7098,0.7098,0.7098,0.7098,0.7098,0.7098,0.7098,0.7098,0.7098,0.7098,0.7217,0.7346,0.7412,0.7529,0.7787,0.7801,0.7902,0.7988,0.7696,0.7547,0.7447,0.7009,0.6895,0.6975,0.4995,0.5056,0.5157,0.5365,0.5501,0.5664,0.5895,0.6152,0.6335,0.6416,0.0,0.0,0.0,0.0,0.0,0.0,0.0,0.7299,0.0,0.0,0.0,0.677,0.6546,0.6349,0.6193,0.6149,0.5949,0.5711,0.5711,0.5677,0.5616,0.5684,0.5759,0.0,0.6003,0.0,0.6443,0.0,0.6932,0.0,0.0,0.0,0.0,0.8187,0.837,0.8397,0.8459,0.8526,0.8526,0.0,0.814,0.0,0.0,0.0,0.0,0.0,0.0,0.0,0.0,0.0,0.0,0.0,0.0,0.0,0.5304,0.0,0.4941,0.0,0.0,0.0,0.0,0.0,0.0,0.0,0.0,0.0,0.0,0.0,0.0,0.0,0.0,0.0,0.0,0.0,0.0,0.0,0.0,0.6471,0.6539,0.679,0.691,0.697,0.7051,0.7098,0.7098,0.7098,0.7098,0.7098,0.7098,0.7098,0.7098,0.7098,0.7224,0.7419,0.7461,0.7624,0.7821,0.7909,0.7934,0.7988,0.7889,0.7746,0.7596,0.7347,0.7223,0.7096,0.5251,0.5251,0.5338,0.5603,0.5684,0.58,0.6051,0.6369,0.6586,0.6593,0.0,0.0,0.7801,0.8011,0.0,0.0,0.8309,0.8024,0.0,0.0,0.7143,0.0,0.0,0.0,0.0,0.6497,0.6272,0.5928,0.5881,0.584,0.58,0.584,0.5922,0.6,0.0,0.6463,0.662,0.0,0.0,0.7361,0.7678,0.778,0.7807,0.8052,0.8262,0.8425,0.8425,0.8425,0.8411,0.8354,0.8194,0.0,0.7875,0.0,0.0,0.0,0.0,0.0,0.677,0.0,0.0,0.0,0.0,0.0,0.0,0.0,0.0,0.0,0.0,0.0,0.0,0.0,0.0,0.0,0.0,0.0,0.0,0.0,0.0,0.0,0.0,0.0,0.0,0.0,0.0,0.5793,0.5976,0.617,0.6293,0.6607,0.6844,0.6883,0.7024,0.7098,0.7098,0.7098,0.7098,0.7098,0.7098,0.7119,0.7204,0.7112,0.7272,0.7495,0.757,0.7706,0.7882,0.7941,0.7988,0.7988,0.7988,0.7889,0.7696,0.7646,0.749,0.738,0.5752,0.5671,0.0,0.5772,0.5915,0.6071,0.6265,0.6306,0.647,0.0,0.0,0.0,0.0,0.0,0.0,0.0,0.0,0.9159,0.9159,0.0,0.7516,0.0,0.0,0.6876,0.0,0.0,0.6539,0.6286,0.6098,0.5912,0.5806,0.5919,0.5986,0.6006,0.6335,0.6634,0.6889,0.7238,0.7611,0.7975,0.8187,0.8299,0.8265,0.0,0.8011,0.8327,0.8327,0.0,0.0,0.8327,0.832,0.0,0.0,0.0,0.0,0.0,0.0,0.0,0.0,0.0,0.0,0.6977,0.0,0.0,0.0,0.0,0.565,0.0,0.0,0.0,0.0,0.0,0.0,0.0,0.0,0.0,0.0,0.0,0.0,0.0,0.0,0.0,0.0,0.0,0.0,0.5793,0.5684,0.5835,0.6279,0.6443,0.662,0.6876,0.7024,0.7098,0.7098,0.7098,0.7098,0.7098,0.7098,0.7217,0.7405,0.721,0.7334,0.7787,0.7658,0.7767,0.7982,0.7988,0.7988,0.7988,0.7988,0.7988,0.7939,0.7696,0.7737,0.7827,0.5922,0.5915,0.5895,0.0,0.0,0.6084,0.6279,0.6593,0.7041,0.0,0.0,0.0,0.0,1.0148,1.0405,0.0,0.0,0.991,0.9618,0.8899,0.0,0.0,0.0,0.7468,0.0,0.0,0.0,0.0,0.6349,0.6247,0.6143,0.6197,0.6179,0.6193,0.0,0.6641,0.0,0.0,0.0,0.0,0.0,0.832,0.8248,0.0,0.0,0.8119,0.8119,0.818,0.0,0.8153,0.8187,0.8235,0.8024,0.7862,0.776,0.7862,0.7821,0.0,0.0,0.0,0.8052,0.7509,0.0,0.0,0.0,0.0,0.0,0.0,0.0,0.0,0.0,0.0,0.0,0.0,0.0,0.0,0.0,0.0,0.0,0.0,0.0,0.0,0.0,0.0,0.0,0.5209,0.5359,0.5583,0.5842,0.6272,0.6566,0.677,0.697,0.7098,0.7098,0.7098,0.7098,0.7098,0.7098,0.7125,0.7217,0.7272,0.7434,0.7672,0.7719,0.7855,0.7988,0.7988,0.7988,0.7988,0.7988,0.7988,0.7988,0.7889,0.7896,0.7974,0.6146,0.6186,0.0,0.0,0.0,0.624,0.6436,0.0,0.0,0.0,0.894,0.0,1.0778,0.0,1.1341,0.0,1.1246,1.0772,1.01,0.9545,0.0,0.873,0.8336,0.0,0.0,0.0,0.0,0.0,0.0,0.6463,0.6375,0.632,0.63,0.6306,0.0,0.6641,0.691,0.0,0.7692,0.0,0.0,0.8235,0.0,0.0,0.8024,0.8113,0.0,0.8106,0.8174,0.8022,0.8106,0.818,0.8133,0.8052,0.8004,0.8153,0.8167,0.816,0.8309,0.8452,0.0,0.8092,0.7801,0.0,0.6914,0.0,0.0,0.0,0.0,0.0,0.0,0.0,0.0,0.0,0.0,0.0,0.0,0.4607,0.0,0.0,0.0,0.0,0.0,0.0,0.4755,0.4874,0.5094,0.5318,0.0,0.0,0.6532,0.6695,0.6943,0.7125,0.7224,0.7224,0.7224,0.7224,0.7233,0.7272,0.7224,0.738,0.7536,0.7678,0.7773,0.7896,0.7988,0.7988,0.7988,0.7988,0.7988,0.7988,0.7988,0.7988,0.8075,0.821,0.643,0.6525,0.0,0.0,0.6443,0.0,0.0,0.0,0.8174,0.0,0.9462,1.0412,1.1172,1.1647,1.202,1.2311,1.2189,0.0,1.0622,1.027,0.0,0.0,0.8757,0.8608,0.8361,0.0,0.0,0.0,0.0,0.0,0.6511,0.6375,0.6306,0.6306,0.645,0.0,0.6903,0.7244,0.7767,0.832,0.8327,0.8194,0.7995,0.7889,0.8018,0.8248,0.8092,0.7988,0.7988,0.7988,0.7988,0.8015,0.8221,0.832,0.8354,0.8452,0.8594,0.8682,0.8554,0.8621,0.873,0.8723,0.0,0.0,0.0,0.0,0.7269,0.0,0.0,0.0,0.0,0.0,0.0,0.0,0.0,0.0,0.0,0.0,0.0,0.0,0.0,0.0,0.0,0.468,0.4741,0.4884,0.4881,0.5108,0.0,0.0,0.6429,0.6681,0.6937,0.7217,0.7412,0.7419,0.7419,0.7433,0.7529,0.7522,0.7433,0.7543,0.7685,0.7814,0.7821,0.7902,0.7988,0.7988,0.7988,0.7988,0.7988,0.7995,0.8002,0.8008,0.8241,0.8533,0.6627,0.6641,0.6668,0.0,0.679,0.6783,0.0,0.0,0.0,0.0,1.0426,1.1545,1.2406,1.28,1.2983,1.2949,1.2705,0.0,0.0,0.0,0.0,0.9903,0.9449,0.9069,0.8771,0.8164,0.0,0.7312,0.0,0.0,0.6511,0.6477,0.6402,0.0,0.0,0.0,0.6903,0.7244,0.7767,0.8333,0.8384,0.8404,0.0,0.0,0.8201,0.8248,0.8092,0.7988,0.7988,0.7988,0.7988,0.8015,0.8221,0.832,0.8323,0.8574,0.8676,0.875,0.8989,0.9064,0.9015,0.8906,0.8621,0.8289,0.0,0.0,0.0,0.0,0.0,0.0,0.0,0.0,0.0,0.0,0.0,0.0,0.0,0.0,0.0,0.4863,0.0,0.0,0.0,0.4545,0.4566,0.4607,0.4789,0.4982,0.0,0.0,0.0,0.6566,0.6926,0.7217,0.7412,0.7419,0.7428,0.7543,0.7584,0.7577,0.7543,0.7692,0.7773,0.7821,0.788,0.7955,0.7988,0.7988,0.7988,0.7988,0.7988,0.8113,0.8221,0.833,0.8486,0.8676,0.6783,0.0,0.0,0.6977,0.0,0.0,0.7482,0.0,0.0,0.9693,1.0914,0.0,1.2325,1.2929,1.3241,1.3091,1.2807,0.0,1.1775,0.0,0.0,1.0304,0.989,0.9503,0.9144,0.854,0.0,0.7563,0.0,0.0,0.6573,0.6545,0.0,0.0,0.0,0.6607,0.0,0.7353,0.776,0.8085,0.8303,0.0,0.0,0.8275,0.8361,0.835,0.8262,0.8147,0.7988,0.7988,0.7988,0.8015,0.8221,0.8368,0.8411,0.8642,0.8757,0.8845,0.9015,0.9159,0.9187,0.9055,0.8906,0.8696,0.8397,0.8214,0.7997,0.0,0.0,0.0,0.0,0.0,0.0,0.0,0.0,0.0,0.0,0.0,0.0,0.0,0.0,0.0,0.0,0.466,0.466,0.466,0.4877,0.0,0.0,0.0,0.0,0.6504,0.6973,0.7217,0.7177,0.7434,0.7543,0.7502,0.7631,0.7658,0.7604,0.7814,0.7875,0.7821,0.7921,0.7988,0.7988,0.7988,0.7988,0.7995,0.8113,0.8275,0.8472,0.8554,0.8635,0.873,0.6889,0.0,0.0,0.0,0.0,0.0,0.0,0.8845,0.0,1.0024,0.0,1.1898,1.1748,1.2576,1.3078,1.2915,0.0,1.225,1.1714,1.1497,1.109,1.0426,1.0195,0.9876,0.9449,0.8832,0.0,0.0,0.0,0.0,0.6729,0.0,0.0,0.0,0.0,0.0,0.0,0.7522,0.7821,0.7868,0.8174,0.8214,0.8062,0.8248,0.8377,0.8479,0.8479,0.8303,0.8022,0.8022,0.8008,0.8015,0.8221,0.837,0.8513,0.8662,0.8818,0.8885,0.8885,0.9028,0.918,0.918,0.9166,0.9084,0.8771,0.8594,0.8404,0.8126,0.7848,0.7604,0.0,0.0,0.0,0.0,0.0,0.0,0.0,0.0,0.0,0.0,0.0,0.0,0.0,0.0,0.0,0.4887,0.5022,0.0,0.0,0.0,0.0,0.6403,0.7,0.0,0.6977,0.0,0.7685,0.7535,0.7726,0.7773,0.7665,0.7874,0.7921,0.7848,0.7934,0.7988,0.7988,0.7988,0.8002,0.8035,0.8262,0.8486,0.871,0.873,0.8743,0.8757,0.0,0.0,0.0,0.0,0.0,0.8709,0.9795,1.0086,1.0371,1.09,1.1904,1.2515,1.2366,1.2739,1.2888,1.2603,1.2427,0.0,0.0,0.0,0.0,1.1023,1.0514,1.0086,0.9747,0.9035,0.8452,0.0,0.0,0.0,0.6849,0.0,0.0,0.0,0.0,0.0,0.7278,0.7651,0.0,0.7975,0.8323,0.8431,0.8404,0.8431,0.8459,0.8479,0.8479,0.837,0.8228,0.8228,0.8147,0.8015,0.8221,0.837,0.8513,0.8662,0.8818,0.8885,0.8885,0.8898,0.8974,0.8974,0.8879,0.8771,0.8723,0.8594,0.8431,0.8262,0.8085,0.7882,0.7611,0.0,0.0,0.0,0.0,0.0,0.0,0.0,0.0,0.0,0.0,0.0,0.0,0.0,0.0,0.0,0.0,0.0,0.0,0.0,0.0,0.0,0.6688,0.0,0.0,0.0,0.7801,0.8163,0.8038,0.7934,0.7914,0.7968,0.7975,0.7948,0.7975,0.7988,0.7988,0.7988,0.8113,0.8255,0.8526,0.8662,0.8723,0.8797,0.8844,0.8844,0.0,0.0,0.0,0.0,0.0,0.0,0.0,1.0778,0.0,1.1158,1.1606,1.1891,1.1816,1.2359,1.2637,1.2413,1.2257,1.2074,1.185,1.1484,1.1172,1.0941,1.0514,0.0,0.9829,0.9239,0.8682,0.816,0.0,0.0,0.6883,0.0,0.0,0.0,0.0,0.7204,0.0,0.0,0.0,0.8187,0.8479,0.8601,0.8608,0.8689,0.8716,0.8716,0.8716,0.8621,0.8472,0.8323,0.8221,0.816,0.8153,0.8255,0.8384,0.8459,0.8587,0.8703,0.8703,0.8703,0.8703,0.8703,0.8648,0.8594,0.8594,0.8533,0.8438,0.8354,0.8214,0.8045,0.7672,0.7238,0.0,0.0,0.0,0.0,0.0,0.0,0.0,0.0,0.0,0.0,0.0,0.0,0.0,0.0,0.0,0.0,0.0,0.0,0.0,0.0,0.0,0.0,0.0,0.0,0.0,0.7856,0.7882,0.7914,0.7988,0.7988,0.7988,0.7988,0.7988,0.7988,0.7995,0.8126,0.8296,0.8513,0.8655,0.8757,0.8838,0.8858,0.8885,0.8885,0.0,0.795,0.0,0.0,0.9334,0.0,1.0568,1.1192,1.1565,1.1423,1.1446,1.1425,1.1425,1.1986,1.2325,1.2115,1.1986,1.1803,1.1538,1.1267,1.0995,1.0731,1.0439,1.0134,0.9829,0.9381,0.8934,0.0,0.0,0.0,0.0,0.0,0.0,0.0,0.0,0.0,0.0,0.0,0.8194,0.8384,0.8655,0.8757,0.8771,0.8838,0.8885,0.8885,0.8885,0.8804,0.8716,0.8452,0.8323,0.8248,0.8126,0.8174,0.832,0.832,0.837,0.8472,0.8445,0.8438,0.8438,0.8438,0.8411,0.8397,0.8431,0.8411,0.8357,0.8241,0.8221,0.8106,0.7719,0.7522,0.0,0.0,0.0,0.0,0.0,0.0,0.0,0.0,0.0,0.0,0.0,0.0,0.0,0.0,0.0,0.0,0.0,0.0,0.0,0.0,0.0,0.7102,0.6844,0.0,0.7814,0.0,0.7767,0.7874,0.7988,0.7988,0.7988,0.7988,0.8022,0.8106,0.8147,0.8303,0.8499,0.8716,0.8743,0.8832,0.8885,0.8885,0.8885,0.8885,0.0,0.0,0.0,0.0,0.0,0.0,1.1029,1.1396,1.1755,1.2135,1.206,1.2053,1.2053,1.2054,1.1932,1.1511,1.1463,1.1382,1.1219,1.1056,1.0826,1.0724,1.0439,1.0134,0.9829,0.9381,0.8982,0.0,0.0,0.0,0.0,0.0,0.0,0.0,0.0,0.0,0.0,0.818,0.8411,0.8682,0.8797,0.8865,0.8865,0.8878,0.8885,0.8885,0.8885,0.8871,0.8838,0.8723,0.8492,0.832,0.8255,0.8306,0.832,0.832,0.837,0.8452,0.8374,0.834,0.834,0.834,0.8187,0.8119,0.8255,0.818,0.8029,0.8015,0.8008,0.7955,0.7828,0.7672,0.7475,0.0,0.0,0.0,0.0,0.0,0.0,0.0,0.0,0.0,0.0,0.0,0.0,0.0,0.0,0.0,0.0,0.0,0.0,0.6293,0.0,0.6939,0.7351,0.7529,0.7821,0.8238,0.8072,0.7975,0.7988,0.7988,0.7988,0.7995,0.8187,0.8323,0.8452,0.8608,0.8682,0.8723,0.8811,0.8871,0.8885,0.8885,0.8885,0.8885,0.0,0.0,0.0,0.0,0.0,0.0,0.0,1.1633,1.1918,1.1999,1.1891,1.183,1.1911,1.1925,1.1816,1.1552,1.1531,1.1389,1.1056,1.0914,1.0799,1.0473,1.0344,1.0134,0.9829,0.9476,0.9117,0.0,0.0,0.0,0.0,0.0,0.0,0.0,0.0,0.7875,0.8008,0.8391,0.8601,0.8723,0.8824,0.8885,0.8885,0.8885,0.8885,0.8885,0.8885,0.8885,0.8871,0.8811,0.871,0.852,0.8425,0.8397,0.8384,0.8347,0.8361,0.8323,0.8174,0.8133,0.8133,0.8133,0.8035,0.8008,0.8119,0.8035,0.7988,0.7988,0.7988,0.7968,0.7907,0.7853,0.7767,0.0,0.0,0.0,0.0,0.0,0.0,0.0,0.0,0.0,0.0,0.0,0.0,0.0,0.0,0.0,0.0,0.0,0.0,0.6519,0.0,0.7136,0.7502,0.7651,0.7814,0.7997,0.7975,0.7988,0.7988,0.7988,0.8092,0.818,0.8241,0.8404,0.8621,0.8682,0.8764,0.8797,0.8858,0.8885,0.8885,0.8885,0.8885,0.8885,1.0073,0.0,1.0317,0.0,1.1131,1.1335,1.1443,1.1728,1.1904,1.1837,1.1708,1.1674,1.1816,1.1796,1.1694,1.1504,1.1484,1.1314,1.084,1.0772,1.0656,1.0297,1.0236,0.0,0.9829,0.9578,0.93,0.9001,0.8486,0.0,0.0,0.0,0.0,0.0,0.8011,0.8153,0.8204,0.8574,0.8737,0.8784,0.8838,0.8885,0.8885,0.8885,0.8885,0.8885,0.8885,0.8885,0.8885,0.8885,0.8811,0.875,0.8601,0.852,0.8465,0.8364,0.8354,0.8248,0.814,0.8022,0.7988,0.7988,0.7988,0.7988,0.7988,0.7988,0.7988,0.7988,0.7988,0.7988,0.7988,0.7988,0.7907,0.7706,0.0,0.0,0.0,0.0,0.0,0.0,0.0,0.6491,0.6436,0.0,0.0,0.0,0.0,0.0,0.0,0.0,0.0,0.0,0.0,0.0,0.0,0.7678,0.7794,0.7882,0.7941,0.8015,0.8106,0.8153,0.8255,0.8397,0.8397,0.854,0.8777,0.8777,0.8838,0.8885,0.8885,0.8885,0.8885,0.8885,0.8885,0.8885,1.0752,1.0867,1.0961,1.1328,1.1511,1.1613,1.1613,1.1619,1.1674,1.1816,1.1708,1.1674,1.1816,1.1708,1.1497,1.1261,1.1165,1.1043,1.0744,1.0582,1.0432,0.0,0.0,0.9916,0.9822,0.968,0.9456,0.9207,0.0,0.0,0.8313,0.0,0.8113,0.8313,0.832,0.8431,0.8703,0.871,0.8798,0.8885,0.8885,0.8885,0.8885,0.8885,0.8885,0.8885,0.8885,0.8885,0.8885,0.8885,0.8885,0.8851,0.8757,0.8601,0.8479,0.8479,0.8377,0.832,0.832,0.8153,0.7988,0.7988,0.7988,0.7988,0.7988,0.7988,0.7988,0.7988,0.7988,0.7988,0.7988,0.7988,0.7941,0.7834,0.0,0.0,0.0,0.0,0.0,0.0,0.6511,0.6573,0.6681,0.0,0.0,0.0,0.0,0.0,0.0,0.0,0.0,0.6695,0.6851,0.0,0.7419,0.7529,0.7746,0.7988,0.7988,0.8119,0.8327,0.8411,0.856,0.8703,0.8703,0.8791,0.8878,0.8878,0.8885,0.8885,0.8885,0.8885,0.8885,0.8885,0.8885,0.8885,1.1328,1.1402,1.1463,1.166,1.1728,1.1728,1.1633,1.1701,1.1742,1.1694,1.1558,1.1484,1.1525,1.1491,1.1382,0.0,1.107,1.0934,0.0,1.0677,1.0534,1.029,1.0236,1.0086,0.9829,0.968,0.9564,0.9462,0.0,0.0,0.0,0.8316,0.8364,0.8418,0.8526,0.8621,0.8716,0.8818,0.8838,0.8885,0.8885,0.8885,0.8885,0.8885,0.8885,0.8885,0.8885,0.8885,0.8885,0.8885,0.8885,0.8871,0.8824,0.8832,0.8771,0.8669,0.8608,0.8526,0.8323,0.8235,0.8174,0.8015,0.7988,0.7988,0.7988,0.7988,0.7988,0.7988,0.7988,0.7988,0.7988,0.7988,0.7941,0.7834,0.7862,0.0,0.0,0.0,0.0,0.0,0.6926,0.6987,0.0,0.698,0.0,0.0,0.0,0.0,0.0,0.0,0.0,0.0,0.736,0.0,0.7821,0.7826,0.7997,0.8201,0.8296,0.8364,0.8418,0.8459,0.8567,0.871,0.871,0.8798,0.8885,0.8885,0.8885,0.8885,0.8885,0.8885,0.8885,0.8885,0.8885,0.8885,1.1497,1.1579,1.1647,1.1735,1.1701,1.1633,1.1545,1.1558,1.1545,1.1457,1.1362,1.1307,1.1307,1.126,0.0,1.109,1.1002,1.0813,1.0731,1.0663,1.0527,1.029,1.0222,1.008,0.9829,0.9734,0.0,0.9612,0.9117,0.8784,0.8654,0.8635,0.8655,0.8655,0.8757,0.8798,0.8804,0.8844,0.8885,0.8885,0.8885,0.8885,0.8885,0.8885,0.8885,0.8885,0.8885,0.8885,0.8885,0.8885,0.8885,0.8885,0.8885,0.8885,0.8865,0.8825,0.8757,0.8669,0.8486,0.8391,0.8316,0.8167,0.8167,0.8194,0.814,0.8126,0.8113,0.8002,0.7988,0.7988,0.7988,0.7988,0.7961,0.7916,0.7928,0.7853,0.7509,0.0,0.0,0.0,0.0,0.0,0.0,0.7373,0.7267,0.0,0.0,0.0,0.0,0.0,0.0,0.7502,0.7624,0.0,0.7988,0.8099,0.8201,0.835,0.8499,0.8567,0.8567,0.8628,0.8703,0.8798,0.8798,0.8797,0.8885,0.8885,0.8885,0.8885,0.8885,0.8885,0.8885,0.8885,0.8885,0.8885,1.1375,1.1497,1.1599,0.0,1.1477,0.0,1.1375,1.1253,1.1234,1.1234,1.122,1.1151,1.1151,1.1016,1.0867,1.0867,0.0,0.0,0.0,1.0575,1.0426,1.029,1.0134,0.9916,0.9822,0.9822,0.9754,0.9612,0.9327,0.9228,0.9207,0.9015,0.8892,0.8885,0.8885,0.8885,0.8885,0.8885,0.8885,0.8885,0.8885,0.8885,0.8885,0.8885,0.8885,0.8885,0.8885,0.8885,0.8885,0.8885,0.8885,0.8885,0.8885,0.8885,0.8885,0.8885,0.8838,0.8723,0.8716,0.8608,0.8465,0.8323,0.8384,0.8445,0.8368,0.8333,0.8241,0.8049,0.8022,0.8015,0.8008,0.8008,0.8002,0.7988,0.7988,0.7887,0.7651,0.0,0.0,0.0,0.0,0.0,0.0,0.7631,0.7631,0.0,0.0,0.0,0.0,0.0,0.748,0.748,0.7699,0.7916,0.8022,0.8221,0.837,0.8513,0.8655,0.8723,0.873,0.8817,0.8885,0.8885,0.8885,0.8885,0.8885,0.8885,0.8885,0.8885,0.8885,0.8885,0.8885,0.8885,0.8885,0.8885,0.0,0.0,1.1409,1.1294,1.1341,1.1355,1.1233,1.1185,1.1234,1.1234,1.107,1.0995,1.0995,1.0867,1.0772,1.0772,1.0772,1.0758,1.0724,1.0575,1.0426,1.029,1.0134,0.9916,0.9822,0.9822,0.9754,0.9612,0.9537,0.9381,0.9207,0.9173,0.9042,0.8885,0.8885,0.8885,0.8885,0.8885,0.8885,0.8885,0.8885,0.8885,0.8885,0.8885,0.8885,0.8885,0.8885,0.8885,0.8885,0.8885,0.8885,0.8885,0.8885,0.8885,0.8885,0.8885,0.8858,0.8804,0.8743,0.8682,0.8621,0.8472,0.8459,0.8472,0.8438,0.8431,0.8425,0.8384,0.8377,0.8343,0.8235,0.8214,0.8174,0.8008,0.7988,0.7928,0.7787,0.7787,0.0,0.0,0.7685,0.7767,0.7874,0.7887,0.7887,0.0,0.0,0.0,0.0,0.8011,0.8108,0.8108,0.8126,0.8235,0.8377,0.8526,0.8682,0.8832,0.8811,0.8831,0.8831,0.8865,0.8885,0.8885,0.8885,0.8885,0.8885,0.8885,0.8885,0.8885,0.8885,0.8885,0.8885,0.8885,0.8885,0.8885,1.1234,1.1341,1.147,1.1389,1.1321,1.126,1.1241,1.105,1.0962,1.0962,1.0894,1.0779,1.0779,1.0772,1.0717,1.0717,1.0717,1.0717,1.0717,1.0575,1.0426,1.029,1.0134,0.9916,0.9822,0.9822,0.9781,0.9707,0.9639,0.9523,0.9361,0.935,0.9178,0.9035,0.9035,0.9001,0.8885,0.8885,0.8885,0.8885,0.8885,0.8885,0.8885,0.8885,0.8885,0.8885,0.8885,0.8885,0.8885,0.8885,0.8885,0.8885,0.8885,0.8885,0.8885,0.8885,0.8885,0.8865,0.8838,0.8811,0.8798,0.871,0.8635,0.8587,0.8587,0.8587,0.8567,0.8499,0.8479,0.8438,0.8347,0.832,0.8221,0.8015,0.7934,0.7909,0.7821,0.7814,0.0,0.7909,0.7977,0.8079,0.8228,0.8241,0.8241,0.8241,0.818,0.0,0.8235,0.8262,0.832,0.832,0.8397,0.8506,0.8587,0.8737,0.8804,0.8885,0.8885,0.8885,0.8885,0.8885,0.8885,0.8885,0.8885,0.8885,0.8885,0.8885,0.8885,0.8885,0.8885,0.8885,0.8885,0.8885,0.8885,0.8885,1.1104,1.1341,1.1545,1.1525,1.1321,1.1234,1.1234,1.0928,1.0758,1.0758,1.0758,1.0758,1.0758,1.0758,1.0758,1.0758,1.0731,1.0717,1.0717,1.0555,1.0405,1.0283,1.0107,0.9896,0.9822,0.9822,0.9822,0.9822,0.97,0.9632,0.9605,0.9476,0.9334,0.9248,0.9248,0.9123,0.8952,0.8952,0.8952,0.8946,0.8981,0.8974,0.8967,0.8892,0.8885,0.8885,0.8885,0.8885,0.8885,0.8885,0.8885,0.8885,0.8885,0.8885,0.8885,0.8885,0.8885,0.8885,0.8885,0.8885,0.8885,0.8885,0.8838,0.8743,0.8743,0.8743,0.871,0.8581,0.8554,0.8506,0.8364,0.8368,0.8248,0.8015,0.7909,0.7801,0.778,0.0,0.7896,0.7975,0.8194,0.835,0.8472,0.8479,0.8492,0.8513,0.8384,0.8364,0.8506,0.8404,0.8336,0.8336,0.8581,0.8723,0.8743,0.8817,0.8885,0.8885,0.8885,0.8892,0.8974,0.8974,0.8981,0.8952,0.8952,0.8939,0.8974,0.8939,0.8925,0.8892,0.8932,0.8939,0.8974,0.8974,0.8988,0.8946,1.0812,1.1029,1.1192,1.1077,1.1111,1.1234,1.1234,1.1023,1.0847,1.0847,1.0847,1.0847,1.0847,1.0847,1.0847,1.0847,1.0792,1.0717,1.0717,1.0466,1.0304,1.0283,1.0005,0.9842,0.9822,0.9822,0.9822,0.9822,0.9795,0.9727,0.9612,0.9585,0.949,0.9347,0.9347,0.9334,0.9313,0.9313,0.9313,0.93,0.9171,0.9173,0.9166,0.8988,0.8885,0.8885,0.8885,0.8885,0.8885,0.8885,0.8885,0.8885,0.8885,0.8885,0.8885,0.8885,0.8885,0.8885,0.8885,0.8885,0.8885,0.8885,0.8865,0.8851,0.8851,0.8851,0.8844,0.8817,0.8811,0.8818,0.8669,0.8533,0.8357,0.8035,0.7909,0.7767,0.7651,0.0,0.7961,0.7988,0.8282,0.8459,0.8479,0.8479,0.8533,0.8662,0.8533,0.8513,0.8669,0.8655,0.8642,0.8642,0.8682,0.8771,0.8844,0.8871,0.8885,0.8885,0.8885,0.9001,0.9173,0.9173,0.9191,0.9313,0.9313,0.9239,0.9187,0.9259,0.9164,0.8905,0.9211,0.9232,0.9173,0.9173,0.9205,0.9279,1.0975,1.1199,1.1389,1.1321,1.1362,1.1382,1.1301,1.1158,1.1063,1.1063,1.1063,1.1036,1.0887,1.088,1.0847,1.0833,1.0758,1.0717,1.0717,1.0514,1.0358,1.0283,1.0066,0.9842,0.9822,0.9822,0.9822,0.9822,0.9822,0.9788,0.9727,0.9727,0.9598,0.9388,0.9469,0.9415,0.9323,0.9347,0.9381,0.9367,0.9268,0.9207,0.9193,0.8994,0.8885,0.8885,0.8885,0.8885,0.8885,0.8885,0.8885,0.8898,0.9028,0.9055,0.9069,0.915,0.9062,0.8885,0.8885,0.8885,0.8885,0.8885,0.8885,0.8885,0.8885,0.8885,0.8885,0.8885,0.8885,0.8838,0.8737,0.8587,0.8411,0.8201,0.7963,0.0,0.0,0.7853,0.8022,0.8153,0.8425,0.8635,0.8716,0.873,0.8757,0.8825,0.8771,0.8757,0.8832,0.8832,0.8832,0.8832,0.8832,0.8906,0.9055,0.9055,0.9055,0.9055,0.9137,0.9171,0.9214,0.9296,0.9313,0.9381,0.9381,0.934,0.9337,0.9354,0.93,0.9191,0.9327,0.934,0.933,0.933,0.932,0.9361,1.1118,1.1355,1.1565,1.1565,1.1565,1.1538,1.1457,1.1314,1.1275,1.1165,1.1261,1.1158,1.1016,1.0995,1.0968,1.088,1.0778,1.0738,1.0772,1.0629,1.0466,1.029,1.01,0.9876,0.9822,0.9822,0.9822,0.9822,0.9822,0.9822,0.9822,0.9822,0.97,0.949,0.9605,0.953,0.9371,0.9435,0.9483,0.9469,0.932,0.9316,0.9303,0.9096,0.9022,0.8994,0.9028,0.9022,0.8994,0.9028,0.9042,0.9062,0.9171,0.9262,0.9282,0.9347,0.9218,0.9042,0.9042,0.9042,0.9042,0.9042,0.9042,0.9042,0.9042,0.9042,0.9042,0.9042,0.9015,0.8954,0.8832,0.8662,0.8486,0.8343,0.0,0.0,0.0,0.8045,0.8201,0.8357,0.8608,0.8811,0.8871,0.8885,0.8885,0.8885,0.8967,0.8988,0.8988,0.9022,0.9042,0.9042,0.9008,0.9042,0.9207,0.9248,0.9248,0.9214,0.9306,0.934,0.9323,0.9381,0.9449,0.9483,0.9483,0.9462,0.9435,0.9469,0.9442,0.9388,0.9456,0.9462,0.9435,0.9435,0.9456,0.9476,1.0989,1.1206,1.1409,1.1409,1.1409,1.145,1.1586,1.147,1.1321,1.1255,1.1287,1.1314,1.1165,1.1145,1.1199,1.1328,1.0962,1.0778,1.0853,1.0785,1.0575,1.029,0.9998,0.9836,0.9822,0.9822,0.9822,0.9822,0.9822,0.9822,0.9822,0.9822,0.9808,0.9788,0.9802,0.9795,0.9774,0.9781,0.9788,0.9774,0.9632,0.9578,0.9557,0.9408,0.9259,0.9214,0.93,0.9259,0.9214,0.93,0.9347,0.9354,0.9361,0.9361,0.9367,0.9374,0.9367,0.9347,0.9347,0.9347,0.9347,0.9347,0.9347,0.9347,0.9347,0.9347,0.9347,0.9347,0.9289,0.9187,0.918,0.8886,0.8642,0.8492,0.0,0.0,0.8286,0.8364,0.8506,0.8662,0.8825,0.8871,0.8885,0.8885,0.8885,0.8885,0.9062,0.9193,0.9193,0.9273,0.9347,0.9347,0.9268,0.92,0.9207,0.935,0.935,0.9214,0.9306,0.9449,0.9578,0.9585,0.9666,0.9788,0.9788,0.9713,0.9605,0.9734,0.9625,0.9408,0.968,0.9707,0.9591,0.9591,0.968,0.9747,1.1077,1.1328,1.1531,1.1531,1.143,1.1375,1.1463,1.143,1.1335,1.1255,1.1294,1.1335,1.1179,1.1084,1.1056,1.1111,1.0873,1.0744,1.0806,1.0582,1.0399,1.0283,0.9985,0.9822,0.9822,0.9822,0.9822,0.9822,0.9822,0.9822,0.9822,0.9822,0.9774,0.9693,0.9781,0.9774,0.9693,0.9781,0.9822,0.9808,0.9666,0.9612,0.9591,0.9442,0.9347,0.9357,0.9361,0.9347,0.9306,0.9361,0.9381,0.9395,0.9496,0.9523,0.9537,0.9625,0.9652,0.9652,0.9652,0.9517,0.9381,0.9381,0.9381,0.9381,0.9381,0.9381,0.9381,0.9381,0.9334,0.9323,0.9228,0.8988,0.8804,0.8648,0.0,0.8404,0.8404,0.8526,0.8648,0.8703,0.8927,0.9069,0.9069,0.9885,1.0058,0.9268,0.9995,1.0147,0.935,0.9347,0.9422,0.9517,0.9469,0.9435,0.9435,0.9496,0.9496,0.9435,0.9585,0.9639,0.9612,0.97,0.9768,0.9822,0.9822,0.9788,0.9747,0.9795,0.9754,0.9666,0.9774,0.9788,0.9741,0.9741,0.9774,0.9802,1.1077,1.1301,1.1491,1.1538,1.1436,1.1355,1.1389,1.143,1.1389,1.1192,1.1294,1.1335,1.1179,1.1036,1.09,1.1009,1.0833,1.0744,1.0785,1.0514,1.0283,1.0141,0.9937,0.9822,0.9822,0.9822,0.9822,0.9822,0.9822,0.9822,0.9822,0.9822,0.9768,0.968,0.9774,0.9768,0.968,0.9781,0.9822,0.9815,0.9713,0.968,0.9666,0.9557,0.949,0.9456,0.9503,0.949,0.9462,0.9503,0.9517,0.9537,0.9646,0.968,0.9693,0.9795,0.9822,0.9822,0.9822,0.9673,0.9517,0.9517,0.9517,0.9517,0.9517,0.9517,0.9517,0.9517,0.9483,0.9422,0.9313,0.9178,0.9042,0.894,0.8832,0.8764,0.8764,0.8852,0.892,0.892,0.949,0.9674,0.9282,1.0513,1.0755,0.9497,1.0229,1.0398,0.9576,0.9517,0.9564,0.9673,0.968,0.968,0.968,0.968,0.9652,0.9612,0.9754,0.9768,0.968,0.9774,0.9822,0.9822,0.9822,0.9822,0.9822,0.9822,0.9822,0.9822,0.9822,1.0065,1.0422,1.0422,1.0664,1.0959,1.088,1.1063,1.1212,1.1362,1.1389,1.1389,1.1389,1.1518,1.1511,1.1206,1.1294,1.1335,1.1248,1.1036,1.1009,1.1151,1.0894,1.0785,1.0867,1.0663,1.029,0.9842,0.9822,0.9822,0.9822,0.9822,0.9822,0.9822,0.9822,0.9822,0.9822,0.9822,0.9822,0.9822,0.9822,0.9822,0.9822,0.9822,0.9822,0.9822,0.9822,0.9822,0.9822,0.9822,0.9734,0.9632,0.9768,0.9734,0.9632,0.9774,0.9822,0.9822,0.9822,0.9822,0.9822,0.9822,0.9822,0.9822,0.9822,0.9822,0.9822,0.9822,0.9822,0.9822,0.9822,0.9822,0.9822,0.9822,0.9707,0.9612,0.9612,0.9483,0.9381,0.9381,0.9381,0.9381,0.9381,0.9381,0.9381,0.9381,1.0524,1.0813,0.9497,1.0524,1.0755,0.9497,0.9523,0.9673,0.9815,0.9822,0.9822,0.9822,0.9822,0.9822,0.9822,0.9822,0.9747,0.9612,0.9754,0.9822,0.9822,0.9822,0.9822,0.9822,0.9822,0.9822,0.9822,0.9822,0.9822,0.9822,0.9822,1.0604,1.1692,1.1692,1.2526,1.3485,1.1056,1.105,1.109,1.1348,1.1301,1.1267,1.1375,1.143,1.1389,1.1192,1.1206,1.1253,1.1314,1.1097,1.105,1.1301,1.105,1.0806,1.0636,1.0541,1.0385,1.0154,1.0039,0.9985,0.9916,0.9876,0.9822,0.9822,0.9822,0.9822,0.9822,0.9822,0.9822,0.9822,0.9822,0.9822,0.9822,0.9822,0.9822,0.9822,0.9822,0.9822,0.9822,0.9822,0.9795,0.9761,0.9802,0.9795,0.9768,0.9808,0.9822,0.9822,0.9822,0.9822,0.9822,0.9822,0.9822,0.9822,0.9822,0.9822,0.9822,0.9822,0.9822,0.9822,0.9822,0.9822,0.9822,0.9822,0.9788,0.9727,0.9625,0.9571,0.9503,0.9401,0.9381,0.9381,0.9381,0.9381,0.9381,0.9381,0.9821,0.995,0.9596,1.0754,1.1054,0.9746,0.9734,0.9774,0.9822,0.9822,0.9822,0.9822,0.9822,1.0247,1.1148,1.0247,0.9802,0.9754,0.9802,0.9822,0.9822,0.9822,0.9822,0.9822,0.9822,0.9822,0.9883,1.0785,1.1148,1.1209,1.2165,1.2766,1.3126,1.3126,1.3366,1.3665,1.1056,1.1009,1.1023,1.126,1.1226,1.1282,1.1369,1.1443,1.1423,1.1274,1.1253,1.1287,1.1382,1.1179,1.1104,1.1287,1.1084,1.0799,1.0683,1.0616,1.0541,1.046,1.031,1.0168,0.999,0.9835,0.9822,0.9822,0.9822,0.9822,0.9822,0.9883,0.9876,0.9822,0.9883,0.9876,0.9822,0.9822,0.9822,0.9822,0.9822,0.9822,0.9822,0.9822,0.9822,0.9822,0.9822,0.9863,0.9849,0.9849,0.9951,0.9985,0.9863,0.9863,0.9849,0.9849,0.9869,0.9849,0.9971,0.9958,0.9849,0.9849,0.9869,0.9822,0.9822,0.9822,0.9822,0.9822,0.9822,0.9795,0.9707,0.9693,0.9659,0.9571,0.9557,0.9557,0.9557,0.9964,1.0141,0.9617,1.0525,1.0823,0.9753,1.1387,1.2165,1.1382,1.1322,1.1322,1.1322,1.1322,1.1322,1.1322,1.1322,1.1683,1.2466,1.1744,1.1088,1.0543,1.0065,0.9822,0.9822,0.9822,0.9822,0.9822,1.0301,1.0543,1.0664,1.1924,1.2466,1.2586,1.3366,1.4023,1.4441,1.4441,1.4798,1.5154,1.0989,1.088,1.0975,1.1138,1.1234,1.1219,1.1389,1.1531,1.1572,1.143,1.1402,1.1396,1.1409,1.126,1.1241,1.1199,1.1056,1.0894,1.088,1.0739,1.0717,1.0717,1.0575,1.0365,1.0031,0.9924,0.9849,0.9863,0.9836,0.9836,0.9863,0.993,0.9916,0.9849,0.9923,0.9903,0.9822,0.9822,0.9822,0.9822,0.9822,0.9822,0.9822,0.9822,0.9822,0.9822,0.9822,0.9849,0.9963,0.9963,1.0141,1.0229,0.993,0.9876,0.999,1.0004,0.9903,0.9903,1.0202,1.0175,1.0011,1.0011,0.9964,0.9856,0.9842,0.9842,0.9842,0.9863,0.9863,0.9863,0.9863,0.9863,0.9863,0.9978,1.0039,1.01,1.0221,1.1194,1.149,1.0322,1.2311,1.2784,1.0361,1.2286,1.3725,1.3725,1.3744,1.3744,1.3725,1.3744,1.3744,1.3725,1.3725,1.3725,1.3844,1.3784,1.3066,1.1872,1.0725,1.0119,1.0119,1.0119,1.0119,1.0179,1.139,1.1872,1.1993,1.3306,1.3844,1.3904,1.4023,1.4738,1.5758,1.5758,1.6526,1.7303,1.1097,1.0928,1.0853,1.1118,1.1234,1.1253,1.1531,1.1599,1.1606,1.1572,1.1463,1.1436,1.1558,1.1328,1.126,1.1497,1.1274,1.107,1.0887,1.0739,1.0717,1.0717,1.0575,1.046,1.0399,1.0134,1.0059,1.0181,0.9937,0.9944,1.0181,1.0093,0.997,0.9936,0.997,0.9903,0.9822,0.9822,0.9822,0.9822,0.9822,0.9822,0.9822,0.9822,0.9822,0.9822,0.9822,0.9842,0.9869,0.9869,1.0053,1.0249,1.0059,0.9963,1.0011,1.0195,1.012,1.0039,1.0229,1.0256,1.0229,1.0229,1.0209,1.0148,0.9963,0.9936,0.997,1.0154,1.0181,1.0181,1.0181,1.0181,1.0552,1.1658,1.1846,1.222,1.3332,1.3704,1.3711,1.3249,1.3658,1.3723,1.2955,1.3366,1.3725,1.3725,1.3876,1.3895,1.3734,1.3876,1.3895,1.3734,1.3725,1.4202,1.5154,1.4202,1.3545,1.3246,1.3006,1.2826,1.2826,1.2826,1.2826,1.2886,1.3126,1.3246,1.3366,1.4679,1.5213,1.5273,1.629,1.682,1.7067,1.7067,1.7244,1.7479,1.1056,1.0934,1.09,1.1124,1.1234,1.1267,1.1572,1.1619,1.1619,1.1619,1.1552,1.1531,1.1613,1.1477,1.1416,1.1504,1.1233,1.1029,1.0887,1.0739,1.0717,1.0717,1.0643,1.0602,1.0602,1.0378,1.027,1.0283,1.012,1.012,1.0276,1.0195,1.012,0.9984,0.9984,0.9943,0.9862,0.9849,0.9863,0.9862,0.9849,0.9822,0.9822,0.9822,0.9869,0.9869,0.9869,1.0019,1.0141,1.0141,1.0297,1.0453,1.0229,1.0209,1.0276,1.0358,1.0276,1.0209,1.0432,1.0439,1.0378,1.0378,1.0891,1.1168,1.0321,1.0161,1.0181,1.0263,1.0841,1.1277,1.1277,1.1838,1.2532,1.3277,1.3394,1.3644,1.4404,1.5018,1.5102,1.4375,1.4858,1.5115,1.5004,1.4993,1.5236,1.5853,1.6032,1.6043,1.5924,1.6032,1.6043,1.5924,1.5914,1.6216,1.6891,1.6227,1.5914,1.5853,1.442,1.3725,1.3725,1.3829,1.3819,1.3734,1.449,1.472,1.4738,1.5994,1.6526,1.6585,1.7244,1.7479,1.7479,1.7479,1.7479,1.7479,1.09,1.088,1.0921,1.1104,1.1165,1.1287,1.1545,1.1599,1.1619,1.1619,1.1619,1.1619,1.1619,1.1599,1.1511,1.1328,1.1111,1.0921,1.0921,1.0846,1.0758,1.0758,1.0731,1.0717,1.0717,1.0595,1.0473,1.0358,1.0304,1.029,1.0317,1.029,1.0195,0.9984,0.9984,0.9984,0.9977,0.9883,0.9924,1.0011,0.9924,0.9876,0.9897,0.9897,0.9978,1.0024,1.0024,1.0263,1.0487,1.0466,1.0575,1.067,1.0399,1.0399,1.0493,1.0521,1.0426,1.0378,1.0643,1.0629,1.0593,1.0853,1.1755,1.2363,1.1332,1.1097,1.1082,1.1111,1.1996,1.2805,1.2805,1.3753,1.4635,1.4886,1.4949,1.5011,1.5262,1.62,1.6439,1.5337,1.6105,1.6713,1.6713,1.6713,1.7156,1.8226,1.8336,1.8348,1.83,1.8336,1.8336,1.83,1.83,1.83,1.83,1.83,1.83,1.8287,1.57,1.45,1.45,1.474,1.472,1.456,1.5842,1.6211,1.605,1.7126,1.7527,1.7479,1.7479,1.7479,1.7491,1.7527,1.7551,1.7551,1.0887,1.088,1.0887,1.0975,1.1192,1.1375,1.1416,1.1538,1.1619,1.1619,1.1619,1.1619,1.1619,1.1504,1.1307,1.0961,1.1084,1.1131,1.1131,1.0995,1.0847,1.0847,1.0792,1.0717,1.0717,1.0697,1.0677,1.0663,1.0405,1.0344,1.046,1.0337,1.0195,0.9984,0.9984,0.9984,0.9977,0.9883,0.9985,1.0236,1.0017,1.01,1.0215,1.0215,1.0229,1.0249,1.0249,1.0351,1.0473,1.0351,1.0493,1.069,1.0521,1.0473,1.0521,1.0649,1.0582,1.05,1.067,1.0704,1.0948,1.2192,1.2652,1.3037,1.4056,1.4171,1.4153,1.4271,1.4438,1.4568,1.4568,1.4697,1.5206,1.6433,1.669,1.7075,1.8314,1.8645,1.8562,1.8211,1.8049,1.8042,1.8042,1.8042,1.8103,1.8287,1.8505,1.8529,1.8312,1.8505,1.8529,1.83,1.83,1.83,1.83,1.83,1.83,1.8287,1.7909,1.769,1.769,1.7725,1.7713,1.769,1.7909,1.7827,1.7577,1.7757,1.7684,1.7479,1.7479,1.7479,1.7503,1.7732,1.7817,1.7853,1.0819,1.0819,1.0873,1.1036,1.1179,1.1321,1.1491,1.1572,1.1619,1.1619,1.1619,1.1619,1.1619,1.1409,1.1212,1.1077,1.105,1.1043,1.1043,1.0914,1.0914,1.1063,1.0846,1.0758,1.0779,1.0765,1.0717,1.0717,1.0588,1.0561,1.0616,1.0466,1.0365,1.0297,1.0215,1.0222,1.0283,1.0141,1.0202,1.0385,1.0236,1.0222,1.0283,1.0283,1.0331,1.0412,1.0493,1.0568,1.0609,1.0548,1.0616,1.0711,1.0643,1.0622,1.0629,1.0704,1.067,1.0636,1.0704,1.124,1.2033,1.2618,1.3988,1.5294,1.5944,1.6742,1.6893,1.5238,1.5554,1.6073,1.6073,1.6732,1.7442,1.8086,1.815,1.8419,1.9008,1.9072,1.9036,1.8915,1.8807,1.8734,1.8734,1.8734,1.8734,1.8734,1.8843,1.8855,1.8734,1.8843,1.8855,1.8734,1.8734,1.8734,1.8734,1.8734,1.8734,1.8734,1.8734,1.8577,1.83,1.8444,1.8432,1.83,1.8444,1.8263,1.7877,1.7877,1.772,1.7479,1.7479,1.7479,1.7515,1.7781,1.7877,1.7913]}]]